[[{"header":{"parameterUnit":"m.s-1","parameterCategory":1,"la1":30.6,"la2":28.766,"lo1":-90.7593,"lo2":-88.6598,"dy":0.0162,"dx":0.0183,"nx":116,"ny":114,"refTime":"2024-05-21T12:00:00:Z","depth":0,"parameterNumber":2,"parameterNumberName":"U-component_of_WINDS"},"data":[0.0,0.0,0.0,0.0,0.0,0.0,0.0,0.0,0.0,0.0,0.0,0.0,0.0,0.0,0.0,0.0,0.0,0.0,0.0,0.0,0.0,0.0,0.0,0.0,0.0,0.0,0.0,0.0,0.0,0.0,0.0,0.0,0.0,0.0,0.0,0.0,0.0,0.0,0.0,0.0,0.0,0.0,0.0,0.0,0.0,0.0,0.0,0.0,0.0,0.0,0.0,0.0,0.0,0.0,0.0,0.0,0.0,0.0,0.0,0.0,0.0,0.0,0.0,0.0,0.0,0.0,0.0,0.0,0.0,0.0,0.0,0.0,0.0,0.0,0.0,0.0,0.0,0.0,0.0,0.0,0.0,0.0,0.0,0.0,0.0,0.0,0.0,0.0,0.0,0.0,0.0,0.0,0.0,0.0,0.0,0.0,0.0,0.0,0.0,0.0,0.0,0.0,0.0,0.0,0.0,0.0,0.0,0.0,0.0,0.0,0.0,0.0,0.0,0.0,0.0,0.0,0.0,0.0,0.0,0.0,0.0,0.0,0.0,0.0,0.0,0.0,0.0,0.0,0.0,0.0,0.0,0.0,0.0,0.0,0.0,0.0,0.0,0.0,0.0,0.0,0.0,0.0,0.0,0.0,0.0,0.0,0.0,0.0,0.0,0.0,0.0,0.0,0.0,0.0,0.0,0.0,0.0,0.0,0.0,0.0,0.0,0.0,0.0,0.0,0.0,0.0,0.0,0.0,0.0,0.0,0.0,0.0,0.0,0.0,0.0,0.0,0.0,0.0,0.0,0.0,0.0,0.0,0.0,0.0,0.0,0.0,0.0,0.0,0.0,0.0,0.0,0.0,0.0,0.0,0.0,0.0,0.0,0.0,0.0,0.0,0.0,0.0,0.0,0.0,0.0,0.0,0.0,0.0,0.0,0.0,0.0,0.0,0.0,0.0,0.0,0.0,0.0,0.0,0.0,0.0,0.0,0.0,0.0,0.0,0.0,0.0,0.0,0.0,0.0,0.0,0.0,0.0,0.0,0.0,0.0,0.0,0.0,0.0,0.0,0.0,0.0,0.0,0.0,0.0,0.0,0.0,0.0,0.0,0.0,0.0,0.0,0.0,0.0,0.0,0.0,0.0,0.0,0.0,0.0,0.0,0.0,0.0,0.0,0.0,0.0,0.0,0.0,0.0,0.0,0.0,0.0,0.0,0.0,0.0,0.0,0.0,0.0,0.0,0.0,0.0,0.0,0.0,0.0,0.0,0.0,0.0,0.0,0.0,0.0,0.0,0.0,0.0,0.0,0.0,0.0,0.0,0.0,0.0,0.0,0.0,0.0,0.0,0.0,0.0,0.0,0.0,0.0,0.0,0.0,0.0,0.0,0.0,0.0,0.0,0.0,0.0,0.0,0.0,0.0,0.0,0.0,0.0,0.0,0.0,0.0,0.0,0.0,0.0,0.0,0.0,0.0,0.0,0.0,0.0,0.0,0.0,0.0,0.0,0.0,0.0,0.0,0.0,0.0,0.0,0.0,0.0,0.0,0.0,0.0,0.0,0.0,0.0,0.0,0.0,0.0,0.0,0.0,0.0,0.0,0.0,0.0,0.0,0.0,0.0,0.0,0.0,0.0,0.0,0.0,0.0,0.0,0.0,0.0,0.0,0.0,0.0,0.0,0.0,0.0,0.0,0.0,0.0,0.0,0.0,0.0,0.0,0.0,0.0,0.0,0.0,0.0,0.0,0.0,0.0,0.0,0.0,0.0,0.0,0.0,0.0,0.0,0.0,0.0,0.0,0.0,0.0,0.0,0.0,0.0,0.0,0.0,0.0,0.0,0.0,0.0,0.0,0.0,0.0,0.0,0.0,0.0,0.0,0.0,0.0,0.0,0.0,0.0,0.0,0.0,0.0,0.0,0.0,0.0,0.0,0.0,0.0,0.0,0.0,0.0,0.0,0.0,0.0,0.0,0.0,0.0,0.0,0.0,0.0,0.0,0.0,0.0,0.0,0.0,0.0,0.0,0.0,0.0,0.0,0.0,0.0,0.0,0.0,0.0,0.0,0.0,0.0,0.0,0.0,0.0,0.0,0.0,0.0,0.0,0.0,0.0,0.0,0.0,0.0,0.0,0.0,0.0,0.0,0.0,0.0,0.0,0.0,0.0,0.0,0.0,0.0,0.0,0.0,0.0,0.0,0.0,0.0,0.0,0.0,0.0,0.0,0.0,0.0,0.0,0.0,0.0,0.0,0.0,0.0,0.0,0.0,0.0,0.0,0.0,0.0,0.0,0.0,0.0,0.0,0.0,0.0,0.0,0.0,0.0,0.0,0.0,0.0,0.0,0.0,0.0,0.0,0.0,0.0,0.0,0.0,0.0,0.0,0.0,0.0,0.0,0.0,0.0,0.0,0.0,0.0,0.0,0.0,0.0,0.0,0.0,0.0,0.0,0.0,0.0,0.0,0.0,0.0,0.0,0.0,0.0,0.0,0.0,0.0,0.0,0.0,0.0,0.0,0.0,0.0,0.0,0.0,0.0,0.0,0.0,0.0,0.0,0.0,0.0,0.0,0.0,0.0,0.0,0.0,0.0,0.0,0.0,0.0,0.0,0.0,0.0,0.0,0.0,0.0,0.0,0.0,0.0,0.0,0.0,0.0,0.0,0.0,0.0,0.0,0.0,0.0,0.0,0.0,0.0,0.0,0.0,0.0,0.0,0.0,0.0,0.0,0.0,0.0,0.0,0.0,0.0,0.0,0.0,0.0,0.0,0.0,0.0,0.0,0.0,0.0,0.0,0.0,0.0,0.0,0.0,0.0,0.0,0.0,0.0,0.0,0.0,0.0,0.0,0.0,0.0,0.0,0.0,0.0,0.0,0.0,0.0,0.0,0.0,0.0,0.0,0.0,0.0,0.0,0.0,0.0,0.0,0.0,0.0,0.0,0.0,0.0,0.0,0.0,0.0,0.0,0.0,0.0,0.0,0.0,0.0,0.0,0.0,0.0,0.0,0.0,0.0,0.0,0.0,0.0,0.0,0.0,0.0,0.0,0.0,0.0,0.0,0.0,0.0,0.0,0.0,0.0,0.0,0.0,0.0,0.0,0.0,0.0,0.0,0.0,0.0,0.0,0.0,0.0,0.0,0.0,0.0,0.0,0.0,0.0,0.0,0.0,0.0,0.0,0.0,0.0,0.0,0.0,0.0,0.0,0.0,0.0,0.0,0.0,0.0,0.0,0.0,0.0,0.0,0.0,0.0,0.0,0.0,0.0,0.0,0.0,0.0,0.0,0.0,0.0,0.0,0.0,0.0,0.0,0.0,0.0,0.0,0.0,0.0,0.0,0.0,0.0,0.0,0.0,0.0,0.0,0.0,0.0,0.0,0.0,0.0,0.0,0.0,0.0,0.0,0.0,0.0,0.0,0.0,0.0,0.0,0.0,0.0,0.0,0.0,0.0,0.0,0.0,0.0,0.0,0.0,0.0,0.0,0.0,0.0,0.0,0.0,0.0,0.0,0.0,0.0,0.0,0.0,0.0,0.0,0.0,0.0,0.0,0.0,0.0,0.0,0.0,0.0,0.0,0.0,0.0,0.0,0.0,0.0,0.0,0.0,0.0,0.0,0.0,0.0,0.0,0.0,0.0,0.0,0.0,0.0,0.0,0.0,0.0,0.0,0.0,0.0,0.0,0.0,0.0,0.0,0.0,0.0,0.0,0.0,0.0,0.0,0.0,0.0,0.0,0.0,0.0,0.0,0.0,0.0,0.0,0.0,0.0,0.0,0.0,0.0,0.0,0.0,0.0,0.0,0.0,0.0,0.0,0.0,0.0,0.0,0.0,0.0,0.0,0.0,0.0,0.0,0.0,0.0,0.0,0.0,0.0,0.0,0.0,0.0,0.0,0.0,0.0,0.0,0.0,0.0,0.0,0.0,0.0,0.0,0.0,0.0,0.0,0.0,0.0,0.0,0.0,0.0,0.0,0.0,0.0,0.0,0.0,0.0,0.0,0.0,0.0,0.0,0.0,0.0,0.0,0.0,0.0,0.0,0.0,0.0,0.0,0.0,0.0,0.0,0.0,0.0,0.0,0.0,0.0,0.0,0.0,0.0,0.0,0.0,0.0,0.0,0.0,0.0,0.0,0.0,0.0,0.0,0.0,0.0,0.0,0.0,0.0,0.0,0.0,0.0,0.0,0.0,0.0,0.0,0.0,0.0,0.0,0.0,0.0,0.0,0.0,0.0,0.0,0.0,0.0,0.0,0.0,0.0,0.0,0.0,0.0,0.0,0.0,0.0,0.0,0.0,0.0,0.0,0.0,0.0,0.0,0.0,0.0,0.0,0.0,0.0,0.0,0.0,0.0,0.0,0.0,0.0,0.0,0.0,0.0,0.0,0.0,0.0,0.0,0.0,0.0,0.0,0.0,0.0,0.0,0.0,0.0,0.0,0.0,0.0,0.0,0.0,0.0,0.0,0.0,0.0,0.0,0.0,0.0,0.0,0.0,0.0,0.0,0.0,0.0,0.0,0.0,0.0,0.0,0.0,0.0,0.0,0.0,0.0,0.0,0.0,0.0,0.0,0.0,0.0,0.0,0.0,0.0,0.0,0.0,0.0,0.0,0.0,0.0,0.0,0.0,0.0,0.0,0.0,0.0,0.0,0.0,0.0,0.0,0.0,0.0,0.0,0.0,0.0,0.0,0.0,0.0,0.0,0.0,0.0,0.0,0.0,0.0,0.0,0.0,0.0,0.0,0.0,0.0,0.0,0.0,0.0,0.0,0.0,0.0,0.0,0.0,0.0,0.0,0.0,0.0,0.0,0.0,0.0,0.0,0.0,0.0,0.0,0.0,0.0,0.0,0.0,0.0,0.0,0.0,0.0,0.0,0.0,0.0,0.0,0.0,0.0,0.0,0.0,0.0,0.0,0.0,0.0,0.0,0.0,0.0,0.0,0.0,0.0,0.0,0.0,0.0,0.0,0.0,0.0,0.0,0.0,0.0,0.0,0.0,0.0,0.0,0.0,0.0,0.0,0.0,0.0,0.0,0.0,0.0,0.0,0.0,0.0,0.0,0.0,0.0,0.0,0.0,0.0,0.0,0.0,0.0,0.0,0.0,0.0,0.0,0.0,0.0,0.0,0.0,0.0,0.0,0.0,0.0,0.0,0.0,0.0,0.0,0.0,0.0,0.0,0.0,0.0,0.0,0.0,0.0,0.0,0.0,0.0,0.0,0.0,0.0,0.0,0.0,0.0,0.0,0.0,0.0,0.0,0.0,0.0,0.0,0.0,0.0,0.0,0.0,0.0,0.0,0.0,0.0,0.0,0.0,0.0,0.0,0.0,0.0,0.0,0.0,0.0,0.0,0.0,0.0,0.0,0.0,0.0,0.0,0.0,0.0,0.0,0.0,0.0,0.0,0.0,0.0,0.0,0.0,0.0,0.0,0.0,0.0,0.0,0.0,0.0,0.0,0.0,0.0,0.0,0.0,0.0,0.0,0.0,0.0,0.0,0.0,0.0,0.0,0.0,0.0,0.0,0.0,0.0,0.0,0.0,0.0,0.0,0.0,0.0,0.0,0.0,0.0,0.0,0.0,0.0,0.0,0.0,0.0,0.0,0.0,0.0,0.0,0.0,0.0,0.0,0.0,0.0,0.0,0.0,0.0,0.0,0.0,0.0,0.0,0.0,0.0,0.0,0.0,0.0,0.0,0.0,0.0,0.0,0.0,0.0,0.0,0.0,0.0,0.0,0.0,0.0,0.0,0.0,0.0,0.0,0.0,0.0,0.0,0.0,0.0,0.0,0.0,0.0,0.0,0.0,0.0,0.0,0.0,0.0,0.0,0.0,0.0,0.0,0.0,0.0,0.0,0.0,0.0,0.0,0.0,0.0,0.0,0.0,0.0,0.0,0.0,0.0,0.0,0.0,0.0,0.0,0.0,0.0,0.0,0.0,0.0,0.0,0.0,0.0,0.0,0.0,0.0,0.0,0.0,0.0,0.0,0.0,0.0,0.0,0.0,0.0,0.0,0.0,0.0,0.0,0.0,0.0,0.0,0.0,0.0,0.0,0.0,0.0,0.0,0.0,0.0,0.0,0.0,0.0,0.0,0.0,0.0,0.0,0.0,-4.0891,0.0,0.0,0.0,0.0,0.0,0.0,0.0,0.0,0.0,0.0,0.0,0.0,0.0,0.0,0.0,0.0,0.0,0.0,0.0,0.0,0.0,0.0,0.0,0.0,-1.3159,-1.4234,-1.5077,-1.5577,-1.5811,-1.5811,0.0,0.0,0.0,0.0,0.0,-1.3272,-1.3695,-1.4121,-1.4547,-1.7426,-2.0542,-2.3774,-2.3278,-2.1316,-1.8192,0.0,0.0,0.0,0.0,0.0,0.0,0.0,0.0,0.0,0.0,0.0,0.0,0.0,0.0,0.0,0.0,0.0,0.0,0.0,0.0,0.0,0.0,0.0,0.0,0.0,0.0,0.0,0.0,0.0,0.0,0.0,0.0,0.0,0.0,0.0,0.0,0.0,0.0,0.0,0.0,0.0,0.0,0.0,0.0,0.0,0.0,0.0,0.0,0.0,0.0,0.0,0.0,0.0,0.0,0.0,0.0,0.0,0.0,0.0,0.0,0.0,0.0,0.0,0.0,0.0,0.0,0.0,0.0,0.0,0.0,0.0,-4.2837,0.0,0.0,0.0,0.0,0.0,0.0,0.0,0.0,0.0,0.0,0.0,0.0,0.0,0.0,0.0,0.0,0.0,0.0,0.0,0.0,0.0,-1.2738,-1.2892,-1.4272,-1.5654,-1.6814,-1.6814,-1.6776,-1.693,-1.6003,0.0,0.0,0.0,-1.492,-1.4382,-1.5346,-1.6503,-1.7815,-2.2774,-2.8121,-3.3699,-3.493,-3.1852,-2.5159,-2.2731,0.0,0.0,0.0,0.0,0.0,0.0,0.0,0.0,0.0,0.0,0.0,0.0,0.0,0.0,0.0,0.0,0.0,0.0,0.0,0.0,0.0,0.0,0.0,0.0,0.0,0.0,0.0,0.0,0.0,0.0,0.0,0.0,0.0,0.0,0.0,0.0,0.0,0.0,0.0,0.0,0.0,0.0,0.0,0.0,0.0,0.0,0.0,0.0,0.0,0.0,0.0,0.0,0.0,0.0,0.0,0.0,0.0,0.0,0.0,0.0,0.0,0.0,0.0,0.0,-5.4069,-5.5133,-5.528,-5.6088,-5.7152,-5.3922,-5.3041,-5.3277,0.0,0.0,0.0,0.0,0.0,0.0,0.0,0.0,0.0,0.0,0.0,0.0,0.0,0.0,0.0,0.0,0.0,0.0,0.0,0.0,-1.2967,-1.3651,-1.4613,-1.6157,-1.8472,-1.7968,-1.7853,-1.8626,-1.7199,0.0,0.0,-1.5615,-1.55,-1.6157,-1.7699,-2.0012,-2.309,-3.1006,-3.7199,-4.1585,-4.1046,-4.0585,-4.0008,-3.4622,-3.1391,-2.9775,0.0,0.0,0.0,0.0,0.0,0.0,0.0,0.0,0.0,0.0,0.0,0.0,0.0,0.0,0.0,0.0,0.0,0.0,0.0,0.0,0.0,0.0,0.0,0.0,0.0,0.0,0.0,0.0,0.0,0.0,0.0,0.0,0.0,0.0,0.0,0.0,0.0,0.0,0.0,0.0,0.0,-3.1348,-3.4508,0.0,0.0,0.0,0.0,0.0,0.0,0.0,0.0,0.0,0.0,0.0,0.0,0.0,0.0,-5.2637,-5.8143,-6.0946,-6.1092,-6.6769,-6.8862,-6.7724,-6.8458,-6.8871,-6.8871,-6.5668,0.0,-5.6124,-5.3665,0.0,0.0,0.0,0.0,0.0,0.0,0.0,0.0,0.0,0.0,0.0,0.0,0.0,0.0,0.0,0.0,0.0,0.0,0.0,0.0,0.0,-1.8923,-2.1731,-2.3817,-2.5394,-2.5197,-2.2697,-2.1431,-1.9508,-1.6622,-1.6118,-1.6311,-1.716,-1.9315,-2.4432,-3.2628,-4.0162,-4.5778,-4.951,-4.9586,-4.9817,-5.0048,-4.6971,-4.147,-3.4269,-3.0968,0.0,0.0,0.0,0.0,0.0,0.0,0.0,0.0,0.0,0.0,0.0,0.0,0.0,0.0,0.0,0.0,0.0,0.0,0.0,0.0,0.0,0.0,0.0,0.0,0.0,0.0,0.0,0.0,0.0,0.0,0.0,0.0,0.0,0.0,0.0,0.0,0.0,0.0,0.0,-3.0648,-3.5546,-3.7404,-3.8065,-3.6853,0.0,0.0,0.0,0.0,0.0,0.0,0.0,0.0,0.0,-5.2879,-5.6859,-5.9465,-6.0529,-6.5668,-6.8495,-6.8972,-7.1798,-7.3046,-7.2826,-7.3156,-7.334,-7.3266,-7.1835,-6.9339,-6.5888,-6.0603,-5.6528,-5.3225,0.0,0.0,0.0,0.0,0.0,-4.5516,0.0,0.0,0.0,0.0,0.0,0.0,0.0,0.0,0.0,0.0,0.0,0.0,-1.9161,-2.3889,-2.7731,-2.966,-3.1929,-3.1352,-2.6885,-2.5236,-2.2239,-1.7353,-1.693,-1.7314,-1.835,-2.3428,-3.1352,-4.2209,-4.8125,-5.2664,-5.578,-5.6165,-5.6472,-5.6626,-5.5818,-4.9933,-4.0385,-3.7161,-3.3122,-2.8538,0.0,0.0,0.0,0.0,0.0,0.0,0.0,0.0,0.0,0.0,0.0,0.0,0.0,0.0,0.0,0.0,0.0,0.0,0.0,0.0,0.0,0.0,0.0,0.0,0.0,0.0,0.0,0.0,0.0,0.0,0.0,0.0,0.0,0.0,0.0,0.0,0.0,-3.5055,-3.9512,-4.0708,-4.2837,-4.247,0.0,0.0,0.0,0.0,0.0,0.0,-5.238,-5.495,-5.7409,-5.9832,-6.4824,-6.765,-6.8054,-7.1615,-7.3817,-7.4625,-7.4625,-7.4918,-7.5542,-7.5542,-7.5542,-7.5542,-7.5542,-7.5065,-7.378,-6.6916,-6.2438,-5.9685,-5.7446,-5.4546,-5.1756,-5.2197,-5.2564,-5.3225,0.0,0.0,0.0,0.0,0.0,0.0,0.0,0.0,0.0,0.0,0.0,-2.0127,-2.3437,-2.8313,-3.2385,-3.4885,-3.4507,-3.3006,-3.0308,-2.7077,-2.3351,-1.9049,-1.8084,-1.8427,-2.0115,-3.216,-4.2247,-5.0135,-5.3664,-5.6703,-5.9242,-5.8511,-5.8588,-5.9281,-5.8473,-5.5511,-5.0808,-4.5817,-4.1739,-3.7938,-3.055,0.0,0.0,0.0,0.0,0.0,0.0,0.0,0.0,0.0,0.0,0.0,0.0,0.0,0.0,0.0,0.0,0.0,0.0,0.0,0.0,0.0,0.0,0.0,0.0,0.0,0.0,0.0,0.0,0.0,0.0,0.0,0.0,0.0,0.0,0.0,0.0,0.0,0.0,-4.6415,-5.2197,0.0,0.0,0.0,0.0,-4.893,-5.1316,-5.517,-6.0676,-6.3356,-6.6843,-7.1505,-7.2716,-7.4001,-7.5542,-7.5799,-7.6313,-7.7127,-7.7127,-7.7127,-7.7163,-7.7163,-7.7163,-7.7163,-7.7163,-7.6717,-7.5726,-7.2239,-6.9816,-6.7907,-6.3943,-6.1777,-6.0566,-5.7593,-5.8914,-6.2071,0.0,0.0,0.0,0.0,0.0,-1.5192,-1.5192,-1.4692,-1.4503,-1.5115,-1.9315,-2.336,-2.6241,-3.3013,-3.8392,-4.0931,-4.2393,-4.1623,-3.7962,-3.3,-2.8775,-2.5625,-2.2586,-2.4082,-3.0692,-4.0123,-4.7394,-5.2318,-5.6242,-5.8896,-6.0319,-6.005,-6.005,-6.0319,-6.005,-5.8742,-5.6511,-5.1933,-4.7124,-4.2085,-3.7207,-3.1743,0.0,0.0,0.0,0.0,0.0,0.0,0.0,0.0,0.0,0.0,0.0,0.0,0.0,0.0,0.0,0.0,0.0,0.0,0.0,0.0,0.0,0.0,0.0,0.0,0.0,0.0,0.0,0.0,0.0,0.0,0.0,0.0,0.0,0.0,0.0,0.0,0.0,-5.0598,-5.4414,0.0,0.0,-5.4473,-5.5941,-5.7189,-6.1006,-6.4861,-6.8421,-7.044,-7.2496,-7.4735,-7.5616,-7.6313,-7.69,-7.69,-7.7047,-7.7273,-7.7273,-7.7273,-7.7273,-7.7273,-7.7273,-7.7273,-7.7273,-7.7127,-7.679,-7.5622,-7.3927,-7.1835,-7.0367,-6.9009,-6.7724,-6.6549,-6.6733,-6.7467,0.0,0.0,0.0,0.0,-1.5192,-1.5192,-1.5192,-1.4959,-1.5577,-1.7888,-2.2624,-2.7395,-3.1705,-3.8669,-4.3855,-4.5855,-4.7548,-4.6278,-4.0854,-3.6546,-3.216,-2.7626,-2.6933,-3.0891,-3.9923,-4.6509,-5.1625,-5.5318,-5.8434,-6.0242,-6.0781,-6.0781,-6.0781,-6.0781,-6.0781,-6.0473,-5.9742,-5.6626,-5.2395,-4.7394,-4.3431,-3.7969,-3.1705,0.0,0.0,0.0,0.0,0.0,0.0,0.0,0.0,0.0,0.0,0.0,0.0,0.0,0.0,0.0,0.0,0.0,0.0,0.0,0.0,0.0,0.0,0.0,0.0,0.0,0.0,0.0,0.0,0.0,0.0,0.0,0.0,0.0,0.0,0.0,-5.0692,-5.3665,-5.7593,-5.9758,-5.8951,-6.0823,-6.2952,-6.5118,-6.8531,-7.1468,-7.3597,-7.4735,-7.5689,-7.6497,-7.7047,-7.7273,-7.7273,-7.7273,-7.7273,-7.7273,-7.7273,-7.7273,-7.7273,-7.7273,-7.6686,-7.5732,-7.6833,-7.6686,-7.5763,-7.6833,-7.6387,-7.4882,-7.4625,-7.3707,-7.2504,-7.2504,-7.2018,-7.1284,0.0,0.0,0.0,-1.5192,-1.5192,-1.5192,-1.5192,-1.4497,-1.6346,-2.3052,-2.701,-3.2051,-3.9554,-4.5009,-4.8509,-4.9356,-4.9394,-4.6201,-3.8738,-3.7238,-3.3006,-2.4822,-3.0935,-3.8469,-4.6923,-5.1202,-5.5395,-5.955,-6.0396,-6.0781,-6.0781,-6.0781,-6.0781,-6.0781,-6.0781,-6.0781,-6.0742,-5.9896,-5.7665,-5.4203,-4.9163,-4.4586,-4.0015,0.0,0.0,0.0,0.0,0.0,0.0,0.0,0.0,0.0,0.0,0.0,0.0,0.0,0.0,0.0,0.0,0.0,0.0,0.0,0.0,0.0,0.0,0.0,0.0,0.0,0.0,0.0,0.0,0.0,0.0,0.0,0.0,0.0,-4.1352,-4.904,-5.4913,-5.5831,-6.2291,-6.6366,-6.5595,-6.8385,-7.0881,-7.2496,-7.334,-7.4478,-7.6056,-7.6056,-7.635,-7.7127,-7.7163,-7.7163,-7.7163,-7.731,-7.7384,-7.7384,-7.7347,-7.7347,-7.7347,-7.731,-7.5616,-7.2826,-7.5983,-7.5512,-7.2899,-7.5989,-7.7273,-7.72,-7.646,-7.5652,-7.4955,-7.4955,-7.4404,-7.356,0.0,0.0,-1.5192,-1.5192,-1.5192,-1.5192,-1.5192,-1.5,-1.6195,-1.9896,-2.6587,-3.2699,-3.7238,-4.4509,-4.9394,-5.0289,-4.9202,-4.7048,-4.3748,-3.87,-3.4808,-3.2468,-3.8238,-4.4624,-5.1318,-5.5049,-5.805,-6.0435,-6.0666,-6.0781,-6.0781,-6.0781,-6.0781,-6.0781,-6.0781,-6.0781,-6.0781,-6.055,-5.955,-5.778,-5.3933,-4.9856,-4.5547,0.0,0.0,0.0,0.0,0.0,0.0,0.0,0.0,0.0,0.0,0.0,0.0,0.0,0.0,0.0,0.0,0.0,0.0,0.0,0.0,0.0,0.0,0.0,0.0,0.0,0.0,0.0,0.0,0.0,0.0,0.0,0.0,-4.9627,-4.9828,-5.5023,-5.9942,-6.3099,-6.7357,-7.0146,-7.0477,-7.1835,-7.3377,-7.4992,-7.5322,-7.5909,-7.6937,-7.4771,-7.3597,-7.3817,-7.4404,-7.4698,-7.4698,-7.7635,-7.9103,-7.9103,-7.8516,-7.8259,-7.8222,-7.7567,-7.6796,-7.6026,-7.6907,-7.6796,-7.6026,-7.6943,-7.7273,-7.7273,-7.7053,-7.6497,-7.5763,-7.5763,-7.4882,-7.334,0.0,-1.5234,-1.5192,-1.5192,-1.5192,-1.5192,-1.5192,-1.55,-1.7273,-2.1624,-2.8044,-3.416,-3.9315,-4.524,-4.9202,-5.0087,-4.8894,-4.6317,-4.2124,-3.7546,-3.6699,-4.0615,-4.5086,-4.9971,-5.5241,-5.7973,-5.9819,-6.0781,-6.0781,-6.0781,-6.0781,-6.0781,-6.0781,-6.0781,-6.0781,-6.0781,-6.0781,-6.0781,-6.0512,-5.9858,-5.7511,-5.4241,-5.0394,-4.7048,-4.4085,-4.1277,-3.7853,-3.6815,-3.6469,-3.2429,0.0,0.0,0.0,0.0,0.0,0.0,0.0,0.0,0.0,0.0,0.0,0.0,0.0,0.0,0.0,0.0,0.0,0.0,0.0,0.0,0.0,0.0,0.0,0.0,-4.9187,-5.528,-5.8327,-6.119,-6.409,-6.7136,-7.0073,-7.2275,-7.3413,-7.4221,-7.5212,-7.6533,-7.6607,-7.6827,-7.7273,-7.5512,-7.4037,-7.3046,-7.4771,-7.5249,-7.4221,-7.7928,-7.98,-7.9764,-7.9323,-7.8919,-7.8589,-7.8075,-7.6937,0.0,-7.6686,-7.654,-7.5365,-7.6723,-7.7273,0.0,0.0,0.0,0.0,0.0,-7.5285,-7.3891,0.0,-1.5258,-1.5204,-1.5192,-1.5192,-1.5192,-1.5192,-1.5926,-1.8888,-2.5582,-3.0237,-3.5738,-4.3201,-4.6471,-4.8394,-4.9202,-4.8202,-4.4586,-3.7584,-3.5661,-3.8854,-4.8009,-5.0808,-5.4154,-5.8357,-5.9973,-6.0781,-6.0781,-6.0781,-6.0781,-6.0781,-6.0781,-6.0781,-6.0781,-6.0781,-6.0781,-6.0781,-6.0781,-6.0781,-6.0742,-5.9973,-5.7819,-5.4703,-5.1471,-4.9279,-4.7471,-4.4231,-4.22,-4.0585,-3.7846,0.0,0.0,0.0,0.0,0.0,0.0,0.0,0.0,0.0,0.0,0.0,0.0,0.0,0.0,0.0,0.0,0.0,0.0,0.0,0.0,0.0,0.0,0.0,0.0,-5.3261,-5.8914,-6.5668,-6.6769,-6.7504,-6.9119,-7.1358,-7.3377,-7.4918,-7.5763,-7.6533,-7.7237,-7.7273,-7.7273,-7.7273,0.0,0.0,0.0,0.0,-7.7268,-7.5065,-7.8369,-8.0057,-8.0057,-7.9984,-7.9543,-7.8846,-7.8662,-7.6607,-7.334,-7.6099,-7.5689,-7.3266,-7.6099,-7.7273,-7.7273,-7.7273,-7.7273,-7.7163,-7.6093,-7.5432,0.0,0.0,-1.5284,-1.5265,-1.5204,-1.5192,-1.5192,-1.5192,-1.5926,-1.8696,-2.4769,-2.9852,-3.5315,-4.1585,-4.5778,-4.8163,-4.8355,-4.574,-4.2854,-3.9938,-3.8861,-4.1862,-4.9865,-5.2626,-5.5665,-5.9204,-6.0281,-6.0781,-6.0781,-6.0781,-6.0781,-6.0781,-6.0781,-6.0781,-6.0781,-6.0781,-6.0781,-6.0781,-6.0781,-6.0781,-6.0781,-6.0627,-5.9742,-5.8319,-5.628,-5.4895,-5.3741,-5.1741,-5.1241,-5.0971,-4.7009,-4.5009,-4.3778,-4.1393,-3.7123,0.0,0.0,0.0,0.0,0.0,0.0,0.0,0.0,0.0,0.0,0.0,0.0,0.0,0.0,0.0,0.0,0.0,0.0,0.0,-5.2747,-5.84,-6.3613,-6.699,-6.8568,-7.0,-7.1615,-7.3377,-7.4808,-7.5763,-7.6607,-7.7127,-7.7273,-7.7273,-7.7273,-7.7273,-7.5469,0.0,-7.3707,-7.5579,-7.635,-7.5873,-7.9764,-8.1746,-8.1709,0.0,0.0,-8.0498,-7.9176,-7.8148,-7.7414,-7.7341,-7.6943,-7.6393,-7.7017,-7.7273,-7.7273,-7.7273,-7.7273,-7.6943,-7.4221,-7.4331,-7.5395,-1.5307,-1.5299,-1.5279,-1.5207,-1.5192,-1.5192,-1.5192,-1.6272,-1.8465,-2.2308,-2.7236,-3.2506,-3.8038,-4.0123,-4.1816,-4.3547,-4.1008,-4.0354,-4.2901,-4.347,-4.6932,-5.4203,-5.6126,-5.7973,-6.0089,-6.0589,-6.0781,-6.0781,-6.0781,-6.0781,-6.0781,-6.0781,-6.0781,-6.0781,-6.0781,-6.0781,-6.0781,-6.0781,-6.0781,-6.0781,-6.0781,-6.055,-6.0012,-5.8742,-5.7742,-5.6819,-5.5549,-5.4857,-5.4126,-5.151,-5.0087,-4.9038,-4.6932,-4.3624,-3.9623,0.0,0.0,0.0,0.0,0.0,0.0,0.0,0.0,0.0,0.0,0.0,0.0,0.0,0.0,-4.3841,0.0,0.0,-5.2711,-5.6748,-6.0456,-6.4273,-6.8311,-6.9926,-7.1138,-7.2349,-7.3927,-7.5212,-7.6019,-7.6827,-7.7273,-7.7273,-7.7273,-7.7273,-7.7273,-7.657,-7.5579,-7.4331,-7.7084,-7.7965,-7.6717,-8.0351,-8.2186,-8.2186,-8.1782,-8.1379,-8.0975,-7.9727,-7.8993,-7.8552,-7.7708,-7.7273,-7.7273,-7.7273,-7.7273,-7.7273,-7.7273,-7.7273,-7.709,-7.5506,-7.5432,-7.5763,-1.5311,-1.5306,-1.5293,-1.521,-1.5192,-1.5192,-1.5192,-1.6503,-1.8276,-2.0504,-2.4505,-2.9083,-3.4192,-3.4122,-3.4744,-3.7353,-3.643,-3.8392,-4.471,-4.7317,-5.1587,-5.8242,-5.9319,-6.0089,-6.0781,-6.0781,-6.0781,-6.0781,-6.0781,-6.0781,-6.0781,-6.0781,-6.0781,-6.0781,-6.0781,-6.0781,-6.0781,-6.0781,-6.0781,-6.0781,-6.0781,-6.0781,-6.0704,-5.9819,-5.9011,-5.8165,-5.7126,-5.5665,-5.4126,-5.3433,-5.251,-5.1471,-5.0279,-4.874,-4.6163,-3.9808,-3.8315,0.0,0.0,0.0,0.0,0.0,0.0,0.0,0.0,0.0,-4.285,-4.3751,-4.6603,-4.9378,-5.0694,-5.2177,-5.4987,-6.0676,-6.2254,-6.453,-6.9633,-7.0881,-7.1688,-7.2606,-7.4037,-7.5212,-7.6019,-7.6827,-7.7273,-7.7273,-7.7273,-7.7273,-7.7273,-7.8259,-7.7928,-7.5909,-7.936,-8.0277,-7.8264,-8.0865,-8.2186,-8.2186,-8.2186,-8.1856,-8.1232,-8.0388,-7.958,-7.8772,-7.7781,-7.7273,-7.7273,-7.7273,-7.7273,-7.7273,-7.7273,-7.7273,-7.7273,-7.7273,-7.69,-7.624,0.0,-1.5293,-1.5262,-1.5218,-1.5192,-1.5192,-1.5192,-1.6003,-1.8045,-2.2008,-2.3701,-2.6472,-3.1583,-3.2045,-3.1814,-3.1423,-3.4577,-3.8507,-4.3085,-4.7778,-5.3087,-5.9088,-6.0204,-6.0704,-6.0781,-6.0781,-6.0781,-6.0781,-6.0781,-6.0781,-6.0781,-6.0781,-6.0781,-6.0781,-6.0781,-6.0781,-6.0781,-6.0781,-6.0781,-6.0781,-6.0781,-6.0781,-6.0704,-5.9819,-5.9011,-5.8088,-5.6434,-5.478,-5.3318,-5.3241,-5.2164,-5.0933,-5.1471,-5.0471,-4.824,-4.3701,0.0,-3.9923,-3.3237,-3.0544,-3.1127,-3.7207,-3.9094,-4.0951,0.0,0.0,-5.2523,-5.2018,-5.5357,-5.8503,-5.9016,-6.0406,-6.2438,-6.5338,-6.6476,-6.7981,-7.077,-7.1219,-7.1872,-7.3377,-7.4368,-7.5212,-7.6019,-7.6827,-7.7273,-7.7273,-7.7273,-7.7273,-7.7273,-7.8809,-7.9543,-7.925,-8.1085,-8.1929,-8.1636,-8.2003,-8.2186,-8.2186,-8.2186,-8.215,-8.2039,-8.1232,-8.0424,-7.958,-7.8002,-7.7273,-7.7273,-7.7273,-7.7273,-7.7273,-7.7273,-7.7273,-7.7273,-7.7273,-7.7237,-7.7053,0.0,-1.5348,-1.5278,-1.5275,-1.5224,-1.5192,-1.5192,-1.5926,-1.7314,-1.9546,-2.1047,-2.3428,-2.7538,-2.7962,-2.7423,-2.6082,-2.9852,-3.5122,-4.1893,-4.7124,-5.2779,-5.9204,-6.0319,-6.0781,-6.0781,-6.0781,-6.0781,-6.0781,-6.0781,-6.0781,-6.0781,-6.0781,-6.0781,-6.0781,-6.0781,-6.0781,-6.0781,-6.0781,-6.0781,-6.0781,-6.0781,-6.0512,-5.9896,-5.855,-5.7242,-5.5818,-5.3587,-5.201,0.0,-4.9856,-4.9394,-4.9317,-5.0164,-4.8933,-4.6663,-4.3893,-4.247,0.0,-3.9546,-3.9585,-4.0969,0.0,-4.7673,-5.0631,-5.259,-5.5013,-5.6794,-5.6698,-5.8952,-6.1107,-6.1655,-6.1594,-6.2695,0.0,-6.6696,-6.7467,-7.0844,-7.1293,-7.1578,-7.2239,-7.1358,-7.1394,-7.3156,-7.5322,-7.6019,-7.4625,-7.6209,-7.7273,-7.7273,-7.8883,-7.98,-7.98,-8.1342,-8.2186,-8.2186,-8.2186,-8.2186,-8.2186,-8.2186,-8.2186,-8.215,-8.1379,-8.0314,-7.9066,-7.8369,-7.7781,-7.7273,-7.7273,-7.7273,-7.7273,-7.7273,-7.7273,-7.7273,-7.7273,-7.7273,-7.7163,0.0,-1.5362,-1.5333,-1.5313,-1.526,-1.5218,-1.5195,-1.5926,-1.6776,-1.7584,-1.8811,-2.0619,-2.3269,-2.3769,-2.35,-2.2543,-2.6736,-3.2776,-4.0585,-4.6317,-5.2318,-5.8896,-5.9973,-6.055,-6.0781,-6.0781,-6.0781,-6.0781,-6.0781,-6.0781,-6.0781,-6.0781,-6.0781,-6.0781,-6.0781,-6.0781,-6.0781,-6.0781,-6.0781,-6.0781,-6.055,-5.9935,-5.8973,-5.7049,-5.4818,-5.2472,-5.0394,-4.8933,-4.7663,-4.5509,-4.5663,-4.674,-4.6894,-4.6326,-4.5287,-4.3585,-4.2008,-4.1239,-4.3393,0.0,0.0,-5.0279,-5.4011,-5.6963,-5.7412,-5.8634,-5.9717,-6.001,-6.1053,-6.2181,-6.3025,-6.2401,-6.3135,-6.7357,-6.7247,-6.7797,-7.1174,-7.1439,-7.1064,-7.0403,-6.8568,-6.754,-6.7917,-7.2092,-7.4515,-7.3891,-7.5953,-7.7273,-7.7273,-7.8883,-7.98,-7.98,-8.1342,-8.2186,-8.2186,-8.2186,-8.2186,-8.2186,-8.2186,-8.2186,-8.215,-8.1122,-8.0021,-7.8919,-7.8442,-7.7892,-7.7273,-7.7273,-7.7273,-7.7273,-7.7273,-7.7273,-7.7273,-7.7273,-7.7273,-7.72,0.0,0.0,-1.5398,-1.5319,-1.5298,-1.5275,-1.5204,-1.5926,-1.6776,-1.7584,-1.7738,-1.8122,-1.9088,-1.9965,-2.0731,-2.1466,-2.6962,-3.2923,-3.8977,-4.5663,-5.2087,-5.8088,-5.9127,-5.9935,-6.0781,-6.0781,-6.0781,-6.0781,-6.0781,-6.0781,-6.0781,-6.0781,-6.0781,-6.0781,-6.0781,-6.0781,-6.0781,-6.0781,-6.0781,-6.0742,-5.9896,-5.905,-5.805,-5.5549,-5.1972,-4.8202,-4.7317,-4.5893,-4.3932,-4.0631,-4.12,-4.297,-4.1285,-4.2978,0.0,-4.3585,-4.0739,-3.8854,0.0,0.0,-4.3094,-5.301,-5.5298,-5.6363,-6.127,-6.2333,-6.2311,-6.2289,-6.254,-6.3025,-6.3906,-6.4677,-6.5962,-6.8458,-6.9486,-7.055,-7.2239,-7.1798,-7.044,-6.8091,-6.7063,-6.4714,0.0,-6.6743,-7.3017,-7.687,-7.7237,-7.7273,-7.7273,-7.8883,-7.98,-7.98,-8.1342,-8.2186,-8.2186,-8.2186,-8.2186,-8.2186,-8.2186,-8.2186,-8.215,-8.0534,-7.98,-7.9653,-7.8075,-7.731,-7.7273,-7.7273,-7.7273,-7.7273,-7.7273,-7.7273,-7.7273,-7.7273,-7.7273,-7.7273,0.0,0.0,0.0,-1.6214,-1.6633,-1.6968,-1.6948,-1.6661,-1.6583,-1.6853,-1.7853,0.0,0.0,0.0,0.0,0.0,-2.4197,-2.8352,-3.5437,-4.0169,-4.5586,-5.2125,-5.5895,-5.8242,-5.9127,-5.9665,-6.0204,-6.0781,-6.0781,-6.0781,-6.0781,-6.0781,-6.0781,-6.0781,-6.0781,-6.0781,-6.0781,-6.0781,-6.0781,-6.0666,-5.9281,-5.8204,-5.7038,-5.3356,-4.9317,-4.5086,0.0,-3.9423,-3.8123,-3.5815,-3.6007,-3.7392,-3.8469,0.0,0.0,-3.8231,-3.9623,-4.1893,-4.4124,0.0,-5.101,-5.6165,-5.9128,-6.1195,-6.2631,-6.2671,-6.2315,-6.1948,-6.0231,-5.9061,-5.9905,-5.9391,-6.0382,-6.4971,-6.4567,-6.5742,-7.1688,-6.8568,-6.6586,-6.9009,-6.6182,0.0,0.0,0.0,0.0,-7.011,-7.4111,-7.7011,-7.8112,-7.9176,-8.0021,-8.0571,-8.1636,-8.2186,-8.2186,-8.2186,-8.2186,-8.2186,-8.2186,-8.2186,-8.215,-8.1085,-8.0277,-7.9727,-7.8626,-7.7855,-7.7273,-7.7273,-7.7273,-7.7273,-7.7273,-7.7273,-7.7273,-7.7273,-7.7273,-7.7273,0.0,0.0,0.0,0.0,0.0,0.0,0.0,0.0,0.0,0.0,0.0,0.0,0.0,0.0,0.0,0.0,0.0,-2.5548,-3.1974,-3.5283,-3.9892,-4.6394,-4.9808,-5.2115,-5.328,-5.4703,-5.5857,-5.6742,-5.7934,-5.8858,-5.9435,-5.9435,-5.9588,-5.9896,-5.9896,-5.9896,-5.9896,-5.955,-5.9435,-5.9204,-5.628,-5.4587,-5.3308,-4.8779,-4.4402,0.0,-3.6315,-3.3808,-3.2154,-3.1044,-3.2237,-3.4282,-3.4699,-3.5122,-3.5846,-3.7692,-4.0546,-4.3932,-4.774,-5.1779,-5.5818,-5.9627,-6.2336,-6.3947,-6.3479,-6.3013,-6.2346,-6.124,-5.9003,-5.7161,-5.689,-5.5941,-5.6867,-6.2118,-6.2022,-6.3906,-7.1431,-6.8678,-6.6806,-6.9376,-6.6659,0.0,0.0,0.0,0.0,-6.8274,-7.2312,-7.5285,-7.635,-7.7451,-7.8809,-8.0534,-8.1636,-8.2186,-8.2186,-8.2186,-8.2186,-8.2186,-8.2186,-8.2186,-8.215,-8.1085,-7.9653,-7.8038,-7.8112,-7.7194,-7.5659,-7.6833,-7.7273,-7.7273,-7.7273,-7.7273,-7.7273,-7.7273,-7.7273,-7.7273,0.0,0.0,0.0,0.0,0.0,0.0,0.0,0.0,0.0,0.0,0.0,0.0,0.0,0.0,0.0,0.0,0.0,0.0,-2.8588,-3.1237,-3.5238,-4.1038,-4.1538,-4.247,-4.4124,-4.6624,-4.8317,-4.9202,-5.2472,-5.4857,-5.6406,-5.6406,-5.6857,-5.7665,-5.7665,-5.7665,-5.7588,-5.678,-5.6406,-5.5983,-5.1048,-4.8586,-4.7317,-4.2285,-3.7784,-3.3898,-3.2237,-2.9467,-2.6621,-2.6697,0.0,0.0,0.0,0.0,0.0,-4.1777,-4.3431,-4.5316,-5.2472,-5.528,-5.7511,-6.3243,-6.4615,-6.4436,-6.397,-6.3348,-6.2259,-6.0048,-5.8443,-5.6794,0.0,0.0,-5.5285,-5.9841,-6.1577,-6.4677,-7.1321,-7.1541,-7.0477,0.0,0.0,0.0,0.0,0.0,0.0,-7.1219,0.0,-7.2716,-7.2826,-7.4294,-7.6607,-7.9764,-8.1379,-8.2186,-8.2186,-8.2186,-8.2186,-8.2186,-8.2186,-8.2186,-8.2076,-8.0498,-7.8075,-7.5175,-7.665,-7.5579,-7.2973,-7.6026,-7.7273,-7.7273,-7.7273,-7.7273,-7.7273,-7.7273,-7.7273,-7.7273,0.0,0.0,0.0,0.0,0.0,0.0,0.0,0.0,0.0,0.0,0.0,0.0,0.0,0.0,0.0,0.0,0.0,0.0,-2.5207,-2.778,-3.0698,-3.4122,-3.7892,-4.07,-4.2393,-4.4316,-4.5701,-4.6556,-4.7441,-4.8095,-4.8519,-4.8519,-4.8634,-4.8817,-4.8817,-4.8817,-4.8817,-4.8596,-4.8519,-4.8288,-4.574,-4.4586,-4.3932,-4.0085,-3.6392,-3.3006,-3.1346,-2.8962,0.0,0.0,0.0,0.0,0.0,-4.2085,-4.4,0.0,0.0,-5.2626,-5.3356,-5.7857,-6.2858,-6.5013,-6.483,-6.3955,-6.3407,-6.1544,-5.8758,-5.4851,-5.1986,-4.9102,0.0,0.0,0.0,-5.5195,-5.6476,0.0,-6.776,-6.7724,0.0,-6.8752,0.0,-7.0624,-7.1174,-7.3266,0.0,0.0,-7.3707,-7.5726,-7.6974,-7.8002,-7.9213,-8.0645,-8.1672,-8.2186,-8.2186,-8.2186,-8.2186,-8.2186,-8.2186,-8.1893,-8.1269,-8.0241,-7.8993,-7.7635,-7.7384,-7.6833,-7.6136,-7.6943,-7.7273,-7.7273,-7.7273,-7.7273,-7.7273,-7.7273,-7.7273,-7.7273,0.0,0.0,0.0,0.0,0.0,0.0,0.0,0.0,0.0,0.0,0.0,0.0,0.0,0.0,0.0,0.0,0.0,0.0,0.0,-2.4317,-2.6082,-2.8275,-3.1089,-3.3237,-3.4538,-3.7661,-3.9354,-3.9508,-4.1747,-4.2824,-4.2824,-4.3209,-4.3555,-4.3932,-4.4316,-4.4509,-4.447,-4.4085,-4.3932,0.0,0.0,-3.9777,-3.9392,-3.5968,-3.3237,-3.1121,0.0,0.0,0.0,0.0,0.0,-3.97,-4.5355,-4.7009,-4.7355,-4.974,0.0,-5.6549,-5.7857,-6.1627,-6.5282,-6.5782,-6.5037,-6.3408,-6.0263,-5.8304,-5.5515,-4.9801,-4.7272,0.0,0.0,0.0,0.0,0.0,0.0,0.0,-6.6072,-6.699,-6.765,0.0,-7.077,0.0,-7.4515,-7.5909,-7.5873,0.0,-7.4294,-7.4918,-7.5873,-7.7011,-7.8516,-8.0424,-8.1599,-8.2186,-8.2186,-8.2186,-8.2186,-8.2186,-8.2186,-8.1782,-8.0975,-8.0167,-7.8552,-7.646,0.0,-7.6503,-7.5322,-7.6723,-7.7273,-7.7273,-7.7273,-7.7273,-7.7273,-7.7273,-7.7273,-7.7273,0.0,0.0,0.0,0.0,0.0,0.0,0.0,0.0,0.0,0.0,-1.7937,0.0,0.0,0.0,0.0,0.0,0.0,0.0,0.0,0.0,0.0,-2.4014,-2.4206,-2.4625,-2.5462,-2.9929,-3.1968,-3.1352,0.0,-3.8015,-3.8123,-3.8823,-3.9546,-4.0308,-4.1085,-4.1393,-4.1354,-4.0615,-4.0269,-3.9962,-3.6308,-3.4808,-3.45,0.0,0.0,0.0,0.0,0.0,0.0,0.0,-4.1777,-4.0931,-4.9125,-5.0433,-5.0164,-5.6472,-5.8242,-5.9061,-6.3166,-6.5128,-6.6013,-6.5936,-6.5026,-6.2606,-5.6673,-5.476,-5.2251,-4.5265,0.0,-4.2523,-3.9785,-4.039,-4.3318,-4.9423,0.0,-5.8653,-6.4677,-6.7577,-6.9522,-7.0697,-7.1183,-7.2716,-7.5946,-7.6497,-7.6833,-7.7273,-7.4735,-7.3156,-7.3156,-7.4588,-7.679,-7.9837,-8.1415,-8.2186,-8.2186,-8.2186,-8.2186,-8.2186,-8.2076,-8.1636,-8.0828,-8.0021,-7.7635,-7.4294,0.0,0.0,-7.334,-7.6136,-7.7273,-7.7273,-7.7273,-7.7273,-7.7273,-7.7273,-7.7273,-7.7273,0.0,0.0,0.0,0.0,0.0,0.0,0.0,0.0,0.0,0.0,-1.921,-1.8819,0.0,0.0,0.0,0.0,0.0,0.0,0.0,0.0,0.0,-2.4014,-2.4736,-2.55,-2.6351,0.0,0.0,0.0,0.0,0.0,-3.1962,-3.2077,-3.2231,-3.2385,-3.2538,-3.2615,-3.2577,-3.2423,-3.2385,-3.2308,-3.1577,-3.1269,-3.1231,0.0,0.0,0.0,0.0,0.0,0.0,0.0,-4.6778,-4.8548,-5.4972,-5.8127,-5.9319,-5.855,-6.1166,-6.4089,-6.287,-6.4666,-6.6744,-6.6051,-6.3896,-6.112,-5.7891,-5.3585,0.0,0.0,-3.9905,-3.8047,-3.6241,-3.8299,0.0,-4.9377,0.0,0.0,0.0,0.0,-6.9486,0.0,0.0,0.0,0.0,0.0,0.0,0.0,0.0,0.0,-7.6466,-7.7414,-7.8846,-8.0718,-8.1709,-8.2186,-8.2186,-8.2186,-8.2186,-8.2186,-8.1525,-8.0791,-7.9984,-7.9176,-7.8038,-7.6686,0.0,0.0,-7.6503,-7.7053,-7.7273,-7.7273,-7.7273,-7.7273,-7.7273,-7.7273,-7.7273,-7.7273,0.0,0.0,0.0,0.0,0.0,0.0,0.0,-1.9941,-2.0917,-2.2192,-2.2004,-2.1505,-2.1016,-2.0966,-2.1119,0.0,0.0,0.0,0.0,0.0,0.0,0.0,0.0,-2.4851,0.0,0.0,0.0,0.0,0.0,0.0,0.0,0.0,0.0,0.0,0.0,0.0,0.0,0.0,0.0,0.0,0.0,0.0,0.0,0.0,0.0,0.0,0.0,0.0,0.0,0.0,-4.4355,-4.7702,-5.6742,-6.0435,-6.1012,-5.8896,-6.1589,-6.4782,-6.2678,-6.4563,-6.6898,-6.609,-6.3822,-6.0163,-5.4034,0.0,0.0,0.0,-3.5827,-3.484,-3.4105,0.0,0.0,0.0,0.0,0.0,0.0,0.0,0.0,0.0,0.0,0.0,0.0,0.0,0.0,0.0,0.0,0.0,-7.72,-7.8148,-7.9323,-8.0938,-8.1379,-8.1782,-8.2186,-8.2186,-8.2003,-8.1562,-8.1195,-8.0351,-7.914,-7.8772,-7.8112,-7.7273,0.0,0.0,-7.4955,-7.6613,-7.6283,-7.4992,-7.665,-7.7273,-7.7273,-7.7273,-7.7273,-7.7273,0.0,0.0,0.0,0.0,0.0,0.0,0.0,-2.0891,-2.2118,-2.4275,-2.4821,-2.4652,-2.3758,-2.268,-2.2274,0.0,0.0,0.0,0.0,0.0,0.0,0.0,0.0,0.0,0.0,0.0,0.0,0.0,0.0,0.0,0.0,0.0,0.0,0.0,0.0,0.0,0.0,0.0,0.0,0.0,0.0,0.0,0.0,0.0,0.0,0.0,0.0,0.0,0.0,0.0,-4.0662,-4.3893,-5.4664,-5.8588,-5.905,-5.8473,-6.1166,-6.4205,-6.3589,-6.5359,-6.7128,-6.6128,-6.382,-5.9511,-5.0664,-4.6778,0.0,0.0,-3.2852,-3.2583,-3.3314,0.0,0.0,0.0,0.0,0.0,0.0,0.0,0.0,0.0,0.0,0.0,0.0,0.0,0.0,0.0,0.0,0.0,0.0,-7.8148,-7.9176,-8.0461,-8.0645,-8.1048,-8.1672,-8.1672,-8.1379,-8.0755,-8.0571,-7.9837,-7.8589,-7.8405,-7.7965,-7.7273,0.0,0.0,0.0,-7.5953,-7.5402,-7.2826,-7.6026,-7.7273,-7.7273,-7.7273,-7.7273,-7.7273,0.0,0.0,0.0,0.0,0.0,0.0,0.0,-2.1983,-2.431,-2.5364,-2.6751,-2.7311,-2.6455,-2.4855,-2.3586,0.0,0.0,0.0,0.0,0.0,0.0,0.0,0.0,0.0,0.0,0.0,0.0,0.0,0.0,0.0,0.0,0.0,0.0,0.0,0.0,0.0,0.0,0.0,0.0,0.0,0.0,0.0,0.0,0.0,0.0,0.0,0.0,0.0,0.0,0.0,0.0,-3.9738,-4.6971,-5.1395,-5.4472,-5.7434,0.0,0.0,-6.7013,-6.8052,-6.7898,-6.6282,-6.3397,-5.9088,-5.2058,0.0,0.0,-3.6385,-3.2808,-3.1577,-3.4692,-3.6024,0.0,0.0,0.0,-4.8849,0.0,0.0,0.0,0.0,0.0,0.0,0.0,0.0,0.0,0.0,0.0,0.0,0.0,-7.8148,-7.8662,-7.8809,-7.9507,-7.9947,-8.0021,-8.0021,-7.9984,-7.9874,-7.9176,-7.8736,-7.8552,-7.7781,-7.7384,-7.7273,0.0,0.0,0.0,-7.5953,-7.5402,-7.2826,-7.6026,-7.7273,-7.7273,-7.7273,-7.7273,-7.7273,0.0,0.0,0.0,0.0,0.0,0.0,-2.1406,-2.2772,-2.468,-2.7558,-2.7997,-2.7905,-2.7513,-2.6823,-2.5818,-2.4428,0.0,0.0,0.0,0.0,0.0,0.0,0.0,0.0,0.0,0.0,0.0,0.0,0.0,0.0,0.0,0.0,0.0,0.0,0.0,0.0,0.0,0.0,0.0,0.0,0.0,0.0,0.0,0.0,0.0,0.0,0.0,0.0,0.0,0.0,0.0,0.0,-3.8084,-4.0931,0.0,0.0,-5.5626,-6.0473,-6.132,-6.4512,-6.7205,-6.5551,-6.2551,-5.8127,-5.0818,0.0,-4.0739,-3.5084,-3.2038,-3.1115,-3.3506,-3.4199,-3.6426,-4.2583,-4.2851,-4.5355,0.0,0.0,0.0,0.0,0.0,0.0,0.0,0.0,0.0,0.0,0.0,0.0,0.0,-7.7635,-7.8075,-7.8589,-7.8919,-7.9286,-7.98,-7.98,-7.9543,-7.9066,-7.8736,-7.8332,-7.7818,-7.7457,-7.7273,-7.7273,0.0,0.0,0.0,-7.5175,-7.4258,-7.011,-7.5285,-7.7273,-7.7273,-7.7273,-7.7273,-7.7273,0.0,0.0,0.0,0.0,0.0,-2.0078,-2.2461,-2.3477,-2.5195,-2.8702,-2.8961,-2.8725,-2.8449,-2.8309,-2.7659,-2.6192,-2.5082,0.0,0.0,0.0,0.0,0.0,0.0,0.0,0.0,0.0,0.0,0.0,0.0,0.0,0.0,0.0,0.0,0.0,0.0,0.0,0.0,0.0,0.0,0.0,0.0,0.0,0.0,0.0,0.0,0.0,0.0,0.0,0.0,0.0,0.0,0.0,0.0,0.0,0.0,0.0,-5.101,-5.6588,-5.7511,-6.1973,-6.6013,-6.4589,-6.1089,-5.628,0.0,0.0,-3.92,-3.3968,-3.1577,-3.0923,-3.2583,-3.2891,-3.4699,-4.0162,-4.0662,-4.3327,-5.1835,0.0,0.0,0.0,0.0,0.0,0.0,0.0,0.0,0.0,0.0,0.0,0.0,0.0,-7.7567,-7.8222,-7.8222,-7.8479,-7.9066,-7.9066,-7.8772,-7.8222,-7.8222,-7.7414,-7.5879,-7.687,-7.676,0.0,0.0,0.0,0.0,-7.5065,-7.4074,-6.9669,-7.5175,-7.7273,-7.7273,-7.7273,-7.7273,-7.7273,0.0,0.0,0.0,0.0,0.0,0.0,-2.1641,-2.4062,-2.6328,-2.8086,-2.9645,-3.0275,-2.9463,-2.921,-2.8742,-2.7934,-2.6269,0.0,0.0,0.0,0.0,0.0,0.0,0.0,0.0,0.0,-2.9088,-2.9088,-2.9967,-2.9929,0.0,0.0,0.0,0.0,0.0,0.0,0.0,0.0,0.0,0.0,0.0,0.0,0.0,0.0,0.0,0.0,0.0,0.0,0.0,0.0,0.0,0.0,0.0,0.0,0.0,0.0,-4.7971,-5.3077,-5.8127,-6.2012,-6.4397,-6.3538,-5.8896,-5.3433,0.0,-4.2893,-3.7046,-3.3622,-3.1577,-3.0923,-3.2583,-3.2891,-3.4314,-3.863,-4.0413,-4.3325,-4.9112,0.0,0.0,0.0,0.0,0.0,0.0,0.0,0.0,0.0,0.0,0.0,0.0,0.0,-7.7273,-7.731,-7.731,-7.731,-7.731,-7.731,-7.731,-7.731,-7.731,-7.5622,-7.2679,-7.5842,0.0,0.0,0.0,0.0,0.0,-7.5953,-7.5395,-7.2789,-7.6026,-7.7273,-7.7273,-7.7273,-7.7273,-7.7273,0.0,0.0,0.0,0.0,0.0,0.0,0.0,-2.3086,-2.4805,-2.7109,-2.7773,-2.8126,-2.8485,-2.8354,-2.8165,-2.7934,-2.739,0.0,0.0,0.0,0.0,0.0,0.0,0.0,0.0,-2.9846,-3.0544,-3.1698,-3.1968,-3.2275,-3.2589,-3.1968,0.0,0.0,0.0,0.0,0.0,0.0,0.0,0.0,0.0,0.0,0.0,0.0,0.0,0.0,0.0,0.0,0.0,0.0,0.0,0.0,0.0,0.0,0.0,-3.6161,0.0,0.0,-4.7855,-5.1625,-5.4741,-5.328,-5.1087,-4.8355,-4.4662,-4.0308,-3.6315,-3.3468,-3.2045,-3.1621,-3.2699,-3.3391,-3.5745,-4.1739,-4.3064,0.0,0.0,0.0,0.0,0.0,0.0,0.0,0.0,0.0,0.0,0.0,0.0,0.0,0.0,0.0,-7.7273,-7.7273,-7.7273,-7.7273,-7.7273,-7.7273,-7.7273,-7.7273,-7.7273,-7.5586,-7.2606,-7.5806,0.0,0.0,0.0,0.0,0.0,-7.5953,-7.5402,-7.2826,-7.6026,-7.7273,-7.7273,-7.7273,-7.7273,-7.7273,0.0,0.0,0.0,0.0,0.0,0.0,0.0,-2.2656,-2.3984,-2.6211,-2.6679,-2.7265,-2.8438,-2.8427,-2.8511,-2.8813,-2.8852,0.0,0.0,0.0,0.0,0.0,0.0,0.0,-3.0385,-3.0385,-3.1231,-3.2891,-3.2891,-3.3506,-3.4661,-3.4122,-3.2968,-3.1308,0.0,0.0,0.0,0.0,0.0,0.0,0.0,0.0,0.0,0.0,0.0,0.0,0.0,0.0,0.0,0.0,0.0,0.0,0.0,0.0,0.0,0.0,-3.5853,-3.9815,0.0,-4.6355,-4.9471,-4.8355,-4.6547,-4.4423,-4.2269,-3.8423,-3.4814,-3.3237,-3.2776,-3.2699,-3.2852,-3.4122,-3.643,-4.0354,-4.2854,0.0,0.0,0.0,0.0,0.0,0.0,0.0,0.0,0.0,0.0,0.0,0.0,0.0,0.0,0.0,-7.7273,-7.7273,-7.7273,-7.7273,-7.7273,-7.7273,-7.7273,-7.7273,-7.7273,-7.5586,-7.2606,0.0,0.0,0.0,0.0,0.0,0.0,-7.6466,-7.6099,-7.4515,-7.6503,-7.7273,-7.7273,-7.7273,-7.7273,-7.7273,0.0,0.0,0.0,0.0,0.0,0.0,0.0,-2.2539,-2.3672,-2.5312,-2.617,-2.7265,-2.8941,-2.9046,-2.9352,-3.0231,0.0,0.0,0.0,0.0,0.0,0.0,0.0,0.0,-3.0385,-3.0462,-3.1308,-3.3006,-3.3122,-3.4045,-3.5692,-3.5692,-3.4731,-3.3006,-3.2929,-3.1968,0.0,0.0,0.0,0.0,0.0,0.0,0.0,0.0,0.0,0.0,0.0,0.0,0.0,0.0,0.0,0.0,0.0,0.0,0.0,0.0,0.0,0.0,0.0,-4.4662,0.0,0.0,-4.4047,-4.1154,-4.1154,-3.6815,0.0,-3.2968,-3.3699,-3.4052,-3.3314,-3.5238,-3.6808,-3.6308,-4.0931,0.0,0.0,0.0,0.0,0.0,0.0,0.0,0.0,0.0,0.0,0.0,0.0,0.0,0.0,0.0,0.0,-7.7273,-7.7273,-7.7273,-7.7273,-7.7273,-7.7163,-7.6943,-7.7163,-7.5506,-7.2275,0.0,0.0,0.0,0.0,0.0,0.0,-7.7273,-7.7273,-7.7273,-7.7273,-7.7273,-7.7273,-7.7273,-7.7273,-7.7273,0.0,0.0,0.0,0.0,0.0,0.0,0.0,0.0,0.0,0.0,-2.4378,-2.5479,-2.7187,-2.7843,-2.8511,0.0,0.0,0.0,0.0,0.0,0.0,0.0,0.0,0.0,-3.0385,-3.1038,-3.2237,-3.3898,-3.5199,-3.6353,-3.743,-3.743,-3.6161,-3.3859,-3.3199,-3.1968,0.0,0.0,0.0,0.0,0.0,0.0,0.0,0.0,0.0,0.0,0.0,0.0,0.0,0.0,0.0,0.0,0.0,0.0,0.0,0.0,-3.166,-3.2468,-3.4699,0.0,-3.6315,-3.5699,-3.5276,-3.5007,0.0,-3.343,-3.2352,-3.3622,-3.4584,-3.5308,-3.5731,-3.7892,-4.04,-4.2816,0.0,0.0,0.0,0.0,0.0,0.0,0.0,0.0,0.0,0.0,0.0,0.0,0.0,0.0,0.0,0.0,0.0,-7.7273,-7.7273,-7.7273,-7.7273,-7.7273,-7.6063,-7.367,-7.6099,-7.4331,-6.9009,0.0,0.0,0.0,0.0,0.0,-7.7273,-7.7273,-7.7273,-7.7273,-7.7273,-7.7273,-7.7273,-7.7273,-7.7273,-7.7273,0.0,0.0,0.0,0.0,0.0,0.0,0.0,0.0,0.0,0.0,0.0,-2.5012,-2.7146,-2.7733,0.0,0.0,0.0,0.0,0.0,0.0,0.0,0.0,0.0,-3.0385,-3.0385,-3.1231,-3.2506,-3.4205,-3.5507,-3.7007,-3.8584,-3.8584,-3.7238,-3.4699,-3.266,-3.1231,0.0,0.0,0.0,0.0,0.0,0.0,0.0,0.0,0.0,0.0,0.0,-2.7813,0.0,-2.9813,-3.0737,-3.1698,0.0,0.0,0.0,0.0,-3.1115,-3.1192,-3.1615,-3.2891,-3.4276,-3.5007,-3.4622,-3.4391,-3.5584,-3.3699,-3.2199,-3.3859,-3.4891,-3.5615,-3.6077,-3.8238,0.0,0.0,0.0,0.0,0.0,0.0,0.0,0.0,0.0,0.0,0.0,0.0,0.0,0.0,0.0,0.0,0.0,0.0,0.0,0.0,-7.7273,-7.7273,-7.7273,-7.7273,-7.5689,-7.2532,-7.5763,-7.4698,-7.0073,0.0,0.0,0.0,0.0,0.0,-7.72,-7.613,-7.6313,-7.7273,-7.7273,-7.7273,-7.7273,-7.7273,-7.7273,-7.7273,0.0,0.0,0.0,0.0,0.0,0.0,0.0,0.0,0.0,0.0,0.0,0.0,0.0,0.0,0.0,0.0,0.0,0.0,0.0,0.0,0.0,0.0,-3.0385,-3.0462,-3.0615,-3.1308,-3.2506,-3.4205,-3.5199,-3.6853,-3.913,-3.9361,-3.8046,-3.5346,-3.2077,-3.0538,-3.0385,0.0,0.0,0.0,0.0,0.0,0.0,0.0,0.0,0.0,0.0,0.0,0.0,-2.8236,-2.9813,-3.1583,-3.0846,0.0,0.0,0.0,0.0,0.0,-3.0692,-3.3192,-3.6154,-3.8046,-3.6892,-3.5885,-3.82,0.0,0.0,0.0,0.0,0.0,0.0,-3.8854,0.0,0.0,0.0,0.0,0.0,0.0,0.0,0.0,0.0,0.0,0.0,0.0,0.0,0.0,0.0,0.0,0.0,0.0,0.0,0.0,-7.7592,-7.7592,-7.7592,-7.7396,-7.5689,-7.2532,-7.5763,-7.5586,-7.2606,-7.5806,0.0,0.0,0.0,0.0,-7.7127,-7.5102,-7.5469,-7.7273,-7.7273,-7.7273,-7.7273,-7.7273,-7.7365,-7.7413,0.0,0.0,0.0,0.0,0.0,0.0,0.0,0.0,0.0,0.0,0.0,0.0,0.0,0.0,0.0,0.0,0.0,0.0,0.0,0.0,0.0,-3.0352,-3.0385,-3.0731,-3.1468,-3.1621,-3.2506,-3.4205,-3.5776,-3.7084,-3.8238,-3.9669,-3.8584,-3.5385,-3.2692,-3.1077,-3.0385,-3.0385,0.0,0.0,0.0,0.0,0.0,0.0,0.0,0.0,0.0,0.0,0.0,-2.9769,-3.0769,-3.1698,-3.1545,0.0,0.0,0.0,0.0,0.0,-3.2122,-3.4468,-3.6269,-3.5238,-3.4706,-3.4699,-3.5808,-3.4353,-3.3622,0.0,0.0,0.0,0.0,-4.4662,0.0,0.0,0.0,0.0,0.0,0.0,0.0,0.0,0.0,0.0,0.0,0.0,0.0,0.0,0.0,0.0,0.0,0.0,0.0,0.0,0.0,-7.8914,-7.8914,-7.7846,-7.5689,-7.2532,-7.5763,-7.5586,-7.2606,-7.5806,-7.7273,0.0,0.0,-7.6943,-7.7273,-7.687,-7.6943,-7.7273,-7.7273,-7.7273,-7.7273,-7.7273,-7.7651,-7.8042,0.0,0.0,0.0,0.0,0.0,0.0,0.0,0.0,0.0,0.0,0.0,0.0,0.0,0.0,0.0,0.0,0.0,0.0,0.0,0.0,-2.9786,-3.1044,-3.1115,-3.1269,-3.1698,-3.2583,-3.366,-3.4891,-3.7046,-3.8315,-3.87,-3.8084,-3.6738,-3.4699,-3.2115,-3.0769,-3.0385,-3.0385,-3.0385,0.0,0.0,0.0,0.0,0.0,0.0,0.0,0.0,0.0,0.0,0.0,-3.0275,-3.1077,-3.1545,0.0,0.0,0.0,0.0,0.0,-3.1346,-3.343,-3.5815,-3.7815,-3.7623,-3.813,-4.2662,-3.8815,-3.5923,-4.1623,0.0,0.0,0.0,0.0,0.0,0.0,0.0,0.0,0.0,0.0,0.0,0.0,0.0,0.0,0.0,0.0,0.0,0.0,0.0,0.0,0.0,0.0,0.0,0.0,0.0,0.0,-7.9198,-7.859,-7.67,-7.3579,-7.6448,-7.6327,-7.3653,-7.6849,-7.8315,-7.824,0.0,-7.7148,-7.824,-7.6924,-7.7148,-7.8315,-7.8315,-7.8315,-7.8277,-7.7803,-7.7539,-7.7303,0.0,0.0,0.0,0.0,0.0,0.0,0.0,0.0,0.0,0.0,0.0,0.0,0.0,0.0,0.0,0.0,0.0,0.0,0.0,-2.9218,-2.9864,-3.1314,-3.1583,-3.1968,-3.2583,-3.366,-3.493,-3.6385,-3.8123,-3.9207,-3.9515,-3.6969,-3.5308,-3.4391,-3.1846,-3.0577,-3.0385,-3.0385,-3.0385,0.0,0.0,0.0,0.0,0.0,0.0,0.0,0.0,0.0,0.0,0.0,0.0,0.0,0.0,0.0,0.0,-3.1506,-3.1077,-3.0538,-3.1115,-3.2852,-3.5622,-4.0315,-4.0085,-4.0854,-4.9086,-4.3393,-3.8615,-4.6462,-4.3423,0.0,0.0,0.0,0.0,0.0,0.0,0.0,0.0,0.0,0.0,0.0,0.0,0.0,0.0,0.0,0.0,0.0,0.0,0.0,0.0,0.0,0.0,0.0,0.0,0.0,-7.9621,-7.9491,-7.8095,-7.555,-7.7554,-7.7466,-7.5626,-7.8089,-7.9198,-7.9085,-7.7243,-7.7508,-7.9047,-7.6979,-7.7243,-7.8896,-7.8708,-7.8609,-7.8557,-7.8012,-7.7316,-7.6544,0.0,0.0,0.0,0.0,0.0,0.0,0.0,0.0,0.0,0.0,0.0,0.0,0.0,0.0,0.0,0.0,0.0,0.0,0.0,-2.9218,-2.9593,-3.0467,-3.1269,-3.2808,-3.5154,-3.4545,-3.5783,-3.9015,-3.8392,-3.8892,-4.0362,-3.7815,-3.6192,-3.5308,-3.2731,-3.1154,-3.0385,-3.0385,-3.0385,-3.0385,-3.0385,0.0,0.0,0.0,0.0,0.0,0.0,0.0,0.0,0.0,0.0,0.0,0.0,0.0,-3.1621,-3.1698,-3.1077,-3.0923,-3.3276,-3.4661,-3.6231,-3.9708,-3.8738,-3.95,-4.9538,-4.5163,-4.1393,-4.9808,-4.9269,-4.8125,0.0,0.0,0.0,0.0,0.0,0.0,0.0,0.0,0.0,0.0,0.0,0.0,0.0,0.0,0.0,0.0,0.0,0.0,0.0,0.0,0.0,0.0,0.0,0.0,-8.0959,-8.0333,-7.9633,-7.8882,-7.9039,-7.9039,-7.8882,-7.9085,-7.9198,-7.9198,-7.901,-7.9047,-7.9123,-7.8119,-7.7855,-7.793,-7.7191,-7.6866,-7.6957,-7.7412,-7.7075,-7.6407,0.0,0.0,0.0,0.0,0.0,0.0,0.0,0.0,0.0,0.0,0.0,0.0,0.0,0.0,0.0,0.0,0.0,0.0,0.0,-2.9957,-3.0321,-3.116,-3.1506,-3.2622,-3.4661,-3.5391,-3.7161,-4.0054,-4.0277,-4.0392,-4.0439,-3.7392,-3.55,-3.4584,-3.2038,-3.1,-3.1154,-3.0615,-3.0692,-3.1154,-3.0615,0.0,0.0,0.0,0.0,0.0,0.0,0.0,0.0,0.0,-3.0615,-3.0923,-3.1154,-3.1429,-3.1814,-3.2314,-3.1852,-3.1423,-3.2391,-3.4045,-3.6692,-4.1623,-4.0931,-4.1585,-5.1318,-4.8971,-4.7471,-5.7,-5.4049,-5.001,0.0,0.0,0.0,0.0,0.0,0.0,0.0,0.0,0.0,0.0,0.0,0.0,0.0,0.0,0.0,0.0,0.0,0.0,0.0,0.0,0.0,0.0,0.0,0.0,0.0,-7.9242,-7.8999,-7.8767,-7.9454,-8.0007,-8.039,-8.039,-8.0084,-7.9569,-7.9569,-7.9282,-7.8746,-7.8384,-7.827,-7.8232,-7.7926,-7.7505,-7.7103,-7.733,-7.6843,-7.6146,0.0,0.0,0.0,0.0,0.0,0.0,0.0,0.0,0.0,0.0,0.0,0.0,0.0,0.0,0.0,0.0,0.0,0.0,-3.0402,-3.0385,-3.0654,-3.1269,-3.1545,-3.2352,-3.3744,-3.5699,-3.7815,-4.0131,-4.1239,-4.1239,-4.0054,-3.7507,-3.5815,-3.4891,-3.2622,-3.1929,-3.2429,-3.1269,-3.1154,-3.1621,-3.0731,-3.0038,0.0,0.0,0.0,0.0,0.0,0.0,0.0,0.0,-3.0577,-3.0885,-3.1192,-3.166,-3.216,-3.2429,-3.2314,-3.2083,-3.2083,-3.3545,-3.6392,-4.1739,-4.1785,-4.317,-5.3395,-5.2164,-5.1587,-6.0973,-5.8511,-5.4511,-5.3982,0.0,0.0,0.0,0.0,0.0,0.0,0.0,0.0,0.0,0.0,0.0,0.0,0.0,0.0,0.0,0.0,0.0,0.0,0.0,0.0,0.0,0.0,0.0,0.0,-7.8477,-7.8477,-7.8515,-7.9246,-7.9838,-8.0285,-8.0285,-7.9939,-7.94,-7.94,-7.9054,-7.8477,-7.8222,-7.7938,-7.7707,-7.7707,-7.7361,-7.6899,-7.6899,-7.6515,-7.6015,0.0,0.0,0.0,0.0,0.0,0.0,0.0,0.0,0.0,0.0,0.0,0.0,0.0,0.0,0.0,0.0,0.0,0.0,-3.0402,-3.0385,-3.0385,-3.0385,-3.1231,-3.2045,-3.2852,-3.5391,-3.7546,-3.9284,-4.0969,-4.0931,-3.9284,-3.8392,-3.7507,-3.6615,-3.4968,-3.4205,-3.409,-3.2429,-3.1737,-3.1621,-3.0731,-3.0385,-3.0231,0.0,0.0,0.0,0.0,0.0,0.0,0.0,-3.0962,-3.1545,-3.0692,-3.1538,-3.2737,-3.1968,-3.2275,-3.2891,-3.2929,-3.3583,-3.5244,-3.9477,-4.0554,-4.3709,-5.5549,-5.4357,-5.2943,-6.0562,-6.2743,-6.282,-6.1089,-6.155,0.0,0.0,0.0,0.0,0.0,0.0,0.0,0.0,0.0,0.0,0.0,0.0,0.0,0.0,0.0,0.0,0.0,0.0,0.0,0.0,0.0,0.0,0.0,-7.8477,-7.8477,-7.8477,-7.8477,-7.8477,-7.8477,-7.8477,-7.8477,-7.8477,-7.8477,-7.8477,-7.84,-7.763,-7.6784,-7.6015,-7.6015,-7.6015,-7.6015,-7.6015,-7.6015,-7.6015,0.0,0.0,0.0,0.0,0.0,0.0,0.0,0.0,0.0,0.0,0.0,0.0,0.0,0.0,0.0,0.0,0.0,0.0,-3.0402,-3.0385,-3.0385,-3.0385,-3.0654,-3.1192,-3.2045,-3.3968,-3.6353,-3.9284,-3.9815,-3.9469,-3.8354,-3.693,-3.6115,-3.5885,-3.6584,-3.5545,-3.3314,-3.4038,-3.3346,-3.1621,-3.0731,-3.0385,-3.0269,0.0,0.0,0.0,0.0,0.0,0.0,0.0,0.0,0.0,-3.1192,-3.2045,-3.3083,-3.4077,-3.4122,-3.393,-3.4545,-3.5776,0.0,-4.0662,0.0,0.0,-5.2731,-5.4972,-5.7703,-6.3551,-6.4474,-6.332,-6.0435,0.0,0.0,0.0,0.0,0.0,0.0,0.0,0.0,0.0,0.0,0.0,0.0,0.0,0.0,0.0,0.0,0.0,0.0,0.0,0.0,0.0,0.0,0.0,0.0,0.0,-7.6746,-7.6746,-7.6746,-7.7361,-7.8477,-7.8477,-7.8169,-7.7669,-7.7669,-7.7323,-7.6707,-7.6476,-7.6245,-7.6015,-7.6015,-7.6015,-7.6015,-7.6015,-7.6015,-7.6015,0.0,0.0,0.0,0.0,0.0,0.0,0.0,0.0,0.0,0.0,-3.0351,-3.0898,0.0,0.0,0.0,0.0,0.0,0.0,-3.0402,-3.0385,-3.0385,-3.0385,-3.0385,-3.0962,-3.216,-3.3506,-3.5206,-3.7284,-3.7623,-3.7507,-3.7007,-3.6654,-3.65,-3.6538,-3.7892,-3.7007,-3.443,-3.4814,-3.3891,-3.2083,-3.1269,-3.0923,-3.0769,0.0,0.0,0.0,0.0,0.0,0.0,0.0,0.0,0.0,-3.0621,-3.1698,-3.2968,-3.3346,-3.4038,-3.5122,-3.6969,-3.8469,0.0,-4.6009,-4.8625,-5.0971,-5.5049,0.0,0.0,0.0,0.0,-6.559,0.0,0.0,0.0,0.0,0.0,0.0,0.0,0.0,0.0,0.0,0.0,0.0,0.0,0.0,0.0,0.0,0.0,0.0,0.0,0.0,0.0,0.0,0.0,0.0,0.0,0.0,0.0,-7.6015,-7.6015,-7.6515,-7.7515,-7.7515,-7.7246,-7.6784,-7.6784,-7.6476,-7.6015,-7.6015,-7.6015,-7.6015,-7.6015,-7.6015,-7.6015,-7.6015,-7.6015,-7.6015,0.0,0.0,0.0,0.0,0.0,0.0,0.0,0.0,0.0,0.0,-3.0391,-3.0898,0.0,0.0,0.0,0.0,0.0,0.0,0.0,-3.0385,-3.0385,-3.0385,-3.0462,-3.1231,-3.2776,-3.3583,-3.3936,-3.3859,-3.4814,-3.5308,-3.5423,-3.7007,-3.7815,-3.793,-3.8931,-3.8315,-3.6385,-3.493,-3.366,-3.2622,-3.1891,-3.1583,-3.1429,-2.9813,0.0,0.0,0.0,0.0,0.0,0.0,0.0,0.0,-2.9467,-3.0814,-3.2391,-3.1038,-3.3,-3.6346,-3.97,-4.1316,0.0,-5.2818,-5.3049,0.0,-6.1023,-6.2678,-6.414,-6.9744,0.0,0.0,0.0,0.0,0.0,0.0,0.0,0.0,0.0,0.0,0.0,0.0,0.0,0.0,0.0,0.0,0.0,0.0,0.0,0.0,0.0,0.0,0.0,0.0,0.0,0.0,0.0,0.0,0.0,0.0,-7.5784,-7.5784,-7.5784,-7.5938,-7.6015,-7.6015,-7.6015,-7.6015,-7.6015,-7.6015,-7.6015,-7.6015,-7.6015,-7.6015,-7.5976,-7.5899,-7.5861,-7.5861,0.0,0.0,0.0,0.0,0.0,0.0,0.0,0.0,0.0,0.0,0.0,0.0,0.0,0.0,0.0,0.0,0.0,0.0,0.0,-3.0385,-3.0385,-3.0385,-3.1077,-3.1583,-3.1968,-3.2122,-3.1891,-3.1231,-3.2737,-3.3814,-3.4507,-3.5545,-3.6385,-3.7084,-3.9277,-3.8207,-3.4776,-3.5084,-3.3577,-3.0923,-3.0731,-3.0692,-3.0654,-3.0269,-3.0231,0.0,0.0,0.0,0.0,0.0,0.0,0.0,-3.0192,-3.05,-3.1115,-3.2083,-3.4314,-3.7192,-4.0585,-4.2624,0.0,0.0,-5.2202,-5.6973,-6.6013,-6.7013,-6.6936,0.0,0.0,0.0,0.0,0.0,0.0,0.0,0.0,0.0,0.0,0.0,0.0,0.0,0.0,0.0,0.0,0.0,0.0,0.0,0.0,0.0,0.0,0.0,0.0,0.0,0.0,0.0,-7.4053,-7.4053,-7.4053,0.0,-7.4053,-7.4053,-7.4091,-7.5399,-7.6015,-7.6015,-7.6015,-7.6015,-7.6015,-7.6015,-7.6015,-7.6015,-7.6015,-7.6015,-7.5938,-7.5245,-7.4976,-7.4899,0.0,0.0,0.0,0.0,0.0,0.0,0.0,0.0,0.0,0.0,0.0,0.0,0.0,0.0,0.0,0.0,0.0,0.0,0.0,-3.0385,-3.0385,-3.0385,-3.0846,-3.1077,-3.1077,-3.1506,-3.1269,-3.0385,-3.1269,-3.2545,-3.4244,-3.5507,-3.6731,-3.7969,-3.8892,-3.7399,-3.4205,-3.4237,-3.2769,-3.0423,-3.0846,-3.1,-3.0923,-3.0083,-2.9775,-2.9737,-2.9352,0.0,0.0,0.0,0.0,0.0,0.0,0.0,-3.0423,-3.0506,-3.2583,-3.5815,-4.0046,0.0,0.0,-5.2818,0.0,0.0,0.0,0.0,0.0,0.0,0.0,0.0,0.0,0.0,0.0,0.0,0.0,0.0,0.0,0.0,0.0,0.0,0.0,0.0,0.0,0.0,0.0,0.0,0.0,0.0,0.0,0.0,0.0,0.0,0.0,0.0,-7.3514,-7.3514,-7.3514,-7.3514,-7.3514,-7.3514,-7.3553,-7.4399,-7.4822,-7.4822,-7.4822,-7.4822,-7.4822,-7.4822,-7.4822,-7.4822,-7.4822,-7.4822,-7.4745,-7.4284,-7.413,-7.4091,0.0,0.0,0.0,0.0,0.0,0.0,0.0,0.0,0.0,0.0,0.0,0.0,0.0,0.0,0.0,0.0,0.0,0.0,0.0,-3.0385,-3.0473,-3.0617,-3.0473,-3.0462,-3.0615,-3.1044,-3.0968,-3.0385,-3.0385,-3.2154,-3.5545,-3.6776,-3.8354,-4.0131,-3.8931,-3.693,-3.4353,-3.3045,-3.1654,-3.0462,-3.1192,-3.1468,-3.1314,-2.9704,-2.9088,-2.8973,-2.8203,-2.8434,-2.9204,-2.9929,0.0,0.0,0.0,0.0,-2.9692,-2.8313,-3.0275,-3.3891,0.0,0.0,-5.0317,0.0,0.0,0.0,0.0,0.0,0.0,0.0,0.0,0.0,0.0,0.0,0.0,0.0,0.0,0.0,0.0,0.0,0.0,0.0,0.0,0.0,0.0,0.0,0.0,0.0,0.0,0.0,0.0,0.0,0.0,0.0,0.0,-7.3053,-7.3053,-7.3053,-7.3053,-7.3053,-7.3053,-7.3053,-7.3053,-7.3053,-7.3245,-7.3514,-7.3514,-7.3514,-7.3514,-7.3514,-7.3514,-7.3514,-7.3514,-7.3514,-7.3462,-7.3322,-7.3283,-7.3245,0.0,0.0,0.0,0.0,0.0,0.0,0.0,0.0,0.0,0.0,-3.0898,-3.0858,-3.0725,-3.0014,0.0,0.0,0.0,0.0,-3.0346,0.0,0.0,-3.157,-3.0844,-3.0731,-3.1506,-3.016,-2.9775,-3.0385,-3.0385,-3.3962,-4.0777,-4.0239,-4.1285,-4.3508,-4.1208,-3.8354,-3.5115,-3.2038,-3.0615,-3.0423,-3.0538,-3.0577,-3.0462,-2.9467,-2.9088,-2.8973,-2.8203,-2.8434,-2.9127,-2.9242,-2.9775,0.0,0.0,0.0,0.0,0.0,-3.0275,-3.3391,0.0,0.0,0.0,0.0,0.0,0.0,0.0,0.0,0.0,0.0,0.0,0.0,0.0,0.0,0.0,0.0,0.0,0.0,0.0,0.0,0.0,0.0,0.0,0.0,0.0,0.0,0.0,0.0,0.0,0.0,0.0,0.0,-7.1245,-7.1245,-7.1245,0.0,-7.1245,-7.1245,-7.1245,-7.1245,-7.1245,-7.1245,-7.1245,-7.1245,-7.2091,-7.3514,-7.3514,-7.3514,-7.3514,-7.3514,-7.3514,-7.3514,-7.3514,-7.3514,-7.3399,-7.2629,-7.236,-7.2283,0.0,0.0,0.0,0.0,0.0,0.0,0.0,0.0,0.0,0.0,0.0,-3.0857,-3.0718,-3.0319,0.0,0.0,0.0,0.0,-2.9684,-2.9699,0.0,-3.0986,-3.0155,-2.9852,-3.0237,-2.9473,-2.928,-2.966,-2.9236,-3.4391,-4.4654,-4.4278,-4.4662,-4.5701,-4.4586,-4.0623,-3.4699,-3.3692,-3.1885,-2.9698,-3.0192,-3.1269,-3.2237,-2.9473,-2.9319,-3.0275,-2.8005,-2.739,-2.7852,-2.878,-2.9352,-2.9544,-2.8703,0.0,0.0,0.0,0.0,0.0,-3.9123,0.0,0.0,0.0,0.0,0.0,0.0,0.0,0.0,0.0,0.0,0.0,0.0,0.0,0.0,0.0,0.0,0.0,0.0,0.0,0.0,0.0,0.0,0.0,0.0,0.0,0.0,0.0,0.0,0.0,0.0,-7.1091,-7.0898,-7.0898,-7.0898,0.0,-7.0898,-7.0898,-7.0898,-7.0898,-7.0898,-7.0898,-7.0898,-7.0898,-7.1321,-7.2052,-7.2052,-7.2052,-7.2052,-7.2052,-7.2052,-7.2052,-7.2052,-7.2052,-7.2014,-7.1591,-7.1475,-7.1398,0.0,0.0,0.0,0.0,0.0,0.0,0.0,0.0,0.0,0.0,0.0,-3.0857,-3.0718,0.0,0.0,0.0,0.0,0.0,-2.8916,0.0,0.0,0.0,-2.9682,-2.9319,-2.9088,-2.8896,-2.8819,-2.8819,-2.8396,-3.416,-4.5615,-4.6932,-4.8009,-4.8817,-4.8163,-4.3855,-3.7053,-3.6161,-3.4314,-3.2012,-3.2237,-3.3199,-3.4199,-3.1275,-3.1314,-3.2545,-2.9121,-2.8044,-2.8275,-2.8896,-2.9242,-2.9275,-2.8472,-2.8049,0.0,0.0,0.0,0.0,0.0,0.0,0.0,0.0,0.0,0.0,0.0,0.0,0.0,0.0,0.0,0.0,0.0,0.0,0.0,0.0,0.0,0.0,0.0,0.0,0.0,0.0,0.0,0.0,0.0,0.0,0.0,0.0,0.0,0.0,-7.0283,-7.0244,-7.0244,-7.0244,-7.0475,-7.0591,-7.0591,-7.0783,-7.0898,-7.0898,-7.0898,-7.0898,-7.0898,-7.0898,-7.0898,-7.0898,-7.0898,-7.0898,-7.0898,-7.0898,-7.0898,-7.0898,-7.0898,-7.0898,-7.0898,-7.0898,-7.0898,-7.0898,0.0,0.0,0.0,0.0,0.0,0.0,0.0,0.0,0.0,0.0,0.0,-3.0857,-3.0718,-3.0013,-2.9487,-2.9294,-2.8588,0.0,0.0,0.0,0.0,0.0,0.0,0.0,-2.9127,-2.8357,-2.7972,-2.7972,-2.8665,-3.3506,-4.2154,-4.7009,-5.101,-5.401,-5.1587,-4.848,-4.4633,-3.9008,-3.7892,-3.9785,-3.8238,-3.6738,-3.55,-3.6038,-3.6308,-3.6,-3.266,-3.1929,-3.2237,-2.9896,-2.966,-3.0192,-2.9313,-2.8511,-2.7741,0.0,0.0,0.0,0.0,0.0,0.0,0.0,0.0,0.0,0.0,0.0,0.0,0.0,0.0,0.0,0.0,0.0,0.0,0.0,0.0,0.0,0.0,0.0,0.0,0.0,0.0,0.0,0.0,0.0,0.0,0.0,0.0,0.0,-6.8577,-6.8552,-6.8552,-6.8552,-6.9321,-6.9744,-6.9744,-7.0514,-7.0898,-7.0898,-7.0898,-7.0898,-7.0898,-7.0898,-7.0898,-7.0898,-7.0898,-7.0898,-7.0898,-7.0898,-7.0898,-7.0898,-7.0898,-7.0898,-7.0898,-7.0898,-7.0898,-7.0898,0.0,0.0,0.0,0.0,0.0,0.0,0.0,0.0,0.0,0.0,0.0,0.0,0.0,-3.0443,-2.9801,-2.8641,-2.7731,0.0,0.0,0.0,0.0,0.0,0.0,0.0,-2.9127,-2.8319,-2.7895,-2.7895,-2.7621,-3.1583,-3.9431,-4.2316,-4.5518,-4.898,-5.3549,-5.1856,-4.5479,-4.3316,-4.0431,-3.7507,-4.02,-3.9931,-3.8046,-3.8815,-4.0162,-4.0931,-3.5923,-3.4654,-3.5045,-3.3051,-3.1506,-3.0231,-2.9352,-2.8165,-2.6774,-2.5394,-2.5543,-2.7385,0.0,0.0,0.0,0.0,0.0,0.0,0.0,0.0,0.0,0.0,0.0,0.0,0.0,0.0,0.0,0.0,0.0,0.0,0.0,0.0,0.0,0.0,0.0,0.0,0.0,0.0,0.0,0.0,0.0,0.0,-6.8308,-6.6859,-6.6705,-6.8359,-6.8706,-6.8859,-6.8859,-6.9167,-6.9321,-6.9321,-6.986,-7.0129,-7.0167,-7.0667,-7.0898,-7.0898,-7.0898,-7.0898,-7.0898,-7.0898,-7.0898,-7.0898,-7.0898,-7.0898,-7.0898,-7.0898,-7.0898,-7.0898,0.0,0.0,0.0,0.0,0.0,0.0,0.0,0.0,-3.0703,-3.0117,0.0,0.0,0.0,0.0,-3.0172,-2.8717,-2.7711,-2.702,-2.6715,-2.8193,0.0,0.0,0.0,0.0,-2.9127,-2.8852,-2.8313,-2.7467,-2.7736,-3.0621,-3.5968,-3.8784,-4.1785,-4.5017,-5.0664,-5.1164,-4.7702,-4.7702,-4.5278,-4.1654,-4.4201,-4.4201,-4.2816,-4.3893,-4.5047,-4.5586,-4.2192,-4.0423,-3.9508,-3.8399,-3.5968,-3.3199,-3.2006,-2.9121,-2.5923,-2.4812,-2.5274,-2.6967,-3.066,0.0,0.0,0.0,0.0,0.0,0.0,0.0,0.0,0.0,0.0,0.0,0.0,0.0,0.0,0.0,0.0,0.0,0.0,0.0,0.0,0.0,0.0,0.0,0.0,0.0,0.0,0.0,0.0,0.0,-6.7475,-6.5974,-6.5936,-6.7898,-6.7975,-6.809,-6.8385,-6.8385,-6.8385,-6.8398,-6.9013,-6.9244,-6.9283,-6.9821,-7.0206,-7.0514,-7.0514,-7.0667,-7.0898,-7.0898,-7.0898,-7.0898,-7.0898,-7.0898,-7.0898,-7.0898,-7.0898,-7.0898,0.0,0.0,0.0,0.0,0.0,0.0,0.0,-3.0898,-3.0898,-3.0859,0.0,0.0,0.0,0.0,0.0,-2.9622,-2.8678,-2.7747,-2.6753,-2.8188,-2.8703,-2.7934,-2.9462,-2.9967,-2.9165,-2.9929,-2.9154,-2.6659,-2.9115,-3.0769,-3.1698,-3.6699,-4.0354,-4.2777,-4.2931,-4.6163,-5.15,-5.1615,-5.2077,-5.2626,-5.0394,-4.9394,-4.9433,-5.1346,-5.0971,-4.9702,-5.1423,-4.9394,-4.5864,-4.5825,-4.2978,-3.9084,-3.7123,-3.1385,-2.5385,-2.5346,-2.5385,-2.5577,0.0,0.0,0.0,0.0,0.0,0.0,0.0,0.0,0.0,0.0,0.0,0.0,0.0,0.0,0.0,0.0,0.0,0.0,0.0,0.0,0.0,0.0,0.0,0.0,0.0,0.0,0.0,0.0,0.0,-6.6628,-6.5936,-6.5897,-6.6244,-6.7051,-6.7051,-6.7475,-6.8321,-6.8308,-6.8308,-6.8308,-6.8359,-6.8359,-6.8359,-6.8385,-6.8859,-6.9667,-6.9706,-7.0129,-7.086,-7.0898,-7.0898,-7.0898,-7.0898,-7.0898,-7.0898,-7.0898,-7.0898,-7.0898,0.0,0.0,0.0,0.0,0.0,-3.0703,-3.0078,-3.0508,-3.0664,0.0,0.0,0.0,-3.0976,-3.0898,-3.0776,-3.0401,-2.9554,-2.8353,-2.6723,-2.7642,-2.8126,-2.7895,-2.889,-2.9621,-3.0038,-2.966,-2.8813,-2.7544,-2.8236,-2.8736,-2.9006,-3.1621,-3.3583,-3.5007,-3.87,-4.0893,-4.2008,-4.447,-4.4932,-4.447,-4.9933,-4.9548,-4.6432,-5.3049,-5.378,-5.1587,-5.4511,-5.4049,-5.1933,-5.1318,-4.7432,-4.1662,-3.4423,-2.9846,-2.7044,-2.6428,-2.7082,-2.7967,-2.7621,0.0,0.0,0.0,0.0,0.0,0.0,0.0,0.0,0.0,0.0,0.0,0.0,0.0,0.0,0.0,0.0,0.0,0.0,0.0,0.0,0.0,0.0,0.0,0.0,0.0,0.0,0.0,0.0,-6.4179,-6.582,-6.5897,-6.6013,-6.6205,-6.6244,-6.6359,-6.659,-6.659,-6.659,-6.659,-6.7167,-6.7475,-6.7475,-6.8129,-6.8552,-6.8783,-6.9436,-6.9821,-7.009,-7.0667,-7.0898,-7.0898,-7.0898,-7.0898,-7.0898,-7.0898,-7.0898,-7.0898,0.0,0.0,-3.1016,-3.1367,-3.1719,-3.1875,-3.1758,-3.1836,-3.1875,0.0,0.0,0.0,-3.2461,-3.277,-3.2795,-3.2366,-3.1507,-3.0238,-2.8427,-2.8406,-2.8517,-2.8522,-2.8939,-2.9592,-3.0443,-3.0332,-2.9524,-2.7972,-2.8661,-2.8439,-2.7427,-2.9105,-3.0121,-3.0737,-3.3705,-3.5161,-3.5545,-3.8238,-4.1239,-4.4786,-5.1164,-5.2702,-5.1856,-5.7857,-5.8511,-5.6665,-6.0396,-6.0012,-5.7742,-5.8319,-5.3356,-4.5586,-3.7654,-3.2776,-2.989,-2.939,-2.9698,-3.0006,-2.9159,-3.0275,-3.1621,-3.132,0.0,0.0,0.0,0.0,0.0,0.0,0.0,0.0,0.0,0.0,0.0,0.0,0.0,0.0,0.0,0.0,0.0,0.0,0.0,0.0,0.0,0.0,0.0,0.0,-6.4512,-6.432,-6.582,-6.5897,-6.5897,-6.5897,-6.5897,-6.5897,-6.5897,-6.5897,-6.5897,-6.5897,-6.6359,-6.659,-6.6628,-6.7128,-6.7552,-6.7898,-6.8398,-6.9013,-6.9744,-7.0206,-7.0591,-7.0898,-7.0898,-7.0898,-7.0898,-7.0898,-7.0898,-7.0898,0.0,0.0,-3.1211,-3.2187,-3.293,-3.3711,-3.4687,-3.418,-3.3984,0.0,-3.3555,-3.3242,-3.4961,-3.569,-3.5749,-3.4974,-3.3946,-3.2655,-3.0953,-2.9808,-2.9257,-2.9385,-2.9257,-2.9605,-3.0583,-3.1358,-3.0619,-2.8249,-2.9571,-2.9132,-2.6982,-2.8232,-2.8945,-2.9088,-2.9088,-3.0006,-3.1698,-3.3545,-3.9854,-4.8894,-5.2664,-5.6703,0.0,0.0,-6.3705,-6.2678,-6.709,-6.6013,-6.2832,-6.482,-5.9281,-5.0433,-4.4085,-3.843,-3.4045,-3.3506,-3.2891,-3.2199,-3.1346,-3.1654,-3.2545,-3.3744,-3.1935,0.0,-3.6161,-3.8507,0.0,0.0,0.0,0.0,0.0,0.0,0.0,0.0,0.0,0.0,0.0,0.0,0.0,0.0,0.0,0.0,0.0,0.0,0.0,-6.559,-6.5705,-6.5743,-6.5743,-6.5859,-6.5897,-6.5897,-6.5897,-6.5897,-6.5897,-6.5897,-6.5897,-6.5897,-6.5897,-6.5897,-6.5897,-6.5897,-6.6282,-6.6974,-6.7051,-6.7975,-6.9436,-6.9629,-7.0167,-7.0898,-7.0898,-7.0898,-7.0898,-7.0898,-7.0898,-7.0898,-3.0742,-3.0898,-3.1367,-3.2891,-3.3281,-3.3945,-3.5508,-3.5586,-3.5547,-3.5703,-3.5469,-3.5937,-3.7656,-3.7343,-3.6948,-3.6698,-3.5241,-3.3579,-3.1779,-2.958,-2.8638,-2.9385,-2.8718,-2.9063,-3.0583,-3.0778,-3.0275,-2.9152,-2.874,-2.8618,-2.8698,-2.7662,-2.787,-2.9088,-2.9088,-2.966,-3.0846,-3.3923,-3.8346,-4.3816,-4.9923,-5.4549,-5.8407,-6.4359,-6.4743,-6.2832,-6.8398,-6.8167,-6.4897,-6.3371,-6.0165,-5.528,0.0,0.0,-4.1277,-3.7161,-3.6353,-3.6584,-3.5692,-3.5577,-3.5308,-3.3583,0.0,0.0,0.0,-3.3699,0.0,0.0,0.0,0.0,0.0,0.0,0.0,0.0,0.0,0.0,0.0,0.0,0.0,0.0,0.0,0.0,0.0,0.0,-6.382,-6.382,-6.4474,-6.4859,-6.4859,-6.5513,-6.5897,-6.5897,-6.5897,-6.5897,-6.5897,-6.5897,-6.5897,-6.5897,-6.5897,-6.5897,-6.5897,-6.5897,-6.5974,-6.6167,-6.6821,-6.7282,-6.7705,-6.9129,-7.0167,-7.0898,-7.0898,-7.0898,-7.0898,-7.0898,-7.0898,-7.0898,-3.082,-3.0898,-3.1562,-3.3672,-3.4414,-3.5586,-3.8203,-3.7851,-3.7891,-3.9609,-3.9453,-3.9375,-3.9844,-3.945,-3.8975,-3.8588,-3.6894,-3.4931,-3.2789,-3.0678,-2.97,-3.013,-2.9309,-2.9659,-3.1378,-3.0986,-3.0557,-3.0169,-2.964,-2.9126,-2.8653,-2.8602,-2.9245,-3.039,-3.039,-3.0852,-3.1769,-3.3468,-3.6661,-4.1316,-5.024,0.0,-6.0292,-6.7051,-6.8859,-6.8129,-7.0629,-7.0206,-6.7628,-6.2512,-6.0242,0.0,-5.101,-4.7586,-4.5432,0.0,-4.02,-3.97,-3.8815,-3.8315,-3.77,-3.6392,0.0,0.0,0.0,0.0,0.0,0.0,0.0,0.0,0.0,0.0,0.0,0.0,0.0,0.0,0.0,0.0,0.0,0.0,0.0,0.0,0.0,0.0,-6.3308,-6.3308,-6.3705,-6.3935,-6.3935,-6.4359,-6.4589,-6.4589,-6.5013,-6.5243,-6.5243,-6.5667,-6.5897,-6.5897,-6.5897,-6.5897,-6.5897,-6.5897,-6.5897,-6.5897,-6.632,-6.6744,-6.7167,-6.8052,-6.8898,-6.9744,-7.0552,-7.0898,-7.0898,-7.0898,-7.0898,-7.0898,-3.0976,-3.0898,-3.1641,-3.4023,-3.5312,-3.707,-4.0234,-3.9805,-4.0156,-4.3086,-4.3125,-4.289,-4.2887,-4.2205,-4.1921,-4.2484,-4.0073,-3.7572,-3.5268,-3.3199,-3.1951,-3.1641,-3.0312,-3.0508,-3.2383,-3.1445,-3.0898,-3.0898,-3.0617,-2.9847,-2.862,-2.974,-3.0714,-3.1471,-3.1788,-3.2737,-3.4122,-3.4122,0.0,-4.2816,0.0,-5.7857,-6.1216,-6.8821,-7.186,-7.2052,-7.2168,-7.1745,-7.0014,-6.2704,-6.0704,-6.0319,-5.4895,-5.1202,0.0,0.0,0.0,0.0,0.0,0.0,0.0,0.0,0.0,-3.6846,0.0,0.0,0.0,-3.9462,0.0,0.0,0.0,0.0,0.0,0.0,0.0,0.0,0.0,0.0,0.0,0.0,0.0,0.0,0.0,0.0,-6.1577,-6.2743,-6.2358,-6.2358,-6.3051,-6.3243,-6.3308,-6.3308,-6.3974,-6.4359,-6.4359,-6.5205,-6.5628,-6.5628,-6.582,-6.5897,-6.5897,-6.5897,-6.5897,-6.5897,-6.5897,-6.6282,-6.6859,-6.7051,-6.7513,-6.8321,-7.0014,-7.0667,-7.0706,-7.0821,-7.0898,-7.0898,-3.1172,-3.0898,-3.1445,-3.3242,-3.4922,-3.6641,-3.8594,-4.0039,-4.1289,-4.2383,-4.3828,-4.5776,-4.8605,-4.6194,-4.6437,-5.1519,-4.6916,-4.3034,-4.1293,-3.8168,-3.5742,-3.4336,-3.1289,-3.0742,-3.3203,-3.1719,-3.0898,-3.0898,-3.0117,-2.9955,-3.0395,-2.9747,-2.9853,-3.0689,-3.2143,-3.493,-3.8592,0.0,-4.3624,0.0,-5.628,-5.6472,0.0,-6.5974,-6.8629,-6.7244,-7.0898,-7.2129,-7.1091,0.0,-6.2935,-6.1858,0.0,-5.2385,-5.0962,-4.8432,0.0,0.0,0.0,0.0,0.0,0.0,-4.0777,0.0,0.0,0.0,-3.6038,-3.4276,0.0,0.0,0.0,0.0,0.0,0.0,0.0,0.0,0.0,0.0,0.0,0.0,0.0,0.0,0.0,0.0,0.0,-6.0704,-5.9011,-5.905,-6.205,-6.2897,-6.3308,-6.3308,-6.3397,-6.3474,-6.3474,-6.432,-6.4743,-6.4743,-6.5513,-6.5897,-6.5897,-6.5897,-6.5897,-6.5897,-6.5897,-6.5936,-6.609,-6.6821,-6.7167,-6.7398,-6.9167,-6.986,-6.9937,-7.0629,-7.0898,-7.0898,-3.2578,-3.1953,-3.2187,-3.3867,-3.4336,-3.5586,-3.8867,-4.2969,-4.5234,-4.4062,-4.5859,-4.8749,-5.2603,-5.0769,-5.1417,-5.6909,-5.408,-5.0641,-4.7466,-4.3642,-4.076,-3.9006,-3.483,-3.3514,-3.5489,-3.3005,-3.1875,-3.2344,-3.1016,-3.0466,-3.0714,-3.0769,-3.1767,-3.3519,-3.461,0.0,-4.2901,0.0,-4.4624,0.0,0.0,0.0,0.0,-6.7282,-7.1937,-7.0937,-7.0244,-7.0937,-7.0975,0.0,-6.2358,0.0,0.0,0.0,0.0,0.0,0.0,0.0,0.0,0.0,0.0,0.0,0.0,0.0,-3.89,0.0,-3.5962,0.0,0.0,0.0,0.0,0.0,0.0,0.0,0.0,0.0,0.0,0.0,0.0,0.0,0.0,0.0,0.0,0.0,0.0,0.0,0.0,-5.5626,-5.7588,-6.0319,-6.1858,-6.1858,-6.2358,-6.2589,-6.2589,-6.3435,-6.4089,-6.4589,-6.4974,-6.5397,-6.5897,-6.5897,-6.5897,-6.5897,-6.5897,-6.5897,-6.5936,-6.6244,-6.6397,-6.6513,-6.7705,-6.8821,-6.9744,-7.009,-7.0514,-7.0898,-3.4258,-3.3086,-3.2578,-3.3789,-3.3867,-3.5234,-3.9609,-4.4961,-4.8125,-4.6914,-4.8594,-5.1835,-5.6791,-5.4406,-5.5209,-6.1985,-6.0233,-5.7437,-5.4369,-5.0014,-4.6888,-4.534,-3.8965,-3.6404,-3.8528,-3.484,-3.2969,-3.3086,-3.207,-3.1522,-3.147,-3.2279,-3.3443,-3.5035,-3.6677,-4.0361,-4.5248,0.0,-4.7932,-5.1972,-5.4511,-5.6395,-5.8742,-6.8783,-7.363,-7.463,-7.1321,-7.1321,-7.1591,-6.3205,-6.2858,0.0,-5.9985,0.0,0.0,0.0,0.0,0.0,-5.0433,0.0,0.0,0.0,0.0,0.0,0.0,0.0,0.0,0.0,0.0,0.0,0.0,0.0,0.0,-3.4167,0.0,0.0,0.0,0.0,0.0,0.0,0.0,0.0,0.0,0.0,0.0,0.0,0.0,0.0,-5.4395,-5.805,-6.0319,-6.0781,-6.1408,-6.1755,-6.1755,-6.2551,-6.3281,-6.3935,-6.4397,-6.4936,-6.5551,-6.5782,-6.5897,-6.5897,-6.5897,-6.5897,-6.5897,-6.5897,-6.5897,-6.5974,-6.6551,-6.7667,-6.9052,-6.9513,-7.0052,-7.0591,-3.5937,-3.3906,-3.2226,-3.2266,-3.3594,-3.6133,-4.0508,-4.4844,-4.8516,-5.0898,-5.1992,-5.5112,-6.1735,-5.655,-5.6911,-6.7669,-6.4838,-6.2435,-6.2434,-5.7629,-5.4418,-5.3632,-4.3086,-3.8789,-4.2148,-3.7226,-3.3828,-3.2226,-3.2969,-3.332,-3.332,-3.4121,-3.4075,-3.3456,-3.752,-4.1195,-4.4662,-4.9538,-5.6423,-6.4243,-6.6821,-7.0783,-7.4591,0.0,-7.0937,-7.5822,-7.4861,0.0,0.0,-6.7667,-6.5743,0.0,0.0,0.0,0.0,0.0,0.0,0.0,0.0,0.0,0.0,-4.6201,0.0,0.0,0.0,0.0,-3.77,0.0,0.0,0.0,0.0,-3.7199,-3.6045,-3.4475,-3.4167,0.0,0.0,0.0,0.0,0.0,0.0,0.0,0.0,0.0,0.0,0.0,0.0,0.0,-5.4203,-5.6973,-5.9127,-6.0742,-6.0819,-6.0819,-6.0819,-6.1716,-6.2139,-6.2216,-6.382,-6.4628,-6.4666,-6.5513,-6.5897,-6.5897,-6.5897,-6.5897,-6.5897,-6.5897,-6.5897,-6.5897,-6.5936,-6.6436,-6.7398,-6.909,-6.9706,-6.986,-3.6211,-3.4844,-3.3867,-3.3867,-3.3867,-3.5508,-4.0469,-4.4844,-4.9531,0.0,-5.5976,0.0,0.0,-6.7893,-6.8043,0.0,0.0,-7.192,-6.7948,-6.4033,-6.1999,-6.2265,-5.2762,-4.7732,-4.8263,-4.2693,-3.8398,-3.5586,-3.3594,-3.2891,-3.3398,-3.3615,-3.4172,-3.5125,-3.8739,-4.3102,0.0,0.0,0.0,0.0,0.0,-6.809,-7.2668,0.0,0.0,-7.5899,-7.5014,-7.4707,0.0,-6.986,-6.8398,-6.8052,-6.6051,-6.3281,-6.1358,-6.4128,-6.1589,0.0,0.0,0.0,-5.9319,-5.3318,0.0,0.0,0.0,0.0,0.0,0.0,0.0,0.0,0.0,-3.7276,-3.6346,-3.5238,-3.4584,-3.3205,0.0,0.0,0.0,0.0,0.0,0.0,0.0,0.0,0.0,0.0,0.0,0.0,0.0,-5.3087,-5.6819,-5.7396,-5.9627,-6.0781,-6.0781,-6.1089,-6.1524,-6.2101,-6.2678,-6.3512,-6.4628,-6.4897,-6.5359,-6.5897,-6.5897,-6.5897,-6.5897,-6.5897,-6.5897,-6.5897,-6.5897,-6.6051,-6.6436,-6.7552,-6.8706,-6.9821,-3.6875,-3.5742,-3.4961,-3.4336,-3.4805,-3.7109,-4.2617,-4.7109,0.0,0.0,-6.0547,0.0,-7.3555,0.0,-7.2932,0.0,-7.6443,-7.5391,-7.2435,-6.7367,0.0,-6.8333,-5.9247,-5.453,-5.5454,-4.8709,-4.3789,-4.0976,-3.6601,-3.4883,-3.5703,-3.4719,-3.4859,-3.605,-3.9366,-4.3408,-4.8183,0.0,-5.9948,0.0,0.0,-6.8706,0.0,0.0,-7.4938,-7.5938,0.0,-7.5168,-7.4784,-7.2322,-7.1283,-7.0821,-6.936,-6.7013,-6.5243,-6.7398,-6.5128,-6.2166,-6.3512,-6.4243,0.0,-5.8319,-5.5588,0.0,-4.6932,0.0,0.0,0.0,0.0,0.0,0.0,-3.9931,-3.8038,-3.6615,-3.5161,-3.2897,0.0,0.0,0.0,0.0,0.0,0.0,0.0,0.0,-3.4353,-3.693,0.0,0.0,0.0,0.0,-5.4741,-5.5665,-5.9011,-6.0781,-6.0781,-6.0781,-6.1089,-6.1639,-6.1947,-6.282,-6.4166,-6.4474,-6.5089,-6.5897,-6.5897,-6.5897,-6.5897,-6.5897,-6.5897,-6.5897,-6.5897,-6.5897,-6.6013,-6.6782,-6.8205,-6.9783,-3.7812,-3.6719,-3.5703,0.0,-3.668,0.0,0.0,0.0,-5.7226,0.0,-6.5664,-6.7344,-7.4062,-7.2031,-7.1992,-7.6601,-7.414,-7.3281,-7.5547,-6.8047,0.0,0.0,-6.2851,-5.9336,-6.3281,-5.5039,-4.9805,-4.7969,-4.1719,-3.9141,-3.9961,-3.7266,-3.5972,-3.6061,-3.9492,0.0,-4.5149,-5.6205,-6.2418,-6.5205,-6.909,-7.2706,-7.5399,-7.2129,0.0,-7.6015,-7.6015,-7.6015,-7.5861,-7.5053,-7.4245,-7.3399,-7.2552,-7.1129,-6.9821,-6.9783,-6.9167,-6.8359,-6.7513,-6.7282,-6.609,-6.1166,0.0,0.0,0.0,0.0,-4.9433,0.0,0.0,0.0,0.0,0.0,-4.1085,-3.8469,-3.5853,-3.2743,-2.8703,0.0,0.0,0.0,0.0,0.0,0.0,0.0,-3.2737,-3.5077,-3.4622,0.0,0.0,0.0,0.0,-5.5472,-5.8742,-6.055,-6.0781,-6.0666,-6.0666,-6.0819,-6.1639,-6.2474,-6.332,-6.4166,-6.5013,-6.5897,-6.5897,-6.5897,-6.5897,-6.5897,-6.5897,-6.5897,-6.5897,-6.5897,-6.6013,-6.6782,-6.8167,-6.9629,-3.7812,-3.8164,-3.9336,0.0,-4.2344,-4.4961,0.0,0.0,0.0,0.0,-6.9453,-7.3359,-7.7109,-7.9531,-7.914,-7.4687,-7.5859,0.0,0.0,0.0,0.0,-7.8437,-7.3086,-6.9609,-6.875,-6.1523,-5.6328,-5.332,-4.4062,-4.0312,-4.168,-3.7812,-3.5976,-3.6131,0.0,0.0,-4.4284,-5.4774,-6.2752,-6.8321,-6.7513,-6.9206,0.0,0.0,-7.3014,-7.6015,-7.6015,-7.6015,-7.5976,-7.5745,-7.5091,-7.4245,-7.3437,-7.2437,-7.1437,-7.0783,-7.0437,-7.0206,-6.9975,-6.9937,-6.9321,-6.6744,-6.3589,-6.0165,0.0,0.0,0.0,0.0,0.0,0.0,0.0,0.0,0.0,-3.9469,-3.5738,-3.2852,-3.1775,0.0,0.0,0.0,0.0,0.0,0.0,0.0,-3.2352,-3.1769,0.0,0.0,0.0,0.0,0.0,-5.3664,-5.4703,-5.6973,-6.0742,-5.8907,-5.8946,-6.0781,-6.1012,-6.1897,-6.3308,-6.3538,-6.4474,-6.5897,-6.5897,-6.5897,-6.5897,-6.5897,-6.5897,-6.5897,-6.5897,-6.5897,-6.6013,-6.6782,-6.7782,-6.8821,-3.9609,0.0,0.0,-4.5078,0.0,0.0,-5.4961,0.0,0.0,-6.8672,-7.25,0.0,-7.8711,-8.2539,-8.3125,-7.875,-7.707,0.0,-7.539,0.0,0.0,-7.9648,-7.6875,-7.4101,-7.1875,-6.6562,0.0,-5.6992,-4.7383,-4.3008,-4.3437,-3.8359,-3.6016,-3.6133,0.0,-4.1657,0.0,-5.5907,-6.4325,-6.968,-6.866,0.0,0.0,-7.1475,-7.3014,-7.6015,-7.6015,-7.6015,-7.6015,-7.6015,-7.5438,-7.463,-7.4168,-7.3168,-7.2091,-7.1591,-7.1206,-7.0898,-7.0898,-7.0898,-7.0667,-6.9744,-6.7436,-6.4666,-6.1704,-6.0012,-5.8511,0.0,0.0,0.0,0.0,0.0,0.0,-3.7976,-3.5052,-3.3199,0.0,0.0,0.0,0.0,0.0,0.0,0.0,0.0,0.0,0.0,0.0,0.0,0.0,0.0,0.0,-4.9779,-5.2741,-5.5318,-5.7473,-5.6049,-5.6626,-5.9127,-5.9127,-6.0589,-6.3308,-6.3308,-6.4243,-6.5897,-6.5897,-6.5897,-6.5897,-6.5897,-6.5897,-6.5897,-6.5897,-6.5897,-6.6013,-6.6782,-6.7667,-6.8513,-4.25,0.0,0.0,0.0,0.0,0.0,0.0,-6.2969,0.0,-7.3789,0.0,-7.707,-7.9609,-8.3086,-8.5,-8.4453,0.0,-7.5781,-7.9297,-7.2578,-7.1562,-7.8672,-7.7539,-7.5976,-7.4336,-7.0742,-6.6094,0.0,-5.1289,-4.625,-4.5039,-3.8984,-3.6172,0.0,0.0,0.0,0.0,-5.7969,-6.5592,0.0,-7.0805,-7.2898,-7.5086,-7.2528,-7.3399,-7.6015,-7.6015,-7.6015,-7.6015,-7.6015,-7.5515,-7.4861,-7.4745,-7.3707,-7.2476,-7.2245,-7.1668,-7.1052,-7.0937,-7.0898,-7.0898,-7.0898,-7.036,-6.9013,-6.582,-6.4512,-6.3705,-6.2781,-6.0742,-5.9204,0.0,0.0,0.0,-3.6322,0.0,0.0,0.0,0.0,0.0,0.0,0.0,0.0,0.0,0.0,0.0,0.0,0.0,0.0,0.0,0.0,0.0,0.0,-5.151,0.0,-5.3703,0.0,-5.4664,-5.75,-5.7165,-5.9204,-6.3308,-6.3308,-6.4243,-6.5897,-6.5897,-6.5897,-6.5897,-6.5897,-6.5897,-6.5897,-6.5897,-6.5897,-6.6013,-6.6936,-6.7744,-6.8513,-4.582,0.0,0.0,0.0,0.0,-6.1797,-6.8906,-7.2539,-7.4765,-7.5586,-8.0625,-8.3281,-8.1015,-8.4531,-8.5586,-8.1992,-8.0429,0.0,0.0,0.0,0.0,-8.1484,-8.1328,-8.0703,-7.9687,-7.4883,-7.0508,0.0,-5.5156,-4.8359,-4.5937,-3.9883,-3.707,0.0,0.0,0.0,-5.5266,-5.761,0.0,-6.9264,-7.063,-7.1521,-7.2258,-7.4318,-7.5476,-7.6015,-7.6015,-7.6015,-7.6015,-7.6015,-7.5899,-7.5668,-7.4938,-7.4514,-7.3976,-7.2591,-7.2091,-7.1822,-7.1091,-7.0898,-7.0898,-7.0898,-7.0783,-7.0167,-6.8205,-6.7628,-6.709,-6.5551,-6.432,-6.2666,-5.9973,0.0,0.0,0.0,0.0,0.0,0.0,0.0,0.0,0.0,0.0,0.0,0.0,0.0,0.0,0.0,0.0,0.0,0.0,0.0,0.0,0.0,0.0,0.0,0.0,0.0,0.0,-6.0127,-5.8022,-5.9204,-6.3308,-6.3308,-6.4243,-6.5897,-6.5897,-6.5897,-6.5897,-6.5897,-6.5897,-6.5897,-6.5897,-6.5897,-6.609,-6.7628,-6.8282,-6.8513,0.0,0.0,0.0,0.0,0.0,0.0,0.0,-7.789,0.0,-7.8828,-8.1836,-8.3554,-8.1875,-8.5156,-8.664,-8.4531,-8.2304,-8.1445,-8.2422,-8.0,-7.9844,-8.2851,-8.2539,0.0,-7.8398,-7.6367,-7.2305,-6.6172,-5.7226,-5.082,-4.6836,-4.0351,-3.7305,-3.75,0.0,-4.777,0.0,0.0,0.0,-6.9382,-7.2789,-7.4102,-7.4157,-7.5612,-7.6173,-7.616,-7.6048,-7.6015,-7.6015,-7.6015,-7.6015,-7.5938,-7.5515,-7.5053,-7.4476,-7.3245,-7.2552,-7.2014,-7.1129,-7.0898,-7.0898,-7.0898,-7.0898,-7.0591,-6.936,-6.8744,-6.8052,-6.6782,-6.5859,-6.382,-5.9088,-5.3087,0.0,0.0,0.0,0.0,0.0,0.0,0.0,0.0,0.0,0.0,0.0,0.0,0.0,0.0,0.0,0.0,0.0,0.0,0.0,0.0,0.0,0.0,0.0,0.0,0.0,-5.883,-5.7599,-5.9204,-6.3308,-6.3308,-6.4243,-6.5897,-6.5897,-6.5897,-6.5897,-6.5897,-6.5897,-6.5897,-6.5897,-6.6167,-6.6667,-6.7936,-6.8706,-6.9206,0.0,-5.8672,0.0,0.0,-6.5976,0.0,-7.4726,-8.0976,-8.4648,-8.2656,-8.2969,-8.3398,-8.3398,-8.5859,-8.7187,-8.6445,-8.3945,-8.2851,-8.3945,-8.1562,-8.0859,-8.2461,-8.2539,-8.0898,-7.7344,-7.7578,-7.3867,0.0,-5.9883,-5.3906,-4.8008,-4.1836,-3.9219,0.0,0.0,0.0,0.0,0.0,-6.7883,-7.1003,-7.5404,-7.6985,-7.6657,-7.6642,-7.6534,-7.6348,-7.6185,-7.6134,-7.6121,-7.6079,-7.6048,-7.6015,-7.6015,-7.5515,-7.4822,-7.4014,-7.3168,-7.2283,-7.1398,-7.1052,-7.0898,-7.0898,-7.0898,-7.0706,-6.9898,-6.9066,-6.8192,-6.7357,-6.6248,-6.3863,-5.8597,-5.4583,0.0,0.0,0.0,0.0,0.0,0.0,0.0,0.0,0.0,0.0,0.0,0.0,0.0,0.0,0.0,0.0,-3.2122,-3.5045,0.0,0.0,0.0,0.0,-5.2626,0.0,-5.4741,0.0,-5.7253,-5.9204,-6.3308,-6.3308,-6.4243,-6.5897,-6.5897,-6.5897,-6.5897,-6.5897,-6.5897,-6.5897,-6.5897,-6.6397,-6.7205,-6.809,-6.8936,-6.9821,0.0,0.0,0.0,0.0,0.0,0.0,0.0,-8.2148,-8.3672,-8.6523,-8.6953,-8.6992,-8.6992,-8.7304,-8.6211,-8.3047,-8.5312,-8.4023,-7.7305,-8.2265,-8.3515,-7.918,-8.1875,-8.2929,-8.1719,-8.0234,-7.6797,0.0,0.0,-5.8047,-4.9883,-4.6055,-4.5547,0.0,0.0,0.0,0.0,-6.6914,-7.0781,-7.5428,-7.7302,-7.7575,-7.693,-7.7527,-7.726,-7.6552,-7.6529,-7.6529,-7.6535,-7.6338,-7.6135,-7.6015,-7.6015,-7.5938,-7.5707,-7.4861,-7.4014,-7.3206,-7.2322,-7.1514,-7.0898,-7.0898,-7.0898,-7.0706,-6.9898,-6.9123,-6.8344,-6.7541,-6.5583,-6.3113,-6.026,-5.803,-5.48,0.0,0.0,0.0,0.0,0.0,0.0,0.0,0.0,0.0,0.0,0.0,0.0,0.0,0.0,0.0,0.0,-3.2891,0.0,-4.1808,0.0,-4.674,-5.0904,-5.2433,0.0,-6.0435,-5.8099,-5.9204,-6.3308,-6.3308,-6.4243,-6.5897,-6.5897,-6.5897,-6.5897,-6.5897,-6.5897,-6.5897,-6.5897,-6.6397,-6.7205,-6.809,-6.8936,-6.9821,0.0,0.0,0.0,0.0,0.0,0.0,0.0,-8.4062,-8.5937,-8.7304,-8.75,-8.75,-8.75,-8.75,-8.6953,-8.5547,-8.6719,-8.6172,-8.3086,-8.4961,-8.5039,-8.2461,-8.3164,-8.3203,-8.2304,-8.1094,-7.8476,0.0,0.0,-5.9648,-5.3164,-4.9219,0.0,0.0,0.0,-6.2344,-6.664,-7.043,-7.3828,-7.6836,-7.8431,-7.8894,-7.8616,-7.8737,-7.8296,-7.754,-7.7403,-7.7049,-7.6606,-7.6518,-7.6359,-7.6147,-7.6048,-7.6093,-7.5993,-7.5008,-7.4551,-7.4062,-7.2583,-7.1937,-7.1552,-7.1014,-7.0979,-7.1008,-7.066,-6.9673,-6.8684,-6.8373,-6.5906,-6.3507,-6.2468,-5.9587,-5.6557,0.0,0.0,0.0,0.0,0.0,0.0,0.0,0.0,0.0,0.0,0.0,0.0,0.0,0.0,0.0,0.0,0.0,0.0,-4.2393,0.0,-4.9125,-5.4434,-5.5164,-5.728,-6.0781,-5.9781,-6.0704,-6.3308,-6.3308,-6.4243,-6.5897,-6.5897,-6.5897,-6.5897,-6.5897,-6.5897,-6.5897,-6.5897,-6.6705,-6.7936,-6.8282,-6.9283,-7.0475,-7.7734,0.0,-7.4883,0.0,-7.9258,-8.0703,-8.2109,-8.5273,-8.7148,-8.6094,-8.6875,-8.75,-8.75,-8.75,-8.7109,-8.6054,-8.6914,-8.664,-8.4609,-8.5781,-8.5742,-8.3828,-8.3906,0.0,-8.2695,-8.1836,-7.9961,-7.7031,-7.039,0.0,-5.9023,0.0,0.0,0.0,-6.3945,-6.7461,-7.0195,-7.4101,-7.6601,-7.8047,-7.9492,-7.9922,-7.9726,-7.9825,-7.9379,-7.8591,-7.8208,-7.7667,-7.7116,-7.6799,-7.6582,-7.6448,-7.6243,-7.6261,-7.6224,-7.5473,-7.5177,-7.48,-7.3474,-7.2747,-7.2244,-7.1626,-7.1355,-7.129,-7.129,-7.0105,-6.8844,-6.8417,-6.5966,-6.3939,-6.3939,-6.1075,-5.8306,-5.7151,0.0,0.0,0.0,0.0,0.0,0.0,-4.3932,-4.1893,0.0,0.0,0.0,0.0,0.0,0.0,0.0,0.0,0.0,0.0,0.0,0.0,0.0,0.0,-5.755,-6.0781,-6.0781,-6.1666,-6.332,-6.382,-6.4743,-6.5897,-6.5897,-6.5897,-6.5897,-6.5897,-6.5897,-6.5897,-6.5897,-6.6936,-6.8385,-6.8385,-6.9475,-7.0898,-8.2031,-8.3554,-8.5,-8.5898,-8.6797,-8.6211,-8.2812,-8.5273,-8.625,-8.2812,-8.5351,-8.75,-8.75,-8.75,-8.6094,-8.2656,-8.5508,-8.4609,-7.7773,-8.3711,-8.5547,0.0,0.0,-8.4492,-8.3594,-8.2734,-8.1406,-7.9648,0.0,0.0,-6.8008,0.0,-6.5508,-6.8203,-7.164,-7.4648,-7.7148,-7.8047,-7.8906,-7.9765,-8.0625,-8.0469,-7.9805,-8.0664,-8.0429,-7.957,-7.8789,-7.8476,-7.8319,-7.726,-7.688,-7.686,-7.6677,-7.6575,-7.6575,-7.6575,-7.596,-7.5305,-7.5259,-7.4053,-7.2808,-7.2769,-7.2139,-7.1517,-7.1517,-7.0313,-6.8742,-6.7224,-6.5508,-6.4297,-6.4297,-6.2755,-6.0336,-5.6957,0.0,0.0,0.0,0.0,0.0,0.0,-4.1162,-3.9046,-4.1577,0.0,0.0,0.0,0.0,0.0,0.0,0.0,0.0,-4.1654,-4.1846,0.0,-5.0712,-5.2433,-5.578,-6.0781,-6.0781,-6.1666,-6.3346,-6.5089,-6.5859,-6.5897,-6.5897,-6.5897,-6.5897,-6.5897,-6.5897,-6.5897,-6.5897,-6.6936,-6.8385,-6.8385,-6.9475,-7.0898,-7.9101,-8.2578,-8.5312,-8.3789,-8.5742,-8.7148,-8.6015,-8.6797,-8.7109,-8.5976,-8.6797,-8.75,-8.75,-8.75,-8.7031,0.0,-8.4687,-8.4023,0.0,-8.4062,-8.414,-8.4531,-8.25,-8.1211,-8.0937,-7.9531,-7.8555,-7.8008,0.0,0.0,0.0,-6.9062,-7.0703,-7.4414,-7.6094,-7.7617,-7.8945,-7.9844,-8.0351,-8.0664,-8.1523,-8.1719,-8.1484,-8.1797,-8.1367,-8.0547,-8.0312,-7.9805,-7.9179,-7.8276,-7.8001,-7.7881,-7.7202,-7.6926,-7.677,-7.6618,-7.6514,-7.6225,-7.5495,-7.4488,-7.3469,-7.2931,-7.2195,-7.1638,-7.1638,-7.0465,-6.894,-6.7265,-6.5976,-6.5,-6.4414,-6.3318,-6.1358,-5.7862,0.0,0.0,0.0,0.0,0.0,0.0,0.0,-4.3085,0.0,-4.1462,0.0,0.0,0.0,0.0,0.0,0.0,0.0,0.0,-4.8663,0.0,-5.4983,-5.5521,-5.7473,-6.0781,-6.0781,-6.1666,-6.3346,-6.5128,-6.5897,-6.5897,-6.5897,-6.5897,-6.5897,-6.5897,-6.5897,-6.5897,-6.5897,-6.6936,-6.8385,-6.8385,-6.9475,-7.0898,-8.0898,-8.3867,-8.6172,-8.4531,-8.6054,-8.6914,-8.5156,-8.6367,-8.6875,-8.5156,-8.6406,-8.75,-8.75,-8.75,0.0,-8.75,-8.5508,-8.5195,-8.7344,-8.5469,-8.4961,-8.6601,-8.3789,-8.1992,-8.164,0.0,0.0,-7.9101,-7.7695,-7.6172,-7.457,-7.4219,-7.5703,-7.8633,-7.9219,-7.9883,-8.0703,-8.125,-8.1484,-8.1523,-8.207,-8.2304,-8.2304,-8.2304,-8.1953,-8.1445,-8.1133,-8.0664,-8.0078,-7.9219,-7.8945,-7.8789,-7.7969,-7.7611,-7.7425,-7.6977,-7.6926,-7.6875,-7.6197,-7.54,-7.4498,-7.3684,-7.287,-7.2121,-7.1458,-7.0345,-6.9062,-6.7656,-6.6445,-6.5312,-6.4453,-6.3594,-6.2187,-5.9638,-6.0158,-5.9708,0.0,0.0,0.0,0.0,0.0,0.0,0.0,-4.6009,0.0,0.0,0.0,0.0,0.0,0.0,0.0,-4.774,-5.1548,0.0,-5.6983,-5.6983,-5.8292,-6.0819,-6.1435,-6.2474,-6.3858,-6.5243,-6.5897,-6.5897,-6.5897,-6.5897,-6.5897,-6.5897,-6.5897,-6.5897,-6.5897,-6.6936,-6.8385,-6.8385,-6.9475,-7.0898,-8.5781,-8.6679,0.0,0.0,-8.7383,0.0,-8.1758,-8.4726,-8.5937,-8.164,-8.4844,-8.75,-8.75,-8.75,-8.75,-8.75,0.0,0.0,0.0,-8.7265,-8.7265,-8.75,-8.6445,0.0,-8.4726,-8.375,-8.2929,-8.2304,-8.1484,-8.1094,-8.1054,-8.0273,-8.0312,-8.1094,-8.1094,-8.1523,-8.2304,-8.2304,-8.2304,-8.2304,-8.2304,-8.2304,-8.2304,-8.2304,-8.2304,-8.2187,-8.1367,-8.1094,-8.0976,-8.0078,-7.9805,-7.9648,-7.8828,-7.8555,-7.832,-7.7461,-7.7187,-7.7187,-7.7187,-7.6562,-7.5703,-7.4883,-7.3984,-7.2851,-7.1094,-7.0078,-6.9258,-6.8398,-6.6914,-6.5469,-6.4492,-6.3633,-6.2773,-6.1836,-6.0879,-5.9589,-5.7757,0.0,0.0,0.0,0.0,0.0,0.0,-5.0029,-5.0596,0.0,0.0,0.0,0.0,0.0,-4.4932,-4.9856,-5.1625,-5.4049,-5.7214,-5.7253,-5.8484,-6.0896,-6.2551,-6.3782,-6.4628,-6.5513,-6.5897,-6.5897,-6.5897,-6.5897,-6.5897,-6.5897,-6.5897,-6.5897,-6.5974,-6.6974,-6.8398,-6.8475,-6.9513,-7.0898,0.0,0.0,-8.6875,-8.4883,-8.6172,-8.7148,-8.6015,-8.6797,-8.7109,-8.6015,-8.6836,-8.75,-8.75,-8.75,-8.75,-8.75,-8.5078,-8.4648,-8.7344,-8.5,-8.4726,-8.7383,-8.4101,-8.2461,-8.289,-8.082,-8.0547,-8.2304,-8.2109,-8.1992,-8.1992,-8.1797,-8.1797,-8.1992,-8.1992,-8.2109,-8.2304,-8.2304,-8.2304,-8.2304,-8.2304,-8.2304,-8.2304,-8.2304,-8.2304,-8.2265,-8.207,-8.1992,-8.1875,-8.0976,-8.0703,-8.0547,-7.9687,-7.8984,-7.832,-7.7461,-7.7187,-7.7187,-7.7187,-7.6562,-7.5859,-7.5625,-7.4453,-7.2851,-7.1094,-7.0547,-6.9961,-6.8515,-6.7851,-6.6914,-6.4726,-6.414,-6.3476,-6.1953,-6.0879,-5.9159,-5.6155,-5.4874,0.0,0.0,-5.0992,-5.1942,-5.2136,-5.3571,-5.3356,0.0,0.0,0.0,0.0,0.0,-5.2933,-5.6088,-5.7819,-5.9088,-5.9896,-5.9896,-6.0562,-6.1793,-6.282,-6.3782,-6.4628,-6.5513,-6.5897,-6.5897,-6.5897,-6.5897,-6.5897,-6.5897,-6.5897,-6.5974,-6.659,-6.7475,-6.8475,-6.9167,-7.0014,-7.0898,-8.3554,-8.5547,-8.7031,-8.5625,-8.6562,-8.75,-8.75,-8.75,-8.75,-8.75,-8.75,-8.75,-8.75,-8.75,-8.75,-8.75,-8.5781,-8.5469,-8.7383,-8.5742,-8.5508,-8.7422,-8.5234,-8.4023,-8.4062,-8.2344,-8.1719,-8.2304,-8.2304,-8.2304,-8.2304,-8.2304,-8.2304,-8.2304,-8.2304,-8.2304,-8.2304,-8.2304,-8.2304,-8.2304,-8.2304,-8.2304,-8.2304,-8.2304,-8.2304,-8.2304,-8.2304,-8.2304,-8.2226,-8.1758,-8.1601,-8.1445,-8.0586,-8.0,-7.9453,-7.8594,-7.7812,-7.7187,-7.7187,-7.6836,-7.6289,-7.5508,-7.4297,-7.2969,-7.1601,-7.0976,-7.043,-6.9531,-6.8711,-6.7539,-6.5312,-6.457,-6.3594,-6.1445,-5.933,-5.7013,-5.4397,-5.3284,0.0,-5.1179,-5.3263,-5.5036,-5.5754,-5.7207,-5.7062,-5.4446,0.0,0.0,-5.5308,-5.5549,-5.6626,-5.8781,-6.0127,-6.0781,-6.0781,-6.1204,-6.2024,-6.3243,-6.3705,-6.4359,-6.5205,-6.5667,-6.5897,-6.5897,-6.5897,-6.5897,-6.5897,-6.5897,-6.5897,-6.5974,-6.6782,-6.7628,-6.85,-6.9398,-7.0206,-7.0898,-8.75,-8.75,-8.75,-8.75,-8.75,-8.75,-8.75,-8.75,-8.75,-8.75,-8.75,-8.75,-8.75,-8.75,-8.75,-8.75,-8.75,-8.75,-8.75,-8.75,-8.75,-8.75,-8.75,-8.7148,-8.6406,-8.5547,-8.4258,-8.25,-8.25,-8.2422,-8.2304,-8.2304,-8.2304,-8.2304,-8.2304,-8.2304,-8.2304,-8.2304,-8.2304,-8.2304,-8.2304,-8.2304,-8.2304,-8.2304,-8.2304,-8.2304,-8.2304,-8.2304,-8.2304,-8.2304,-8.2304,-8.2187,-8.1445,-8.1094,-8.0859,-8.0117,-7.8789,-7.7539,-7.7422,-7.7305,-7.6797,-7.5195,-7.414,-7.3281,-7.2383,-7.1523,-7.0859,-7.0742,-6.9453,-6.7851,-6.6133,-6.4961,-6.3398,-6.0664,-5.7578,-5.4805,-5.2773,0.0,-5.1599,-5.2776,-5.5452,-5.7684,-5.9012,-6.0169,-6.0303,-5.9,-5.7979,0.0,0.0,-5.8468,-5.8418,-5.9887,-6.0612,-6.105,-6.1166,-6.1897,-6.3051,-6.4589,-6.4589,-6.5051,-6.5897,-6.5897,-6.5897,-6.5897,-6.5897,-6.5897,-6.5897,-6.5897,-6.5974,-6.6167,-6.6974,-6.7821,-6.8706,-6.9552,-7.0321,-7.0898,-8.75,-8.75,-8.75,-8.75,-8.75,-8.75,-8.75,-8.75,-8.75,-8.75,-8.75,-8.75,-8.75,-8.75,-8.75,-8.75,-8.75,-8.75,-8.75,-8.75,-8.75,-8.75,-8.75,-8.7422,-8.7304,-8.6445,-8.5156,-8.3398,-8.3398,-8.3008,-8.2304,-8.2304,-8.2304,-8.2304,-8.2304,-8.2304,-8.2304,-8.2304,-8.2304,-8.2304,-8.2304,-8.2304,-8.2304,-8.2304,-8.2304,-8.2304,-8.2304,-8.2304,-8.2304,-8.2304,-8.2304,-8.2265,-8.2148,-8.1601,-8.0976,-8.0859,-8.0078,-7.914,-7.8476,-7.7773,-7.6953,-7.5937,-7.5039,-7.418,-7.3281,-7.2422,-7.1601,-7.0859,-6.9922,-6.8711,-6.6992,-6.539,-6.3203,-5.9922,-5.7695,-5.5273,-5.2031,0.0,-5.5429,-5.4921,-5.8332,-6.0795,-6.1059,-6.0492,-6.0268,-6.0588,-5.9848,-5.9791,-6.0711,-6.112,-6.1483,-6.1853,-6.188,-6.2204,-6.2897,-6.3051,-6.3628,-6.4589,-6.4589,-6.5051,-6.5897,-6.5897,-6.5897,-6.5897,-6.5897,-6.5897,-6.5897,-6.5897,-6.6282,-6.7013,-6.7859,-6.8744,-6.959,-7.0398,-7.0783,-7.0898,-8.75,-8.75,-8.75,-8.75,-8.75,-8.75,-8.75,-8.75,-8.75,-8.75,-8.75,-8.75,-8.75,-8.75,-8.75,-8.75,-8.75,-8.75,-8.75,-8.75,-8.75,-8.75,-8.75,-8.7265,-8.6797,-8.6406,-8.5586,-8.4297,-8.3828,-8.3398,-8.3008,-8.2539,-8.2304,-8.2304,-8.2304,-8.2304,-8.2304,-8.2304,-8.2304,-8.2304,-8.2304,-8.2304,-8.2304,-8.2304,-8.2304,-8.2304,-8.2304,-8.2304,-8.2304,-8.2304,-8.2304,-8.2304,-8.2304,-8.2031,-8.1719,-8.1719,-8.0429,-7.8984,-7.8594,-7.7851,-7.6992,-7.6133,-7.5586,-7.5078,-7.4219,-7.332,-7.2578,-7.2187,-7.1015,-6.9609,-6.789,-6.6172,-6.418,-6.164,-5.8633,0.0,0.0,-5.5586,-5.6601,-5.668,-6.0035,-6.2488,-6.2956,-6.2515,-6.2323,-6.2647,-6.2212,-6.2119,-6.2507,-6.2751,-6.2935,-6.3011,-6.2827,-6.3166,-6.4012,-6.4012,-6.4436,-6.5282,-6.5282,-6.5513,-6.5897,-6.5897,-6.5897,-6.5897,-6.5897,-6.5897,-6.5936,-6.6359,-6.6782,-6.7244,-6.859,-6.936,-6.9821,-7.0591,-7.0898,-7.0898,-8.75,-8.75,-8.75,-8.75,-8.75,-8.75,-8.75,-8.75,-8.75,-8.75,-8.75,-8.75,-8.75,-8.75,-8.75,-8.75,-8.75,-8.75,-8.75,-8.75,-8.75,-8.75,-8.75,-8.7187,-8.6523,-8.6484,-8.6094,-8.5195,-8.4531,-8.3984,-8.3594,-8.2929,-8.25,-8.2304,-8.2304,-8.2304,-8.2304,-8.2304,-8.2304,-8.2304,-8.2304,-8.2304,-8.2304,-8.2304,-8.2304,-8.2304,-8.2304,-8.2304,-8.2304,-8.2304,-8.2304,-8.2304,-8.2304,-8.2304,-8.2304,-8.2304,-8.0781,-7.8984,-7.8594,-7.8008,-7.7305,-7.6406,-7.6055,-7.5703,-7.5039,-7.4219,-7.3555,-7.3359,-7.207,-7.0547,-6.9062,-6.7383,-6.5508,-6.3359,0.0,0.0,0.0,-5.7383,-5.789,-5.8945,-6.1562,-6.3555,-6.4258,-6.4206,-6.414,-6.4085,-6.3978,-6.3886,-6.3886,-6.3913,-6.4028,-6.4222,-6.3825,-6.4012,-6.4897,-6.4897,-6.5243,-6.5897,-6.5897,-6.5897,-6.5897,-6.5897,-6.5897,-6.5897,-6.5897,-6.6013,-6.6244,-6.6859,-6.7321,-6.7821,-6.9167,-6.9821,-7.0052,-7.0667,-7.0898,-7.0898,-8.75,-8.75,-8.75,-8.75,-8.75,-8.75,-8.75,-8.75,-8.75,-8.75,-8.75,-8.75,-8.75,-8.75,-8.75,-8.75,-8.75,-8.75,-8.75,-8.75,-8.75,-8.75,-8.75,-8.7461,-8.7422,-8.7383,-8.6992,-8.6094,-8.6054,-8.5195,-8.3594,-8.3515,-8.3086,-8.2304,-8.2304,-8.2304,-8.2304,-8.2304,-8.2304,-8.2304,-8.2304,-8.2304,-8.2304,-8.2304,-8.2304,-8.2304,-8.2304,-8.2304,-8.2304,-8.2304,-8.2304,-8.2304,-8.2304,-8.2304,-8.2304,-8.2304,-8.1601,-8.0469,-7.8906,-7.8437,-7.8203,-7.7305,-7.6484,-7.5898,-7.582,-7.5117,-7.4297,-7.3476,-7.2578,-7.1601,-7.0703,-6.914,-6.6914,-6.3555,0.0,0.0,-5.9219,-5.9648,-6.0742,-6.2422,-6.3555,-6.4219,-6.4297,-6.4297,-6.4212,-6.4127,-6.4079,-6.4076,-6.4076,-6.467,-6.5362,-6.6173,-6.509,-6.4936,-6.5782,-6.5782,-6.582,-6.5897,-6.5897,-6.5897,-6.5897,-6.5897,-6.5897,-6.5897,-6.5897,-6.632,-6.7013,-6.709,-6.8052,-6.9513,-6.9667,-7.0167,-7.0821,-7.0898,-7.0898,-7.0898,-8.75,-8.75,-8.75,-8.75,-8.75,-8.75,-8.75,-8.75,-8.75,-8.75,-8.75,-8.75,-8.75,-8.75,-8.75,-8.75,-8.75,-8.75,-8.75,-8.75,-8.75,-8.75,-8.75,-8.75,-8.75,-8.75,-8.7344,-8.6992,-8.6445,-8.5859,-8.5195,-8.4101,-8.3437,-8.3086,-8.2539,-8.2304,-8.2304,-8.2304,-8.2304,-8.2304,-8.2304,-8.2304,-8.2304,-8.2304,-8.2304,-8.2304,-8.2304,-8.2304,-8.2304,-8.2304,-8.2304,-8.2304,-8.2304,-8.2304,-8.2304,-8.2304,-8.207,-8.1562,-8.0351,-7.9297,-7.8437,-7.8086,-7.7344,-7.6719,-7.6719,-7.6015,-7.5312,-7.4961,-7.3789,-7.2539,-7.168,-7.0117,-6.8359,-6.6523,0.0,-6.3906,-6.3242,-6.2969,-6.3242,-6.4453,-6.4883,-6.5312,-6.5859,-6.5898,-6.5898,-6.5852,-6.5852,-6.5852,-6.5852,-6.5953,-6.6137,-6.6393,-6.598,-6.5818,-6.6035,-6.6035,-6.5986,-6.5897,-6.5897,-6.5897,-6.5897,-6.5897,-6.6167,-6.6628,-6.6628,-6.7128,-6.7936,-6.8475,-6.909,-6.9744,-7.0244,-7.0629,-7.0898,-7.0898,-7.0898,-7.0898,-8.75,-8.75,-8.75,-8.75,-8.75,-8.75,-8.75,-8.75,-8.75,-8.75,-8.75,-8.75,-8.75,-8.75,-8.75,-8.75,-8.75,-8.75,-8.75,-8.75,-8.75,-8.75,-8.75,-8.75,-8.75,-8.75,-8.75,-8.75,-8.6914,-8.6484,-8.6172,-8.4961,-8.4101,-8.3554,-8.2969,-8.2578,-8.2304,-8.2304,-8.2304,-8.2304,-8.2304,-8.2304,-8.2304,-8.2304,-8.2304,-8.2304,-8.2304,-8.2304,-8.2304,-8.2304,-8.2304,-8.2304,-8.2304,-8.2304,-8.2304,-8.2304,-8.2304,-8.2187,-8.1562,-8.0351,-7.914,-7.8633,-7.8047,-7.7539,-7.7265,-7.6758,-7.6211,-7.5976,-7.4961,-7.3789,-7.2617,-7.1445,-7.0273,-6.914,-6.7969,-6.7109,-6.6875,-6.6289,-6.6015,-6.6367,-6.6406,-6.6523,-6.6875,-6.6914,-6.6914,-6.6914,-6.6914,-6.6914,-6.6914,-6.6785,-6.6667,-6.6564,-6.656,-6.6457,-6.6244,-6.622,-6.6137,-6.6074,-6.6074,-6.62,-6.6471,-6.6471,-6.6896,-6.768,-6.768,-6.8171,-6.9021,-6.9601,-6.9957,-7.0208,-7.0786,-7.0953,-7.0898,-7.0898,-7.0898,-7.0898,-8.75,-8.75,-8.75,-8.75,-8.75,-8.75,-8.75,-8.75,-8.75,-8.75,-8.75,-8.75,-8.75,-8.75,-8.75,-8.75,-8.75,-8.75,-8.75,-8.75,-8.75,-8.75,-8.75,-8.75,-8.75,-8.75,-8.75,-8.75,-8.75,-8.707,-8.6211,-8.6211,-8.5273,-8.3633,-8.3594,-8.3125,-8.2304,-8.2304,-8.2304,-8.2304,-8.2304,-8.2304,-8.2304,-8.2304,-8.2304,-8.2304,-8.2304,-8.2304,-8.2304,-8.2304,-8.2304,-8.2304,-8.2304,-8.2304,-8.2304,-8.2304,-8.2304,-8.2304,-8.2304,-8.1679,-8.0625,-7.8945,-7.8515,-7.8281,-7.7422,-7.7187,-7.6953,-7.6094,-7.5898,-7.5351,-7.3633,-7.332,-7.2734,-7.0976,-7.0703,-7.043,-6.9609,-6.9453,-6.9101,-6.832,-6.8203,-6.7851,-6.6992,-6.6914,-6.6914,-6.6914,-6.6914,-6.6914,-6.6914,-6.6914,-6.6914,-6.6914,-6.6914,-6.6829,-6.6619,-6.6468,-6.6387,-6.6426,-6.6426,-6.686,-6.7723,-6.7723,-6.8151,-6.8897,-6.8897,-6.9403,-7.0214,-7.0214,-7.0596,-7.1182,-7.1182,-7.1085,-7.0912,-7.0912,-7.0912,-7.0898,-8.75,-8.75,-8.75,-8.75,-8.75,-8.75,-8.75,-8.75,-8.75,-8.75,-8.75,-8.75,-8.75,-8.75,-8.75,-8.75,-8.75,-8.75,-8.75,-8.75,-8.75,-8.75,-8.75,-8.75,-8.75,-8.75,-8.75,-8.75,-8.75,-8.7383,-8.7109,-8.6484,-8.5937,-8.5351,-8.414,-8.3476,-8.3164,-8.2578,-8.2304,-8.2304,-8.2304,-8.2304,-8.2304,-8.2304,-8.2304,-8.2304,-8.2304,-8.2304,-8.2304,-8.2304,-8.2304,-8.2304,-8.2304,-8.2304,-8.2304,-8.2304,-8.2304,-8.2304,-8.2304,-8.2109,-8.164,-8.0547,-7.9375,-7.8437,-7.8164,-7.7656,-7.7148,-7.6875,-7.6328,-7.5742,-7.5234,-7.4101,-7.293,-7.1797,-7.1094,-7.043,-6.9609,-6.9492,-6.9375,-6.914,-6.9062,-6.8945,-6.875,-6.8711,-6.8711,-6.8672,-6.8125,-6.8086,-6.8672,-6.8125,-6.8086,-6.8633,-6.8633,-6.8632,-6.8589,-6.7208,-6.6805,-6.7327,-6.7327,-6.7723,-6.8546,-6.8546,-6.9007,-6.9824,-6.9824,-7.0324,-7.1095,-7.1095,-7.1216,-7.1397,-7.1397,-7.1356,-7.1335,-7.1335,-7.1223,-7.1092,-8.75,-8.75,-8.75,-8.75,-8.75,-8.75,-8.75,-8.75,-8.75,-8.75,-8.75,-8.75,-8.75,-8.75,-8.75,-8.75,-8.75,-8.75,-8.75,-8.75,-8.75,-8.75,-8.75,-8.75,-8.75,-8.75,-8.75,-8.75,-8.75,-8.75,-8.75,-8.6953,-8.6523,-8.6133,-8.4726,-8.3906,-8.3554,-8.2656,-8.2304,-8.2304,-8.2304,-8.2304,-8.2304,-8.2304,-8.2304,-8.2304,-8.2304,-8.2304,-8.2304,-8.2304,-8.2304,-8.2304,-8.2304,-8.2304,-8.2304,-8.2304,-8.2304,-8.2304,-8.2304,-8.2304,-8.2187,-8.164,-8.0508,-7.9336,-7.8633,-7.8086,-7.7617,-7.7265,-7.6797,-7.6328,-7.5976,-7.5039,-7.3945,-7.2695,-7.207,-7.1445,-7.0625,-7.0508,-7.0351,-7.0039,-6.9922,-6.9805,-6.9492,-6.9492,-6.9492,-6.9453,-6.8945,-6.8906,-6.9414,-6.8984,-6.8906,-6.9375,-6.9414,-6.9414,-6.9414,-6.8271,-6.7927,-6.8425,-6.8425,-6.8816,-6.96,-6.96,-7.0107,-7.0922,-7.0922,-7.1191,-7.1694,-7.1694,-7.1668,-7.1583,-7.1583,-7.1543,-7.1478,-7.1478,-7.1404,-7.1317,-8.75,-8.75,-8.75,-8.75,-8.75,-8.75,-8.75,-8.75,-8.75,-8.75,-8.75,-8.75,-8.75,-8.75,-8.75,-8.75,-8.75,-8.75,-8.75,-8.75,-8.75,-8.75,-8.75,-8.75,-8.75,-8.75,-8.75,-8.75,-8.75,-8.75,-8.75,-8.75,-8.707,-8.6289,-8.539,-8.457,-8.3789,-8.289,-8.25,-8.2422,-8.2422,-8.2383,-8.2304,-8.2304,-8.2304,-8.2304,-8.2304,-8.2304,-8.2304,-8.2304,-8.2304,-8.2304,-8.2304,-8.2304,-8.2304,-8.2304,-8.2304,-8.2304,-8.2304,-8.2304,-8.2304,-8.2304,-8.1719,-8.0703,-7.9101,-7.8594,-7.8281,-7.7461,-7.7265,-7.6953,-7.6172,-7.5937,-7.539,-7.3789,-7.3476,-7.3125,-7.2226,-7.2109,-7.1797,-7.0937,-7.082,-7.0508,-6.9726,-6.9687,-6.9726,-6.9726,-6.9609,-6.9531,-6.9648,-6.9609,-6.9609,-6.9648,-6.9687,-6.9687,-6.9648,-6.9648,-6.9609,-6.9609,-6.9609,-7.0039,-7.082,-7.082,-7.125,-7.1992,-7.1992,-7.1992,-7.1992,-7.1992,-7.1906,-7.1741,-7.1741,-7.1647,-7.153,-7.153,-7.1518,-7.1478,-8.75,-8.75,-8.75,-8.75,-8.75,-8.75,-8.75,-8.75,-8.75,-8.75,-8.75,-8.75,-8.75,-8.75,-8.75,-8.75,-8.75,-8.75,-8.75,-8.75,-8.75,-8.75,-8.75,-8.75,-8.75,-8.75,-8.75,-8.75,-8.75,-8.75,-8.75,-8.75,-8.7383,-8.7187,-8.6328,-8.582,-8.5586,-8.4726,-8.3945,-8.332,-8.332,-8.289,-8.2304,-8.2304,-8.2304,-8.2304,-8.2304,-8.2304,-8.2304,-8.2304,-8.2304,-8.2304,-8.2304,-8.2304,-8.2304,-8.2304,-8.2304,-8.2304,-8.2304,-8.2304,-8.2304,-8.2304,-8.2148,-8.1758,-8.0703,-7.9453,-7.8437,-7.8242,-7.7695,-7.7148,-7.6953,-7.6367,-7.5781,-7.539,-7.4765,-7.4023,-7.3125,-7.3008,-7.2695,-7.1836,-7.1719,-7.164,-7.1445,-7.1445,-7.1445,-7.1445,-7.082,-7.0703,-7.1406,-7.0781,-7.0742,-7.1406,-7.1445,-7.1445,-7.1445,-7.1445,-7.1094,-7.043,-7.043,-7.0898,-7.1719,-7.1719,-7.1836,-7.1992,-7.1992,-7.1992,-7.1992,-7.1992,-7.1953,-7.191,-7.191,-7.1908,-7.1902,-7.1902,-7.1795,-7.1642,-8.75,-8.75,-8.75,-8.75,-8.75,-8.75,-8.75,-8.75,-8.75,-8.75,-8.75,-8.75,-8.75,-8.75,-8.75,-8.75,-8.75,-8.75,-8.75,-8.75,-8.75,-8.75,-8.75,-8.75,-8.75,-8.75,-8.75,-8.75,-8.75,-8.75,-8.75,-8.75,-8.75,-8.7461,-8.6601,-8.6211,-8.6133,-8.5273,-8.4648,-8.4219,-8.4219,-8.3945,-8.3554,-8.3554,-8.3281,-8.2929,-8.2929,-8.2656,-8.2304,-8.2304,-8.2304,-8.2304,-8.2304,-8.2304,-8.2304,-8.2304,-8.2304,-8.2304,-8.2304,-8.2304,-8.2304,-8.2304,-8.2304,-8.207,-8.1211,-8.0312,-7.957,-7.914,-7.8398,-7.7812,-7.7812,-7.7109,-7.6367,-7.5976,-7.5508,-7.4922,-7.4023,-7.3906,-7.3594,-7.2734,-7.2617,-7.2461,-7.2031,-7.1992,-7.1992,-7.1992,-7.1562,-7.1523,-7.1992,-7.1562,-7.1523,-7.1992,-7.1992,-7.1992,-7.1992,-7.1992,-7.1758,-7.1328,-7.1328,-7.1562,-7.1992,-7.1992,-7.1992,-7.1992,-7.1992,-7.1992,-7.1992,-7.1992,-7.1992,-7.1992,-7.1992,-7.1992,-7.1992,-7.1992,-7.1862,-7.1682,-8.75,-8.75,-8.75,-8.75,-8.75,-8.75,-8.75,-8.75,-8.75,-8.75,-8.75,-8.75,-8.75,-8.75,-8.75,-8.75,-8.75,-8.75,-8.75,-8.75,-8.75,-8.75,-8.75,-8.75,-8.75,-8.75,-8.75,-8.75,-8.75,-8.75,-8.75,-8.75,-8.75,-8.7461,-8.6758,-8.6406,-8.6367,-8.5664,-8.5273,-8.5117,-8.5117,-8.5039,-8.4883,-8.4883,-8.4453,-8.3828,-8.3828,-8.3242,-8.25,-8.2344,-8.2304,-8.2304,-8.2304,-8.2304,-8.2304,-8.2304,-8.2304,-8.2304,-8.2304,-8.2304,-8.2304,-8.2304,-8.2304,-8.2109,-8.1406,-8.1094,-8.0781,-8.0078,-7.9258,-7.8672,-7.8515,-7.789,-7.7148,-7.625,-7.6133,-7.582,-7.4922,-7.4805,-7.4492,-7.3633,-7.3398,-7.3008,-7.2305,-7.2109,-7.1992,-7.1992,-7.1992,-7.1992,-7.1992,-7.1992,-7.1992,-7.1992,-7.1992,-7.1992,-7.1992,-7.1992,-7.1992,-7.1992,-7.1992,-7.1992,-7.1992,-7.1992,-7.1992,-7.1992,-7.1992,-7.1992,-7.1992,-7.1992,-7.1992,-7.1992,-7.1992,-7.1992,-7.1992,-7.1992,-7.1906,-7.175,-8.75,-8.75,-8.75,-8.75,-8.75,-8.75,-8.75,-8.75,-8.75,-8.75,-8.75,-8.75,-8.75,-8.75,-8.75,-8.75,-8.75,-8.75,-8.75,-8.75,-8.75,-8.75,-8.75,-8.75,-8.75,-8.75,-8.75,-8.75,-8.75,-8.75,-8.75,-8.75,-8.75,-8.75,-8.7383,-8.7304,-8.7304,-8.7187,-8.6719,-8.6015,-8.6015,-8.5586,-8.4883,-8.4883,-8.4844,-8.4726,-8.4726,-8.414,-8.332,-8.2539,-8.2304,-8.2304,-8.2304,-8.2304,-8.2304,-8.2304,-8.2304,-8.2304,-8.2304,-8.2304,-8.2304,-8.2304,-8.2304,-8.2265,-8.2148,-8.1523,-8.0976,-8.0859,-8.0156,-7.9336,-7.8633,-7.8398,-7.8047,-7.7187,-7.7031,-7.6719,-7.5859,-7.5703,-7.539,-7.4531,-7.375,-7.3242,-7.3125,-7.2422,-7.1992,-7.1992,-7.1992,-7.1992,-7.1992,-7.1992,-7.1992,-7.1992,-7.1992,-7.1992,-7.1992,-7.1992,-7.1992,-7.1992,-7.1992,-7.1992,-7.1992,-7.1992,-7.1992,-7.1992,-7.1992,-7.1992,-7.1992,-7.1992,-7.1992,-7.1992,-7.1992,-7.1992,-7.1992,-7.1992,-7.1992,-7.1952,-8.75,-8.75,-8.75,-8.75,-8.75,-8.75,-8.75,-8.75,-8.75,-8.75,-8.75,-8.75,-8.75,-8.75,-8.75,-8.75,-8.75,-8.75,-8.75,-8.75,-8.75,-8.75,-8.75,-8.75,-8.75,-8.75,-8.75,-8.75,-8.75,-8.75,-8.75,-8.75,-8.75,-8.75,-8.75,-8.75,-8.75,-8.75,-8.7265,-8.6914,-8.6914,-8.6719,-8.6367,-8.6367,-8.6054,-8.5547,-8.5078,-8.4336,-8.3554,-8.3164,-8.2695,-8.2304,-8.2304,-8.2304,-8.2304,-8.2304,-8.2304,-8.2304,-8.2304,-8.2304,-8.2304,-8.2304,-8.2304,-8.2304,-8.2304,-8.1992,-8.1719,-8.1719,-8.1015,-8.0312,-7.9961,-7.914,-7.8359,-7.8008,-7.7539,-7.707,-7.668,-7.664,-7.6289,-7.543,-7.457,-7.4023,-7.4023,-7.3672,-7.3242,-7.2773,-7.2734,-7.25,-7.2031,-7.1992,-7.1992,-7.1992,-7.1992,-7.1992,-7.1992,-7.1992,-7.1992,-7.1992,-7.1992,-7.1992,-7.1992,-7.1992,-7.1992,-7.1992,-7.1992,-7.1992,-7.1992,-7.1992,-7.1992,-7.1992,-7.1992,-7.1992,-7.1992,-7.1992,-7.1992,-7.1992]},{"header":{"parameterUnit":"m.s-1","parameterCategory":1,"la1":30.6,"la2":28.766,"lo1":-90.7593,"lo2":-88.6598,"dy":0.0162,"dx":0.0183,"nx":116,"ny":114,"refTime":"2024-05-21T12:00:00:Z","depth":0,"parameterNumber":3,"parameterNumberName":"V-component_of_WINDS"},"data":[0.0,0.0,0.0,0.0,0.0,0.0,0.0,0.0,0.0,0.0,0.0,0.0,0.0,0.0,0.0,0.0,0.0,0.0,0.0,0.0,0.0,0.0,0.0,0.0,0.0,0.0,0.0,0.0,0.0,0.0,0.0,0.0,0.0,0.0,0.0,0.0,0.0,0.0,0.0,0.0,0.0,0.0,0.0,0.0,0.0,0.0,0.0,0.0,0.0,0.0,0.0,0.0,0.0,0.0,0.0,0.0,0.0,0.0,0.0,0.0,0.0,0.0,0.0,0.0,0.0,0.0,0.0,0.0,0.0,0.0,0.0,0.0,0.0,0.0,0.0,0.0,0.0,0.0,0.0,0.0,0.0,0.0,0.0,0.0,0.0,0.0,0.0,0.0,0.0,0.0,0.0,0.0,0.0,0.0,0.0,0.0,0.0,0.0,0.0,0.0,0.0,0.0,0.0,0.0,0.0,0.0,0.0,0.0,0.0,0.0,0.0,0.0,0.0,0.0,0.0,0.0,0.0,0.0,0.0,0.0,0.0,0.0,0.0,0.0,0.0,0.0,0.0,0.0,0.0,0.0,0.0,0.0,0.0,0.0,0.0,0.0,0.0,0.0,0.0,0.0,0.0,0.0,0.0,0.0,0.0,0.0,0.0,0.0,0.0,0.0,0.0,0.0,0.0,0.0,0.0,0.0,0.0,0.0,0.0,0.0,0.0,0.0,0.0,0.0,0.0,0.0,0.0,0.0,0.0,0.0,0.0,0.0,0.0,0.0,0.0,0.0,0.0,0.0,0.0,0.0,0.0,0.0,0.0,0.0,0.0,0.0,0.0,0.0,0.0,0.0,0.0,0.0,0.0,0.0,0.0,0.0,0.0,0.0,0.0,0.0,0.0,0.0,0.0,0.0,0.0,0.0,0.0,0.0,0.0,0.0,0.0,0.0,0.0,0.0,0.0,0.0,0.0,0.0,0.0,0.0,0.0,0.0,0.0,0.0,0.0,0.0,0.0,0.0,0.0,0.0,0.0,0.0,0.0,0.0,0.0,0.0,0.0,0.0,0.0,0.0,0.0,0.0,0.0,0.0,0.0,0.0,0.0,0.0,0.0,0.0,0.0,0.0,0.0,0.0,0.0,0.0,0.0,0.0,0.0,0.0,0.0,0.0,0.0,0.0,0.0,0.0,0.0,0.0,0.0,0.0,0.0,0.0,0.0,0.0,0.0,0.0,0.0,0.0,0.0,0.0,0.0,0.0,0.0,0.0,0.0,0.0,0.0,0.0,0.0,0.0,0.0,0.0,0.0,0.0,0.0,0.0,0.0,0.0,0.0,0.0,0.0,0.0,0.0,0.0,0.0,0.0,0.0,0.0,0.0,0.0,0.0,0.0,0.0,0.0,0.0,0.0,0.0,0.0,0.0,0.0,0.0,0.0,0.0,0.0,0.0,0.0,0.0,0.0,0.0,0.0,0.0,0.0,0.0,0.0,0.0,0.0,0.0,0.0,0.0,0.0,0.0,0.0,0.0,0.0,0.0,0.0,0.0,0.0,0.0,0.0,0.0,0.0,0.0,0.0,0.0,0.0,0.0,0.0,0.0,0.0,0.0,0.0,0.0,0.0,0.0,0.0,0.0,0.0,0.0,0.0,0.0,0.0,0.0,0.0,0.0,0.0,0.0,0.0,0.0,0.0,0.0,0.0,0.0,0.0,0.0,0.0,0.0,0.0,0.0,0.0,0.0,0.0,0.0,0.0,0.0,0.0,0.0,0.0,0.0,0.0,0.0,0.0,0.0,0.0,0.0,0.0,0.0,0.0,0.0,0.0,0.0,0.0,0.0,0.0,0.0,0.0,0.0,0.0,0.0,0.0,0.0,0.0,0.0,0.0,0.0,0.0,0.0,0.0,0.0,0.0,0.0,0.0,0.0,0.0,0.0,0.0,0.0,0.0,0.0,0.0,0.0,0.0,0.0,0.0,0.0,0.0,0.0,0.0,0.0,0.0,0.0,0.0,0.0,0.0,0.0,0.0,0.0,0.0,0.0,0.0,0.0,0.0,0.0,0.0,0.0,0.0,0.0,0.0,0.0,0.0,0.0,0.0,0.0,0.0,0.0,0.0,0.0,0.0,0.0,0.0,0.0,0.0,0.0,0.0,0.0,0.0,0.0,0.0,0.0,0.0,0.0,0.0,0.0,0.0,0.0,0.0,0.0,0.0,0.0,0.0,0.0,0.0,0.0,0.0,0.0,0.0,0.0,0.0,0.0,0.0,0.0,0.0,0.0,0.0,0.0,0.0,0.0,0.0,0.0,0.0,0.0,0.0,0.0,0.0,0.0,0.0,0.0,0.0,0.0,0.0,0.0,0.0,0.0,0.0,0.0,0.0,0.0,0.0,0.0,0.0,0.0,0.0,0.0,0.0,0.0,0.0,0.0,0.0,0.0,0.0,0.0,0.0,0.0,0.0,0.0,0.0,0.0,0.0,0.0,0.0,0.0,0.0,0.0,0.0,0.0,0.0,0.0,0.0,0.0,0.0,0.0,0.0,0.0,0.0,0.0,0.0,0.0,0.0,0.0,0.0,0.0,0.0,0.0,0.0,0.0,0.0,0.0,0.0,0.0,0.0,0.0,0.0,0.0,0.0,0.0,0.0,0.0,0.0,0.0,0.0,0.0,0.0,0.0,0.0,0.0,0.0,0.0,0.0,0.0,0.0,0.0,0.0,0.0,0.0,0.0,0.0,0.0,0.0,0.0,0.0,0.0,0.0,0.0,0.0,0.0,0.0,0.0,0.0,0.0,0.0,0.0,0.0,0.0,0.0,0.0,0.0,0.0,0.0,0.0,0.0,0.0,0.0,0.0,0.0,0.0,0.0,0.0,0.0,0.0,0.0,0.0,0.0,0.0,0.0,0.0,0.0,0.0,0.0,0.0,0.0,0.0,0.0,0.0,0.0,0.0,0.0,0.0,0.0,0.0,0.0,0.0,0.0,0.0,0.0,0.0,0.0,0.0,0.0,0.0,0.0,0.0,0.0,0.0,0.0,0.0,0.0,0.0,0.0,0.0,0.0,0.0,0.0,0.0,0.0,0.0,0.0,0.0,0.0,0.0,0.0,0.0,0.0,0.0,0.0,0.0,0.0,0.0,0.0,0.0,0.0,0.0,0.0,0.0,0.0,0.0,0.0,0.0,0.0,0.0,0.0,0.0,0.0,0.0,0.0,0.0,0.0,0.0,0.0,0.0,0.0,0.0,0.0,0.0,0.0,0.0,0.0,0.0,0.0,0.0,0.0,0.0,0.0,0.0,0.0,0.0,0.0,0.0,0.0,0.0,0.0,0.0,0.0,0.0,0.0,0.0,0.0,0.0,0.0,0.0,0.0,0.0,0.0,0.0,0.0,0.0,0.0,0.0,0.0,0.0,0.0,0.0,0.0,0.0,0.0,0.0,0.0,0.0,0.0,0.0,0.0,0.0,0.0,0.0,0.0,0.0,0.0,0.0,0.0,0.0,0.0,0.0,0.0,0.0,0.0,0.0,0.0,0.0,0.0,0.0,0.0,0.0,0.0,0.0,0.0,0.0,0.0,0.0,0.0,0.0,0.0,0.0,0.0,0.0,0.0,0.0,0.0,0.0,0.0,0.0,0.0,0.0,0.0,0.0,0.0,0.0,0.0,0.0,0.0,0.0,0.0,0.0,0.0,0.0,0.0,0.0,0.0,0.0,0.0,0.0,0.0,0.0,0.0,0.0,0.0,0.0,0.0,0.0,0.0,0.0,0.0,0.0,0.0,0.0,0.0,0.0,0.0,0.0,0.0,0.0,0.0,0.0,0.0,0.0,0.0,0.0,0.0,0.0,0.0,0.0,0.0,0.0,0.0,0.0,0.0,0.0,0.0,0.0,0.0,0.0,0.0,0.0,0.0,0.0,0.0,0.0,0.0,0.0,0.0,0.0,0.0,0.0,0.0,0.0,0.0,0.0,0.0,0.0,0.0,0.0,0.0,0.0,0.0,0.0,0.0,0.0,0.0,0.0,0.0,0.0,0.0,0.0,0.0,0.0,0.0,0.0,0.0,0.0,0.0,0.0,0.0,0.0,0.0,0.0,0.0,0.0,0.0,0.0,0.0,0.0,0.0,0.0,0.0,0.0,0.0,0.0,0.0,0.0,0.0,0.0,0.0,0.0,0.0,0.0,0.0,0.0,0.0,0.0,0.0,0.0,0.0,0.0,0.0,0.0,0.0,0.0,0.0,0.0,0.0,0.0,0.0,0.0,0.0,0.0,0.0,0.0,0.0,0.0,0.0,0.0,0.0,0.0,0.0,0.0,0.0,0.0,0.0,0.0,0.0,0.0,0.0,0.0,0.0,0.0,0.0,0.0,0.0,0.0,0.0,0.0,0.0,0.0,0.0,0.0,0.0,0.0,0.0,0.0,0.0,0.0,0.0,0.0,0.0,0.0,0.0,0.0,0.0,0.0,0.0,0.0,0.0,0.0,0.0,0.0,0.0,0.0,0.0,0.0,0.0,0.0,0.0,0.0,0.0,0.0,0.0,0.0,0.0,0.0,0.0,0.0,0.0,0.0,0.0,0.0,0.0,0.0,0.0,0.0,0.0,0.0,0.0,0.0,0.0,0.0,0.0,0.0,0.0,0.0,0.0,0.0,0.0,0.0,0.0,0.0,0.0,0.0,0.0,0.0,0.0,0.0,0.0,0.0,0.0,0.0,0.0,0.0,0.0,0.0,0.0,0.0,0.0,0.0,0.0,0.0,0.0,0.0,0.0,0.0,0.0,0.0,0.0,0.0,0.0,0.0,0.0,0.0,0.0,0.0,0.0,0.0,0.0,0.0,0.0,0.0,0.0,0.0,0.0,0.0,0.0,0.0,0.0,0.0,0.0,0.0,0.0,0.0,0.0,0.0,0.0,0.0,0.0,0.0,0.0,0.0,0.0,0.0,0.0,0.0,0.0,0.0,0.0,0.0,0.0,0.0,0.0,0.0,0.0,0.0,0.0,0.0,0.0,0.0,0.0,0.0,0.0,0.0,0.0,0.0,0.0,0.0,0.0,0.0,0.0,0.0,0.0,0.0,0.0,0.0,0.0,0.0,0.0,0.0,0.0,0.0,0.0,0.0,0.0,0.0,0.0,0.0,0.0,0.0,0.0,0.0,0.0,0.0,0.0,0.0,0.0,0.0,0.0,0.0,0.0,0.0,0.0,0.0,0.0,0.0,0.0,0.0,0.0,0.0,0.0,0.0,0.0,0.0,0.0,0.0,0.0,0.0,0.0,0.0,0.0,0.0,0.0,0.0,0.0,0.0,0.0,0.0,0.0,0.0,0.0,0.0,0.0,0.0,0.0,0.0,0.0,0.0,0.0,0.0,0.0,0.0,0.0,0.0,0.0,0.0,0.0,0.0,0.0,0.0,0.0,0.0,0.0,0.0,0.0,0.0,0.0,0.0,0.0,0.0,0.0,0.0,0.0,0.0,0.0,0.0,0.0,0.0,0.0,0.0,0.0,0.0,0.0,0.0,0.0,0.0,0.0,0.0,0.0,0.0,0.0,0.0,0.0,0.0,0.0,0.0,0.0,0.0,0.0,0.0,0.0,0.0,0.0,0.0,0.0,0.0,0.0,0.0,0.0,0.0,0.0,0.0,0.0,0.0,0.0,0.0,0.0,0.0,0.0,0.0,0.0,0.0,0.0,0.0,0.0,0.0,0.0,0.0,0.0,0.0,0.0,0.0,0.0,0.0,0.0,0.0,0.0,0.0,0.0,0.0,0.0,0.0,0.0,0.0,0.0,0.0,0.0,0.0,0.0,0.0,0.0,0.0,0.0,0.0,0.0,0.0,0.0,0.0,0.0,0.0,0.0,0.0,0.0,0.0,0.0,0.0,0.0,0.0,0.0,0.0,0.0,0.0,0.0,0.0,0.0,0.0,0.0,0.0,0.0,0.0,0.0,0.0,0.0,0.0,0.0,0.0,0.0,0.0,0.0,0.0,0.0,0.0,0.0,0.0,0.0,0.0,0.0,0.0,0.0,0.0,0.0,0.0,0.0,0.0,0.0,0.0,0.0,0.0,0.0,0.0,0.0,0.0,0.0,0.0,0.0,0.0,0.0,0.0,0.0,-1.4883,0.0,0.0,0.0,0.0,0.0,0.0,0.0,0.0,0.0,0.0,0.0,0.0,0.0,0.0,0.0,0.0,0.0,0.0,0.0,0.0,0.0,0.0,0.0,0.0,-0.2305,-0.251,-0.2675,-0.2764,-0.2788,-0.2788,0.0,0.0,0.0,0.0,0.0,-0.234,-0.2415,-0.2474,-0.2532,-0.3073,-0.3622,-0.4192,-0.4078,-0.3735,-0.3228,0.0,0.0,0.0,0.0,0.0,0.0,0.0,0.0,0.0,0.0,0.0,0.0,0.0,0.0,0.0,0.0,0.0,0.0,0.0,0.0,0.0,0.0,0.0,0.0,0.0,0.0,0.0,0.0,0.0,0.0,0.0,0.0,0.0,0.0,0.0,0.0,0.0,0.0,0.0,0.0,0.0,0.0,0.0,0.0,0.0,0.0,0.0,0.0,0.0,0.0,0.0,0.0,0.0,0.0,0.0,0.0,0.0,0.0,0.0,0.0,0.0,0.0,0.0,0.0,0.0,0.0,0.0,0.0,0.0,0.0,0.0,-1.5591,0.0,0.0,0.0,0.0,0.0,0.0,0.0,0.0,0.0,0.0,0.0,0.0,0.0,0.0,0.0,0.0,0.0,0.0,0.0,0.0,0.0,-0.2217,-0.2244,-0.2517,-0.2778,-0.2946,-0.2946,-0.2939,-0.2966,-0.2822,0.0,0.0,0.0,-0.2664,-0.2568,-0.2723,-0.291,-0.3121,-0.4016,-0.4958,-0.5942,-0.6159,-0.5616,-0.4436,-0.4034,0.0,0.0,0.0,0.0,0.0,0.0,0.0,0.0,0.0,0.0,0.0,0.0,0.0,0.0,0.0,0.0,0.0,0.0,0.0,0.0,0.0,0.0,0.0,0.0,0.0,0.0,0.0,0.0,0.0,0.0,0.0,0.0,0.0,0.0,0.0,0.0,0.0,0.0,0.0,0.0,0.0,0.0,0.0,0.0,0.0,0.0,0.0,0.0,0.0,0.0,0.0,0.0,0.0,0.0,0.0,0.0,0.0,0.0,0.0,0.0,0.0,0.0,0.0,0.0,-1.9679,-2.0067,-2.012,-2.0414,-2.0802,-1.9626,-1.9305,-1.9457,0.0,0.0,0.0,0.0,0.0,0.0,0.0,0.0,0.0,0.0,0.0,0.0,0.0,0.0,0.0,0.0,0.0,0.0,0.0,0.0,-0.2272,-0.2438,-0.2609,-0.2849,-0.3216,-0.3148,-0.3128,-0.3242,-0.3013,0.0,0.0,-0.2771,-0.2751,-0.2849,-0.3101,-0.3484,-0.402,-0.5467,-0.6559,-0.7333,-0.7238,-0.7156,-0.7054,-0.6105,-0.5535,-0.525,0.0,0.0,0.0,0.0,0.0,0.0,0.0,0.0,0.0,0.0,0.0,0.0,0.0,0.0,0.0,0.0,0.0,0.0,0.0,0.0,0.0,0.0,0.0,0.0,0.0,0.0,0.0,0.0,0.0,0.0,0.0,0.0,0.0,0.0,0.0,0.0,0.0,0.0,0.0,0.0,0.0,-1.1178,-1.2432,0.0,0.0,0.0,0.0,0.0,0.0,0.0,0.0,0.0,0.0,0.0,0.0,0.0,0.0,-1.9158,-2.1162,-2.2258,-2.2311,-2.4302,-2.5064,-2.4649,-2.4917,-2.5152,-2.5152,-2.3901,0.0,-2.0428,-1.9533,0.0,0.0,0.0,0.0,0.0,0.0,0.0,0.0,0.0,0.0,0.0,0.0,0.0,0.0,0.0,0.0,0.0,0.0,0.0,0.0,0.0,-0.3358,-0.3856,-0.4173,-0.4449,-0.4443,-0.4002,-0.3755,-0.3418,-0.2912,-0.2842,-0.2876,-0.3007,-0.3384,-0.4281,-0.5716,-0.7082,-0.8072,-0.873,-0.8743,-0.8784,-0.8825,-0.8282,-0.7312,-0.6081,-0.546,0.0,0.0,0.0,0.0,0.0,0.0,0.0,0.0,0.0,0.0,0.0,0.0,0.0,0.0,0.0,0.0,0.0,0.0,0.0,0.0,0.0,0.0,0.0,0.0,0.0,0.0,0.0,0.0,0.0,0.0,0.0,0.0,0.0,0.0,0.0,0.0,0.0,0.0,0.0,-1.0815,-1.2894,-1.3614,-1.3854,-1.3414,0.0,0.0,0.0,0.0,0.0,0.0,0.0,0.0,0.0,-1.9181,-2.0695,-2.1643,-2.2031,-2.3901,-2.493,-2.5104,-2.6132,-2.6587,-2.6507,-2.6627,-2.6694,-2.6667,-2.6146,-2.5237,-2.3981,-2.2058,-2.0575,-1.9372,0.0,0.0,0.0,0.0,0.0,-1.6567,0.0,0.0,0.0,0.0,0.0,0.0,0.0,0.0,0.0,0.0,0.0,0.0,-0.3357,-0.4212,-0.4921,-0.523,-0.563,-0.5528,-0.4771,-0.445,-0.3896,-0.304,-0.2966,-0.3034,-0.3236,-0.4131,-0.5528,-0.7395,-0.8486,-0.9286,-0.9836,-0.9903,-0.9958,-0.9985,-0.9842,-0.8804,-0.7166,-0.6552,-0.584,-0.5064,0.0,0.0,0.0,0.0,0.0,0.0,0.0,0.0,0.0,0.0,0.0,0.0,0.0,0.0,0.0,0.0,0.0,0.0,0.0,0.0,0.0,0.0,0.0,0.0,0.0,0.0,0.0,0.0,0.0,0.0,0.0,0.0,0.0,0.0,0.0,0.0,0.0,-1.2759,-1.4332,-1.4816,-1.5591,-1.5458,0.0,0.0,0.0,0.0,0.0,0.0,-1.9065,-2.0,-2.0895,-2.1777,-2.3594,-2.4623,-2.477,-2.6066,-2.6867,-2.7161,-2.7161,-2.7268,-2.7495,-2.7495,-2.7495,-2.7495,-2.7495,-2.7321,-2.6854,-2.4356,-2.2726,-2.1724,-2.0909,-1.9853,-1.8838,-1.8998,-1.9132,-1.9372,0.0,0.0,0.0,0.0,0.0,0.0,0.0,0.0,0.0,0.0,0.0,-0.3504,-0.408,-0.4992,-0.5747,-0.619,-0.6084,-0.582,-0.5378,-0.4805,-0.4117,-0.3316,-0.3168,-0.3249,-0.357,-0.5671,-0.7402,-0.8784,-0.9462,-0.9998,-1.0446,-1.0317,-1.0331,-1.0453,-1.031,-0.9788,-0.9016,-0.8079,-0.736,-0.6647,-0.5352,0.0,0.0,0.0,0.0,0.0,0.0,0.0,0.0,0.0,0.0,0.0,0.0,0.0,0.0,0.0,0.0,0.0,0.0,0.0,0.0,0.0,0.0,0.0,0.0,0.0,0.0,0.0,0.0,0.0,0.0,0.0,0.0,0.0,0.0,0.0,0.0,0.0,0.0,-1.6951,-1.8998,0.0,0.0,0.0,0.0,-1.7809,-1.8677,-2.008,-2.2084,-2.306,-2.4329,-2.6026,-2.6466,-2.6934,-2.7495,-2.7589,-2.7776,-2.8167,-2.8167,-2.8167,-2.8181,-2.8181,-2.8181,-2.8181,-2.8181,-2.7923,-2.7562,-2.6293,-2.5411,-2.4716,-2.3273,-2.2485,-2.2044,-2.0962,-2.1443,-2.2592,0.0,0.0,0.0,0.0,0.0,-0.2696,-0.2696,-0.2607,-0.2557,-0.2682,-0.3384,-0.4066,-0.4597,-0.5784,-0.677,-0.7217,-0.7475,-0.7339,-0.6736,-0.5856,-0.5074,-0.449,-0.3957,-0.4246,-0.5446,-0.7075,-0.8357,-0.9225,-0.9917,-1.0385,-1.0636,-1.0588,-1.0588,-1.0636,-1.0588,-1.0358,-0.9964,-0.9157,-0.8309,-0.7421,-0.6519,-0.5561,0.0,0.0,0.0,0.0,0.0,0.0,0.0,0.0,0.0,0.0,0.0,0.0,0.0,0.0,0.0,0.0,0.0,0.0,0.0,0.0,0.0,0.0,0.0,0.0,0.0,0.0,0.0,0.0,0.0,0.0,0.0,0.0,0.0,0.0,0.0,0.0,0.0,-1.8479,-1.9872,0.0,0.0,-1.9826,-2.0361,-2.0815,-2.2205,-2.3607,-2.4903,-2.5638,-2.6386,-2.7201,-2.7522,-2.7776,-2.7989,-2.7989,-2.8043,-2.8221,-2.8221,-2.8221,-2.8221,-2.8221,-2.8221,-2.8221,-2.8221,-2.8167,-2.7949,-2.7618,-2.6907,-2.6146,-2.5611,-2.5117,-2.4649,-2.4222,-2.4289,-2.4556,0.0,0.0,0.0,0.0,-0.2696,-0.2696,-0.2696,-0.2671,-0.2764,-0.3154,-0.3964,-0.48,-0.5555,-0.6775,-0.7733,-0.8085,-0.8384,-0.816,-0.7204,-0.6444,-0.5671,-0.484,-0.4719,-0.5447,-0.7084,-0.8201,-0.9103,-0.9754,-1.0304,-1.0622,-1.0717,-1.0717,-1.0717,-1.0717,-1.0717,-1.0663,-1.0534,-0.9985,-0.9239,-0.8357,-0.7658,-0.6695,-0.5555,0.0,0.0,0.0,0.0,0.0,0.0,0.0,0.0,0.0,0.0,0.0,0.0,0.0,0.0,0.0,0.0,0.0,0.0,0.0,0.0,0.0,0.0,0.0,0.0,0.0,0.0,0.0,0.0,0.0,0.0,0.0,0.0,0.0,0.0,0.0,-1.845,-1.9533,-2.0962,-2.175,-2.1456,-2.2138,-2.2913,-2.3701,-2.4943,-2.6012,-2.6787,-2.7201,-2.7549,-2.7843,-2.8043,-2.8221,-2.8221,-2.8221,-2.8221,-2.8221,-2.8221,-2.8221,-2.8221,-2.8221,-2.8006,-2.7658,-2.806,-2.8006,-2.7575,-2.806,-2.7802,-2.7255,-2.7161,-2.6827,-2.6479,-2.6479,-2.6213,-2.5945,0.0,0.0,0.0,-0.2696,-0.2696,-0.2696,-0.2696,-0.2589,-0.2901,-0.4013,-0.4732,-0.5615,-0.693,-0.7936,-0.8554,-0.8703,-0.871,-0.8147,-0.6831,-0.6566,-0.582,-0.4321,-0.542,-0.6783,-0.8327,-0.9028,-0.9768,-1.05,-1.0649,-1.0717,-1.0717,-1.0717,-1.0717,-1.0717,-1.0717,-1.0717,-1.0711,-1.0561,-1.0168,-0.9557,-0.8669,-0.7862,-0.7011,0.0,0.0,0.0,0.0,0.0,0.0,0.0,0.0,0.0,0.0,0.0,0.0,0.0,0.0,0.0,0.0,0.0,0.0,0.0,0.0,0.0,0.0,0.0,0.0,0.0,0.0,0.0,0.0,0.0,0.0,0.0,0.0,0.0,-1.5102,-1.7849,-1.9987,-2.0321,-2.2672,-2.4155,-2.3875,-2.489,-2.5798,-2.6386,-2.6694,-2.7108,-2.7682,-2.7682,-2.7789,-2.8167,-2.8181,-2.8181,-2.8181,-2.8234,-2.8261,-2.8261,-2.8248,-2.8248,-2.8248,-2.8234,-2.7522,-2.6507,-2.7655,-2.7578,-2.6533,-2.7752,-2.8221,-2.8194,-2.7829,-2.7535,-2.7281,-2.7281,-2.7081,-2.6774,0.0,0.0,-0.2696,-0.2696,-0.2696,-0.2696,-0.2696,-0.2662,-0.2856,-0.3463,-0.4658,-0.5766,-0.6566,-0.7848,-0.871,-0.8811,-0.8676,-0.8296,-0.7665,-0.6824,-0.6177,-0.5725,-0.6742,-0.7868,-0.9049,-0.9707,-1.0236,-1.0656,-1.0697,-1.0717,-1.0717,-1.0717,-1.0717,-1.0717,-1.0717,-1.0717,-1.0717,-1.0677,-1.05,-1.0188,-0.951,-0.8791,-0.8031,0.0,0.0,0.0,0.0,0.0,0.0,0.0,0.0,0.0,0.0,0.0,0.0,0.0,0.0,0.0,0.0,0.0,0.0,0.0,0.0,0.0,0.0,0.0,0.0,0.0,0.0,0.0,0.0,0.0,0.0,0.0,0.0,-1.8063,-1.8197,-2.0027,-2.1817,-2.2966,-2.4516,-2.5531,-2.5651,-2.6146,-2.6707,-2.7295,-2.7415,-2.7629,-2.8003,-2.7215,-2.6787,-2.6867,-2.7081,-2.7188,-2.7188,-2.8257,-2.8791,-2.8791,-2.8577,-2.8484,-2.847,-2.8328,-2.8047,-2.7765,-2.8087,-2.8047,-2.7765,-2.81,-2.8221,-2.8221,-2.814,-2.7843,-2.7575,-2.7575,-2.7255,-2.6694,0.0,-0.2192,-0.2696,-0.2696,-0.2696,-0.2696,-0.2696,-0.2751,-0.3046,-0.3789,-0.4945,-0.6023,-0.6932,-0.7977,-0.8676,-0.8832,-0.8621,-0.8167,-0.7428,-0.662,-0.6471,-0.7207,-0.795,-0.8811,-0.9741,-1.0222,-1.0548,-1.0717,-1.0717,-1.0717,-1.0717,-1.0717,-1.0717,-1.0717,-1.0717,-1.0717,-1.0717,-1.0717,-1.067,-1.0555,-1.0141,-0.9564,-0.8886,-0.8296,-0.7773,-0.7278,-0.6675,-0.6491,-0.643,-0.5718,0.0,0.0,0.0,0.0,0.0,0.0,0.0,0.0,0.0,0.0,0.0,0.0,0.0,0.0,0.0,0.0,0.0,0.0,0.0,0.0,0.0,0.0,0.0,0.0,-1.7903,-2.012,-2.1229,-2.2271,-2.3327,-2.4436,-2.5504,-2.6306,-2.672,-2.7014,-2.7375,-2.7856,-2.7883,-2.7963,-2.8221,-2.7578,-2.6947,-2.6587,-2.7215,-2.7388,-2.7014,-2.8364,-2.9045,-2.9032,-2.8871,-2.8724,-2.8604,-2.8417,-2.8003,0.0,-2.8006,-2.7953,-2.7524,-2.802,-2.8221,0.0,0.0,0.0,0.0,0.0,-2.7402,-2.6894,0.0,-0.2297,-0.263,-0.2696,-0.2696,-0.2696,-0.2696,-0.2808,-0.3331,-0.4511,-0.5332,-0.6302,-0.7617,-0.8194,-0.8533,-0.8676,-0.8499,-0.7862,-0.6627,-0.6288,-0.6851,-0.8465,-0.9016,-0.961,-1.029,-1.0575,-1.0717,-1.0717,-1.0717,-1.0717,-1.0717,-1.0717,-1.0717,-1.0717,-1.0717,-1.0717,-1.0717,-1.0717,-1.0717,-1.0711,-1.0575,-1.0195,-0.9646,-0.9076,-0.8689,-0.837,-0.7849,-0.7441,-0.7156,-0.6716,0.0,0.0,0.0,0.0,0.0,0.0,0.0,0.0,0.0,0.0,0.0,0.0,0.0,0.0,0.0,0.0,0.0,0.0,0.0,0.0,0.0,0.0,0.0,0.0,-1.9386,-2.1443,-2.3901,-2.4302,-2.4569,-2.5157,-2.5972,-2.6707,-2.7268,-2.7575,-2.7856,-2.8207,-2.8221,-2.8221,-2.8221,0.0,0.0,0.0,0.0,-2.8123,-2.7321,-2.8524,-2.9138,-2.9138,-2.9112,-2.8951,-2.8698,-2.8631,-2.7883,-2.6694,-2.7792,-2.7549,-2.6667,-2.7792,-2.8221,-2.8221,-2.8221,-2.8221,-2.8181,-2.7696,-2.7455,0.0,0.0,-0.1809,-0.2247,-0.263,-0.2696,-0.2696,-0.2696,-0.2808,-0.3297,-0.4395,-0.5264,-0.6227,-0.7333,-0.8072,-0.8492,-0.8526,-0.8065,-0.7556,-0.6997,-0.6809,-0.7334,-0.8737,-0.9279,-0.9815,-1.0439,-1.0629,-1.0717,-1.0717,-1.0717,-1.0717,-1.0717,-1.0717,-1.0717,-1.0717,-1.0717,-1.0717,-1.0717,-1.0717,-1.0717,-1.0717,-1.069,-1.0534,-1.0283,-0.9924,-0.968,-0.9476,-0.9123,-0.9035,-0.8988,-0.8289,-0.7936,-0.7719,-0.7299,-0.6546,0.0,0.0,0.0,0.0,0.0,0.0,0.0,0.0,0.0,0.0,0.0,0.0,0.0,0.0,0.0,0.0,0.0,0.0,0.0,-1.9199,-2.1256,-2.3153,-2.4382,-2.4957,-2.5478,-2.6066,-2.6707,-2.7228,-2.7575,-2.7883,-2.8167,-2.8221,-2.8221,-2.8221,-2.8221,-2.7468,0.0,-2.6827,-2.7509,-2.7789,-2.7615,-2.9032,-2.9753,-2.974,0.0,0.0,-2.9299,-2.8818,-2.8444,-2.8177,-2.815,-2.81,-2.7899,-2.8127,-2.8221,-2.8221,-2.8221,-2.8221,-2.81,-2.7014,-2.7054,-2.7442,-0.1171,-0.1676,-0.2147,-0.2613,-0.2696,-0.2696,-0.2696,-0.2869,-0.3256,-0.3959,-0.4802,-0.5732,-0.675,-0.7075,-0.7373,-0.7678,-0.7231,-0.7115,-0.7516,-0.7665,-0.8275,-0.9557,-0.9897,-1.0222,-1.0595,-1.0683,-1.0717,-1.0717,-1.0717,-1.0717,-1.0717,-1.0717,-1.0717,-1.0717,-1.0717,-1.0717,-1.0717,-1.0717,-1.0717,-1.0717,-1.0717,-1.0677,-1.0582,-1.0358,-1.0181,-1.0019,-0.9795,-0.9673,-0.9544,-0.9083,-0.8832,-0.8702,-0.8275,-0.7692,-0.6987,0.0,0.0,0.0,0.0,0.0,0.0,0.0,0.0,0.0,0.0,0.0,0.0,0.0,0.0,-1.3718,0.0,0.0,-1.9185,-2.0655,-2.2004,-2.3394,-2.4863,-2.5451,-2.5892,-2.6333,-2.6907,-2.7375,-2.7669,-2.7963,-2.8221,-2.8221,-2.8221,-2.8221,-2.8221,-2.7869,-2.7509,-2.7054,-2.8056,-2.8377,-2.7923,-2.9245,-2.9913,-2.9913,-2.9766,-2.9619,-2.9472,-2.9018,-2.8751,-2.8591,-2.8283,-2.8221,-2.8221,-2.8221,-2.8221,-2.8221,-2.8221,-2.8221,-2.8154,-2.7482,-2.7455,-2.7575,-0.1121,-0.1609,-0.2047,-0.2596,-0.2696,-0.2696,-0.2696,-0.291,-0.3202,-0.3615,-0.4321,-0.5128,-0.6067,-0.6017,-0.6087,-0.6586,-0.6424,-0.677,-0.7833,-0.8343,-0.9096,-1.027,-1.046,-1.0595,-1.0717,-1.0717,-1.0717,-1.0717,-1.0717,-1.0717,-1.0717,-1.0717,-1.0717,-1.0717,-1.0717,-1.0717,-1.0717,-1.0717,-1.0717,-1.0717,-1.0717,-1.0717,-1.0704,-1.0548,-1.0405,-1.0256,-1.0073,-0.9815,-0.9544,-0.9422,-0.9259,-0.9076,-0.8866,-0.8594,-0.814,-0.7064,-0.6756,0.0,0.0,0.0,0.0,0.0,0.0,0.0,0.0,0.0,-1.1381,-1.3481,-1.5086,-1.6402,-1.727,-1.8477,-2.0013,-2.2084,-2.2659,-2.3487,-2.5344,-2.5798,-2.6092,-2.6426,-2.6947,-2.7375,-2.7669,-2.7963,-2.8221,-2.8221,-2.8221,-2.8221,-2.8221,-2.8484,-2.8364,-2.7629,-2.8885,-2.9219,-2.8583,-2.9432,-2.9913,-2.9913,-2.9913,-2.9793,-2.9566,-2.9259,-2.8965,-2.8671,-2.831,-2.8221,-2.8221,-2.8221,-2.8221,-2.8221,-2.8221,-2.8221,-2.8221,-2.8221,-2.7989,-2.7749,0.0,-0.1338,-0.1655,-0.2547,-0.2696,-0.2696,-0.2696,-0.2822,-0.3162,-0.3856,-0.4153,-0.4638,-0.5569,-0.565,-0.561,-0.5576,-0.6136,-0.679,-0.7597,-0.8425,-0.9361,-1.0419,-1.0616,-1.0704,-1.0717,-1.0717,-1.0717,-1.0717,-1.0717,-1.0717,-1.0717,-1.0717,-1.0717,-1.0717,-1.0717,-1.0717,-1.0717,-1.0717,-1.0717,-1.0717,-1.0717,-1.0717,-1.0704,-1.0548,-1.0405,-1.0243,-0.9951,-0.9659,-0.9401,-0.9388,-0.9198,-0.8981,-0.9076,-0.8899,-0.8506,-0.7706,0.0,-0.7084,-0.5861,-0.5386,-0.5454,-0.6519,-0.8087,-0.9973,0.0,0.0,-1.5371,-1.8102,-1.8724,-1.9291,-2.1044,-2.1912,-2.2726,-2.3781,-2.4195,-2.4743,-2.5758,-2.601,-2.6159,-2.6707,-2.7068,-2.7375,-2.7669,-2.7963,-2.8221,-2.8221,-2.8221,-2.8221,-2.8221,-2.8684,-2.8951,-2.8845,-2.9513,-2.982,-2.9713,-2.9847,-2.9913,-2.9913,-2.9913,-2.99,-2.986,-2.9566,-2.9272,-2.8965,-2.839,-2.8221,-2.8221,-2.8221,-2.8221,-2.8221,-2.8221,-2.8221,-2.8221,-2.8221,-2.8207,-2.814,0.0,-0.1141,-0.1505,-0.2181,-0.2513,-0.2696,-0.2696,-0.2808,-0.3034,-0.3425,-0.3687,-0.4131,-0.4887,-0.4962,-0.4866,-0.4599,-0.5264,-0.6193,-0.7387,-0.8309,-0.9306,-1.0439,-1.0636,-1.0717,-1.0717,-1.0717,-1.0717,-1.0717,-1.0717,-1.0717,-1.0717,-1.0717,-1.0717,-1.0717,-1.0717,-1.0717,-1.0717,-1.0717,-1.0717,-1.0717,-1.0717,-1.067,-1.0561,-1.0324,-1.0093,-0.9842,-0.9449,-0.9171,0.0,-0.8791,-0.871,-0.8696,-0.8845,-0.8628,-0.8228,-0.774,-0.7489,0.0,-0.6973,-0.698,-0.7224,0.0,-0.9808,-1.2156,-1.3969,-1.5905,-1.7975,-2.0217,-2.0876,-2.134,-2.2364,-2.2418,-2.2819,0.0,-2.4275,-2.4556,-2.5785,-2.6037,-2.6052,-2.6293,-2.5972,-2.5985,-2.6627,-2.7415,-2.7669,-2.7161,-2.7832,-2.8221,-2.8221,-2.8711,-2.9045,-2.9045,-2.9606,-2.9913,-2.9913,-2.9913,-2.9913,-2.9913,-2.9913,-2.9913,-2.99,-2.9619,-2.9232,-2.8778,-2.8524,-2.831,-2.8221,-2.8221,-2.8221,-2.8221,-2.8221,-2.8221,-2.8221,-2.8221,-2.8221,-2.8181,0.0,-0.094,-0.1325,-0.1897,-0.2281,-0.2547,-0.2679,-0.2808,-0.2939,-0.3081,-0.3317,-0.3636,-0.4129,-0.4218,-0.417,-0.3975,-0.4714,-0.5779,-0.7156,-0.8167,-0.9225,-1.0385,-1.0575,-1.0677,-1.0717,-1.0717,-1.0717,-1.0717,-1.0717,-1.0717,-1.0717,-1.0717,-1.0717,-1.0717,-1.0717,-1.0717,-1.0717,-1.0717,-1.0717,-1.0717,-1.0677,-1.0568,-1.0399,-1.0059,-0.9666,-0.9252,-0.8886,-0.8628,-0.8404,-0.8024,-0.8052,-0.8241,-0.8269,-0.8116,-0.7934,-0.7685,-0.7407,-0.7272,-0.7651,0.0,0.0,-0.8866,-1.0989,-1.3216,-1.4514,-1.7021,-1.9475,-2.081,-2.1845,-2.2632,-2.2939,-2.2712,-2.2979,-2.4516,-2.4476,-2.4676,-2.5905,-2.609,-2.5865,-2.5625,-2.4957,-2.4583,-2.4804,-2.6239,-2.7121,-2.6894,-2.7738,-2.8221,-2.8221,-2.8711,-2.9045,-2.9045,-2.9606,-2.9913,-2.9913,-2.9913,-2.9913,-2.9913,-2.9913,-2.9913,-2.99,-2.9526,-2.9125,-2.8724,-2.8551,-2.835,-2.8221,-2.8221,-2.8221,-2.8221,-2.8221,-2.8221,-2.8221,-2.8221,-2.8221,-2.8194,0.0,0.0,-0.0992,-0.1847,-0.2014,-0.2181,-0.263,-0.2808,-0.2939,-0.3081,-0.3108,-0.3175,-0.3323,-0.352,-0.3679,-0.3785,-0.4784,-0.5842,-0.6829,-0.8052,-0.9184,-1.0243,-1.0426,-1.0568,-1.0717,-1.0717,-1.0717,-1.0717,-1.0717,-1.0717,-1.0717,-1.0717,-1.0717,-1.0717,-1.0717,-1.0717,-1.0717,-1.0717,-1.0717,-1.0711,-1.0561,-1.0412,-1.0236,-0.9795,-0.9164,-0.8499,-0.8343,-0.8092,-0.7746,-0.7119,-0.7265,-0.7577,-0.7233,-0.753,0.0,-0.7685,-0.7183,-0.6851,0.0,0.0,-0.755,-0.9347,-1.1125,-1.2689,-1.3653,-1.6848,-1.9572,-1.964,-2.1382,-2.2939,-2.326,-2.3541,-2.4008,-2.4917,-2.5291,-2.5678,-2.6293,-2.6132,-2.5638,-2.4783,-2.4409,-2.3554,0.0,-2.4375,-2.6666,-2.8073,-2.8207,-2.8221,-2.8221,-2.8711,-2.9045,-2.9045,-2.9606,-2.9913,-2.9913,-2.9913,-2.9913,-2.9913,-2.9913,-2.9913,-2.99,-2.9312,-2.9045,-2.8991,-2.8417,-2.8234,-2.8221,-2.8221,-2.8221,-2.8221,-2.8221,-2.8221,-2.8221,-2.8221,-2.8221,-2.8221,0.0,0.0,0.0,-0.108,-0.1693,-0.2196,-0.2344,-0.2676,-0.2905,-0.2953,-0.3128,0.0,0.0,0.0,0.0,0.0,-0.4267,-0.4999,-0.6209,-0.7038,-0.8038,-0.9191,-0.9856,-1.027,-1.0426,-1.0521,-1.0616,-1.0717,-1.0717,-1.0717,-1.0717,-1.0717,-1.0717,-1.0717,-1.0717,-1.0717,-1.0717,-1.0717,-1.0717,-1.0697,-1.0453,-1.0263,-1.0122,-0.9408,-0.8696,-0.795,0.0,-0.6996,-0.6722,-0.6315,-0.6349,-0.6593,-0.6783,0.0,0.0,-0.6784,-0.6987,-0.7387,-0.778,0.0,-0.8994,-0.9903,-1.1895,-1.3987,-1.5543,-1.7823,-1.9947,-2.1179,-2.1477,-2.1496,-2.1804,-2.1617,-2.1977,-2.3647,-2.35,-2.3928,-2.6092,-2.4957,-2.4235,-2.5117,-2.4088,0.0,0.0,0.0,0.0,-2.5518,-2.6974,-2.803,-2.843,-2.8818,-2.9125,-2.9325,-2.9713,-2.9913,-2.9913,-2.9913,-2.9913,-2.9913,-2.9913,-2.9913,-2.99,-2.9513,-2.9219,-2.9018,-2.8617,-2.8337,-2.8221,-2.8221,-2.8221,-2.8221,-2.8221,-2.8221,-2.8221,-2.8221,-2.8221,-2.8221,0.0,0.0,0.0,0.0,0.0,0.0,0.0,0.0,0.0,0.0,0.0,0.0,0.0,0.0,0.0,0.0,0.0,-0.4476,-0.5602,-0.6182,-0.7034,-0.818,-0.8838,-0.9248,-0.9395,-0.9646,-0.9849,-1.0005,-1.0215,-1.0378,-1.048,-1.048,-1.0507,-1.0561,-1.0561,-1.0561,-1.0561,-1.05,-1.048,-1.0439,-0.9924,-0.9625,-0.946,-0.8601,-0.7779,0.0,-0.6403,-0.5999,-0.5706,-0.5474,-0.5684,-0.6006,-0.6118,-0.6193,-0.6361,-0.6689,-0.7149,-0.7746,-0.8418,-0.913,-0.9842,-1.0514,-1.1976,-1.3665,-1.5533,-1.7327,-1.9061,-2.0714,-2.0966,-2.0664,-2.0146,-2.0016,-2.0557,-2.1997,-2.2268,-2.326,-2.5999,-2.4997,-2.4315,-2.5251,-2.4262,0.0,0.0,0.0,0.0,-2.485,-2.6319,-2.7402,-2.7789,-2.819,-2.8684,-2.9312,-2.9713,-2.9913,-2.9913,-2.9913,-2.9913,-2.9913,-2.9913,-2.9913,-2.99,-2.9513,-2.8991,-2.8404,-2.843,-2.8096,-2.7631,-2.806,-2.8221,-2.8221,-2.8221,-2.8221,-2.8221,-2.8221,-2.8221,-2.8221,0.0,0.0,0.0,0.0,0.0,0.0,0.0,0.0,0.0,0.0,0.0,0.0,0.0,0.0,0.0,0.0,0.0,0.0,-0.5009,-0.5508,-0.6213,-0.7282,-0.7371,-0.7489,-0.778,-0.8221,-0.852,-0.8676,-0.9252,-0.9673,-0.9883,-0.9883,-1.0025,-1.0168,-1.0168,-1.0168,-1.0154,-1.0012,-0.9883,-0.9808,-0.9001,-0.8567,-0.8343,-0.7409,-0.662,-0.5939,-0.5684,-0.5196,-0.4694,-0.4707,0.0,0.0,0.0,0.0,0.0,-0.7366,-0.7658,-0.7991,-0.9252,-0.9747,-1.0141,-1.1151,-1.1466,-1.2015,-1.3743,-1.5574,-1.7266,-1.843,-1.9839,-2.0182,0.0,0.0,-1.9645,-2.0095,-2.1654,-2.3541,-2.5959,-2.6039,-2.5651,0.0,0.0,0.0,0.0,0.0,0.0,-2.601,0.0,-2.6466,-2.6507,-2.7041,-2.7883,-2.9032,-2.9619,-2.9913,-2.9913,-2.9913,-2.9913,-2.9913,-2.9913,-2.9913,-2.9873,-2.9299,-2.8417,-2.7362,-2.7993,-2.7509,-2.656,-2.7765,-2.8221,-2.8221,-2.8221,-2.8221,-2.8221,-2.8221,-2.8221,-2.8221,0.0,0.0,0.0,0.0,0.0,0.0,0.0,0.0,0.0,0.0,0.0,0.0,0.0,0.0,0.0,0.0,0.0,0.0,-0.4388,-0.4867,-0.5413,-0.6017,-0.6681,-0.7177,-0.7475,-0.7814,-0.8058,-0.8157,-0.8312,-0.8426,-0.8501,-0.8501,-0.8521,-0.8608,-0.8608,-0.8608,-0.8608,-0.8514,-0.8501,-0.846,-0.8065,-0.7862,-0.7746,-0.7068,-0.6417,-0.582,-0.5562,-0.5139,0.0,0.0,0.0,0.0,0.0,-0.7421,-0.7808,0.0,0.0,-0.9279,-0.9408,-1.0202,-1.1084,-1.1463,-1.2455,-1.3813,-1.5662,-1.7068,-1.8104,-1.8753,-1.7837,-1.6489,0.0,0.0,0.0,-1.8468,-1.9791,0.0,-2.4663,-2.4649,0.0,-2.5024,0.0,-2.5705,-2.5905,-2.6667,0.0,0.0,-2.6827,-2.7562,-2.8016,-2.839,-2.8831,-2.9352,-2.9726,-2.9913,-2.9913,-2.9913,-2.9913,-2.9913,-2.9913,-2.9806,-2.9579,-2.9205,-2.8751,-2.8257,-2.8261,-2.806,-2.7805,-2.81,-2.8221,-2.8221,-2.8221,-2.8221,-2.8221,-2.8221,-2.8221,-2.8221,0.0,0.0,0.0,0.0,0.0,0.0,0.0,0.0,0.0,0.0,0.0,0.0,0.0,0.0,0.0,0.0,0.0,0.0,0.0,-0.426,-0.4599,-0.4986,-0.5447,-0.5861,-0.6129,-0.6641,-0.6939,-0.6966,-0.7314,-0.7503,-0.7503,-0.757,-0.7631,-0.7746,-0.7814,-0.7848,-0.7841,-0.7773,-0.7746,0.0,0.0,-0.7014,-0.6946,-0.6342,-0.5861,-0.5488,0.0,0.0,0.0,0.0,0.0,-0.7,-0.7997,-0.8289,-0.835,-0.8771,0.0,-0.9971,-1.0202,-1.0867,-1.1511,-1.1599,-1.2201,-1.3189,-1.4538,-1.5282,-1.5853,-1.6241,-1.5303,0.0,0.0,0.0,0.0,0.0,0.0,0.0,-2.4048,-2.4382,-2.4623,0.0,-2.5758,0.0,-2.7121,-2.7629,-2.7615,0.0,-2.7041,-2.7268,-2.7615,-2.803,-2.8577,-2.9272,-2.97,-2.9913,-2.9913,-2.9913,-2.9913,-2.9913,-2.9913,-2.9766,-2.9472,-2.9179,-2.8591,-2.7829,0.0,-2.7939,-2.7415,-2.802,-2.8221,-2.8221,-2.8221,-2.8221,-2.8221,-2.8221,-2.8221,-2.8221,0.0,0.0,0.0,0.0,0.0,0.0,0.0,0.0,0.0,0.0,-0.3102,0.0,0.0,0.0,0.0,0.0,0.0,0.0,0.0,0.0,0.0,-0.418,-0.4214,-0.4314,-0.4518,-0.5277,-0.5637,-0.5528,0.0,-0.666,-0.6722,-0.6802,-0.6973,-0.7153,-0.7244,-0.7299,-0.7292,-0.7207,-0.7146,-0.7091,-0.6443,-0.6177,-0.6122,0.0,0.0,0.0,0.0,0.0,0.0,0.0,-0.7366,-0.7217,-0.8662,-0.8893,-0.8845,-0.9958,-1.027,-1.0348,-1.1138,-1.1484,-1.164,-1.1626,-1.1612,-1.1815,-1.237,-1.2516,-1.2605,-1.2766,0.0,-1.1693,-0.9643,-1.1201,-1.3295,-1.4698,0.0,-2.1131,-2.3541,-2.4596,-2.5304,-2.5732,-2.5996,-2.6466,-2.7642,-2.7843,-2.806,-2.8221,-2.7201,-2.6627,-2.6627,-2.7148,-2.7949,-2.9058,-2.9633,-2.9913,-2.9913,-2.9913,-2.9913,-2.9913,-2.9873,-2.9713,-2.9419,-2.9125,-2.8257,-2.7041,0.0,0.0,-2.6694,-2.7805,-2.8221,-2.8221,-2.8221,-2.8221,-2.8221,-2.8221,-2.8221,-2.8221,0.0,0.0,0.0,0.0,0.0,0.0,0.0,0.0,0.0,0.0,-0.3064,-0.3276,0.0,0.0,0.0,0.0,0.0,0.0,0.0,0.0,0.0,-0.418,-0.4362,-0.4525,-0.4646,0.0,0.0,0.0,0.0,0.0,-0.5672,-0.5692,-0.5719,-0.5747,-0.5774,-0.5788,-0.5781,-0.5754,-0.5747,-0.5733,-0.5603,-0.5549,-0.5542,0.0,0.0,0.0,0.0,0.0,0.0,0.0,-0.8248,-0.856,-0.9693,-1.0249,-1.046,-1.0324,-1.0785,-1.1301,-1.1015,-1.1402,-1.1769,-1.1647,-1.2348,-1.3061,-1.2834,-1.3236,0.0,0.0,-1.0599,-0.9354,-0.8159,-0.8974,0.0,-1.4159,0.0,0.0,0.0,0.0,-2.5291,0.0,0.0,0.0,0.0,0.0,0.0,0.0,0.0,0.0,-2.7926,-2.8177,-2.8698,-2.9379,-2.974,-2.9913,-2.9913,-2.9913,-2.9913,-2.9913,-2.9673,-2.9406,-2.9112,-2.8818,-2.8404,-2.8006,0.0,0.0,-2.7939,-2.814,-2.8221,-2.8221,-2.8221,-2.8221,-2.8221,-2.8221,-2.8221,-2.8221,0.0,0.0,0.0,0.0,0.0,0.0,0.0,-0.0892,-0.1577,-0.2235,-0.2848,-0.331,-0.3635,-0.3697,-0.3724,0.0,0.0,0.0,0.0,0.0,0.0,0.0,0.0,-0.4382,0.0,0.0,0.0,0.0,0.0,0.0,0.0,0.0,0.0,0.0,0.0,0.0,0.0,0.0,0.0,0.0,0.0,0.0,0.0,0.0,0.0,0.0,0.0,0.0,0.0,0.0,-0.7821,-0.8411,-1.0005,-1.0656,-1.0758,-1.0385,-1.086,-1.1423,-1.0981,-1.1312,-1.1796,-1.1653,-1.1901,-1.1899,-1.0871,0.0,0.0,0.0,-0.7861,-0.7247,-0.6745,0.0,0.0,0.0,0.0,0.0,0.0,0.0,0.0,0.0,0.0,0.0,0.0,0.0,0.0,0.0,0.0,0.0,-2.8194,-2.8444,-2.8871,-2.9459,-2.9619,-2.9766,-2.9913,-2.9913,-2.9847,-2.9686,-2.9553,-2.9245,-2.8804,-2.8671,-2.843,-2.8221,0.0,0.0,-2.7281,-2.798,-2.7859,-2.7295,-2.7993,-2.8221,-2.8221,-2.8221,-2.8221,-2.8221,0.0,0.0,0.0,0.0,0.0,0.0,0.0,-0.0547,-0.1159,-0.1724,-0.2636,-0.3382,-0.3816,-0.3872,-0.3927,0.0,0.0,0.0,0.0,0.0,0.0,0.0,0.0,0.0,0.0,0.0,0.0,0.0,0.0,0.0,0.0,0.0,0.0,0.0,0.0,0.0,0.0,0.0,0.0,0.0,0.0,0.0,0.0,0.0,0.0,0.0,0.0,0.0,0.0,0.0,-0.717,-0.774,-0.9639,-1.0331,-1.0412,-1.031,-1.0785,-1.1321,-1.1212,-1.1525,-1.1837,-1.166,-1.1253,-1.0493,-0.8933,-0.8248,0.0,0.0,-0.5793,-0.5745,-0.5874,0.0,0.0,0.0,0.0,0.0,0.0,0.0,0.0,0.0,0.0,0.0,0.0,0.0,0.0,0.0,0.0,0.0,0.0,-2.8444,-2.8818,-2.9285,-2.9352,-2.9499,-2.9726,-2.9726,-2.9619,-2.9392,-2.9325,-2.9058,-2.8604,-2.8537,-2.8377,-2.8221,0.0,0.0,0.0,-2.7738,-2.7537,-2.6507,-2.7765,-2.8221,-2.8221,-2.8221,-2.8221,-2.8221,0.0,0.0,0.0,0.0,0.0,0.0,0.0,-0.0624,-0.1115,-0.1163,-0.2576,-0.3535,-0.3454,-0.3881,-0.4132,0.0,0.0,0.0,0.0,0.0,0.0,0.0,0.0,0.0,0.0,0.0,0.0,0.0,0.0,0.0,0.0,0.0,0.0,0.0,0.0,0.0,0.0,0.0,0.0,0.0,0.0,0.0,0.0,0.0,0.0,0.0,0.0,0.0,0.0,0.0,0.0,-0.7007,-0.8282,-0.9062,-0.9605,-1.0127,0.0,0.0,-1.1816,-1.1999,-1.1972,-1.1687,-1.1179,-1.0419,-0.9121,0.0,0.0,-0.6457,-0.5822,-0.5603,-0.6156,-0.6474,0.0,0.0,0.0,-1.4296,0.0,0.0,0.0,0.0,0.0,0.0,0.0,0.0,0.0,0.0,0.0,0.0,0.0,-2.8444,-2.8631,-2.8684,-2.8938,-2.9098,-2.9125,-2.9125,-2.9112,-2.9072,-2.8818,-2.8657,-2.8591,-2.831,-2.8261,-2.8221,0.0,0.0,0.0,-2.7738,-2.7537,-2.6507,-2.7765,-2.8221,-2.8221,-2.8221,-2.8221,-2.8221,0.0,0.0,0.0,0.0,0.0,0.0,0.0,-0.0248,-0.0592,-0.1053,-0.2234,-0.3179,-0.35,-0.4188,-0.4523,-0.4307,0.0,0.0,0.0,0.0,0.0,0.0,0.0,0.0,0.0,0.0,0.0,0.0,0.0,0.0,0.0,0.0,0.0,0.0,0.0,0.0,0.0,0.0,0.0,0.0,0.0,0.0,0.0,0.0,0.0,0.0,0.0,0.0,0.0,0.0,0.0,0.0,-0.6715,-0.7217,0.0,0.0,-0.9808,-1.0663,-1.0812,-1.1375,-1.185,-1.1558,-1.1029,-1.0249,-0.896,0.0,-0.7183,-0.6186,-0.5685,-0.5521,-0.5908,-0.603,-0.6669,-0.8374,-0.9745,-1.1994,0.0,0.0,0.0,0.0,0.0,0.0,0.0,0.0,0.0,0.0,0.0,0.0,0.0,-2.8257,-2.8417,-2.8604,-2.8724,-2.8858,-2.9045,-2.9045,-2.8951,-2.8778,-2.8657,-2.8511,-2.8323,-2.8288,-2.8221,-2.8221,0.0,0.0,0.0,-2.7362,-2.7028,-2.5518,-2.7402,-2.8221,-2.8221,-2.8221,-2.8221,-2.8221,0.0,0.0,0.0,0.0,0.0,0.0,0.0,0.0,-0.0192,-0.072,-0.1898,-0.2861,-0.3241,-0.4294,-0.4877,-0.4648,-0.4423,0.0,0.0,0.0,0.0,0.0,0.0,0.0,0.0,0.0,0.0,0.0,0.0,0.0,0.0,0.0,0.0,0.0,0.0,0.0,0.0,0.0,0.0,0.0,0.0,0.0,0.0,0.0,0.0,0.0,0.0,0.0,0.0,0.0,0.0,0.0,0.0,0.0,0.0,0.0,-0.8994,-0.9978,-1.0141,-1.0928,-1.164,-1.1389,-1.0772,-0.9924,0.0,0.0,-0.6912,-0.5989,-0.5603,-0.5487,-0.5745,-0.58,-0.6118,-0.7082,-0.8412,-1.0452,-1.3768,0.0,0.0,0.0,0.0,0.0,0.0,0.0,0.0,0.0,0.0,0.0,0.0,0.0,-2.8328,-2.847,-2.847,-2.8564,-2.8778,-2.8778,-2.8671,-2.847,-2.847,-2.8177,-2.7712,-2.8073,-2.8033,0.0,0.0,0.0,0.0,-2.7321,-2.6961,-2.5358,-2.7362,-2.8221,-2.8221,-2.8221,-2.8221,-2.8221,0.0,0.0,0.0,0.0,0.0,0.0,0.0,0.0,0.0,0.0,-0.1586,-0.2649,-0.2513,-0.4073,-0.5036,-0.4894,-0.4662,0.0,0.0,0.0,0.0,0.0,0.0,0.0,0.0,0.0,-0.5096,-0.5096,-0.5284,-0.5277,0.0,0.0,0.0,0.0,0.0,0.0,0.0,0.0,0.0,0.0,0.0,0.0,0.0,0.0,0.0,0.0,0.0,0.0,0.0,0.0,0.0,0.0,0.0,0.0,0.0,0.0,-0.8459,-0.9419,-1.0249,-1.0934,-1.1355,-1.1275,-1.0385,-0.9422,0.0,-0.7563,-0.6532,-0.5928,-0.5603,-0.5487,-0.5745,-0.58,-0.6051,-0.6768,-0.8268,-0.9953,-1.1791,0.0,0.0,0.0,0.0,0.0,0.0,0.0,0.0,0.0,0.0,0.0,0.0,0.0,-2.8221,-2.8234,-2.8234,-2.8234,-2.8234,-2.8234,-2.8234,-2.8234,-2.8234,-2.7618,-2.6453,-2.7698,0.0,0.0,0.0,0.0,0.0,-2.7738,-2.7442,-2.6493,-2.7765,-2.8221,-2.8221,-2.8221,-2.8221,-2.8221,0.0,0.0,0.0,0.0,0.0,0.0,0.0,0.0,0.0,0.0,-0.1486,-0.2554,-0.2492,-0.3985,-0.4935,-0.4894,-0.483,0.0,0.0,0.0,0.0,0.0,0.0,0.0,0.0,-0.5296,-0.5386,-0.5589,-0.5637,-0.5691,-0.571,-0.5637,0.0,0.0,0.0,0.0,0.0,0.0,0.0,0.0,0.0,0.0,0.0,0.0,0.0,0.0,0.0,0.0,0.0,0.0,0.0,0.0,0.0,0.0,0.0,-0.6376,0.0,0.0,-0.8438,-0.9103,-0.9652,-0.9395,-0.9008,-0.8526,-0.7875,-0.7153,-0.6403,-0.5901,-0.565,-0.5576,-0.5766,-0.5888,-0.6263,-0.736,-0.7933,0.0,0.0,0.0,0.0,0.0,0.0,0.0,0.0,0.0,0.0,0.0,0.0,0.0,0.0,0.0,-2.8221,-2.8221,-2.8221,-2.8221,-2.8221,-2.8221,-2.8221,-2.8221,-2.8221,-2.7604,-2.6426,-2.7685,0.0,0.0,0.0,0.0,0.0,-2.7738,-2.7537,-2.6507,-2.7765,-2.8221,-2.8221,-2.8221,-2.8221,-2.8221,0.0,0.0,0.0,0.0,0.0,0.0,0.0,0.0,0.0,0.0,-0.1457,-0.2535,-0.2582,-0.4027,-0.4995,-0.5081,-0.5087,0.0,0.0,0.0,0.0,0.0,0.0,0.0,-0.5392,-0.5392,-0.5542,-0.58,-0.58,-0.5908,-0.6112,-0.6017,-0.5813,-0.5556,0.0,0.0,0.0,0.0,0.0,0.0,0.0,0.0,0.0,0.0,0.0,0.0,0.0,0.0,0.0,0.0,0.0,0.0,0.0,0.0,0.0,0.0,-0.6322,-0.7021,0.0,-0.8174,-0.8723,-0.8526,-0.8208,-0.7883,-0.7501,-0.6818,-0.6139,-0.5861,-0.5779,-0.5766,-0.5793,-0.6017,-0.6424,-0.7115,-0.7556,0.0,0.0,0.0,0.0,0.0,0.0,0.0,0.0,0.0,0.0,0.0,0.0,0.0,0.0,0.0,-2.8221,-2.8221,-2.8221,-2.8221,-2.8221,-2.8221,-2.8221,-2.8221,-2.8221,-2.7604,-2.6426,0.0,0.0,0.0,0.0,0.0,0.0,-2.7926,-2.7792,-2.7121,-2.7939,-2.8221,-2.8221,-2.8221,-2.8221,-2.8221,0.0,0.0,0.0,0.0,0.0,0.0,0.0,0.0,0.0,0.0,-0.1457,-0.2535,-0.2659,-0.4114,-0.5176,-0.5365,0.0,0.0,0.0,0.0,0.0,0.0,0.0,0.0,-0.5392,-0.5405,-0.5556,-0.582,-0.584,-0.6003,-0.6334,-0.6334,-0.6163,-0.582,-0.5806,-0.5637,0.0,0.0,0.0,0.0,0.0,0.0,0.0,0.0,0.0,0.0,0.0,0.0,0.0,0.0,0.0,0.0,0.0,0.0,0.0,0.0,0.0,0.0,0.0,-0.7875,0.0,0.0,-0.7767,-0.7303,-0.7303,-0.6491,0.0,-0.5813,-0.5942,-0.5966,-0.5874,-0.6213,-0.6532,-0.6443,-0.7217,0.0,0.0,0.0,0.0,0.0,0.0,0.0,0.0,0.0,0.0,0.0,0.0,0.0,0.0,0.0,0.0,-2.8221,-2.8221,-2.8221,-2.8221,-2.8221,-2.8181,-2.81,-2.8181,-2.7482,-2.6306,0.0,0.0,0.0,0.0,0.0,0.0,-2.8221,-2.8221,-2.8221,-2.8221,-2.8221,-2.8221,-2.8221,-2.8221,-2.8221,0.0,0.0,0.0,0.0,0.0,0.0,0.0,0.0,0.0,0.0,-0.1331,-0.2341,-0.2528,-0.3975,-0.4995,0.0,0.0,0.0,0.0,0.0,0.0,0.0,0.0,0.0,-0.5392,-0.5508,-0.5684,-0.5939,-0.6207,-0.641,-0.66,-0.66,-0.6376,-0.5932,-0.5854,-0.5637,0.0,0.0,0.0,0.0,0.0,0.0,0.0,0.0,0.0,0.0,0.0,0.0,0.0,0.0,0.0,0.0,0.0,0.0,0.0,0.0,-0.5583,-0.5725,-0.6118,0.0,-0.6403,-0.6295,-0.622,-0.6173,0.0,-0.5895,-0.5705,-0.5928,-0.6098,-0.6265,-0.634,-0.6681,-0.7078,-0.755,0.0,0.0,0.0,0.0,0.0,0.0,0.0,0.0,0.0,0.0,0.0,0.0,0.0,0.0,0.0,0.0,0.0,-2.8221,-2.8221,-2.8221,-2.8221,-2.8221,-2.7779,-2.6814,-2.7792,-2.7054,-2.5117,0.0,0.0,0.0,0.0,0.0,-2.8221,-2.8221,-2.8221,-2.8221,-2.8221,-2.8221,-2.8221,-2.8221,-2.8221,-2.8221,0.0,0.0,0.0,0.0,0.0,0.0,0.0,0.0,0.0,0.0,0.0,-0.2298,-0.2554,-0.362,0.0,0.0,0.0,0.0,0.0,0.0,0.0,0.0,0.0,-0.5392,-0.5392,-0.5542,-0.5732,-0.5993,-0.6261,-0.6525,-0.6803,-0.6803,-0.6566,-0.6118,-0.5759,-0.5542,0.0,0.0,0.0,0.0,0.0,0.0,0.0,0.0,0.0,0.0,0.0,-0.4904,0.0,-0.5257,-0.542,-0.5589,0.0,0.0,0.0,0.0,-0.5521,-0.5535,-0.561,-0.58,-0.6044,-0.6173,-0.6105,-0.6064,-0.6274,-0.5942,-0.5677,-0.5932,-0.6152,-0.632,-0.6402,-0.6742,0.0,0.0,0.0,0.0,0.0,0.0,0.0,0.0,0.0,0.0,0.0,0.0,0.0,0.0,0.0,0.0,0.0,0.0,0.0,0.0,-2.8221,-2.8221,-2.8221,-2.8221,-2.7549,-2.64,-2.7575,-2.7188,-2.5504,0.0,0.0,0.0,0.0,0.0,-2.8194,-2.7709,-2.7776,-2.8221,-2.8221,-2.8221,-2.8221,-2.8221,-2.8221,-2.8221,0.0,0.0,0.0,0.0,0.0,0.0,0.0,0.0,0.0,0.0,0.0,0.0,0.0,0.0,0.0,0.0,0.0,0.0,0.0,0.0,0.0,0.0,-0.5392,-0.5405,-0.5433,-0.5556,-0.5732,-0.5993,-0.6207,-0.6498,-0.6856,-0.6896,-0.6709,-0.6272,-0.5692,-0.5419,-0.5392,0.0,0.0,0.0,0.0,0.0,0.0,0.0,0.0,0.0,0.0,0.0,0.0,-0.4979,-0.5257,-0.5569,-0.5474,0.0,0.0,0.0,0.0,0.0,-0.5446,-0.589,-0.6416,-0.6709,-0.6505,-0.6368,-0.6736,0.0,0.0,0.0,0.0,0.0,0.0,-0.6851,0.0,0.0,0.0,0.0,0.0,0.0,0.0,0.0,0.0,0.0,0.0,0.0,0.0,0.0,0.0,0.0,0.0,0.0,0.0,0.0,-2.7096,-2.7096,-2.7096,-2.7883,-2.7549,-2.64,-2.7575,-2.7604,-2.6426,-2.7685,0.0,0.0,0.0,0.0,-2.8167,-2.7335,-2.7468,-2.8221,-2.8221,-2.8221,-2.8221,-2.8221,-2.7968,-2.7604,0.0,0.0,0.0,0.0,0.0,0.0,0.0,0.0,0.0,0.0,0.0,0.0,0.0,0.0,0.0,0.0,0.0,0.0,0.0,0.0,0.0,-0.5352,-0.5392,-0.5453,-0.5549,-0.5576,-0.5732,-0.5993,-0.6308,-0.6539,-0.6742,-0.695,-0.6803,-0.6279,-0.5801,-0.5515,-0.5392,-0.5392,0.0,0.0,0.0,0.0,0.0,0.0,0.0,0.0,0.0,0.0,0.0,-0.5283,-0.546,-0.5589,-0.5562,0.0,0.0,0.0,0.0,0.0,-0.5664,-0.6078,-0.6436,-0.6213,-0.6081,-0.6118,-0.6354,-0.6057,-0.5928,0.0,0.0,0.0,0.0,-0.7875,0.0,0.0,0.0,0.0,0.0,0.0,0.0,0.0,0.0,0.0,0.0,0.0,0.0,0.0,0.0,0.0,0.0,0.0,0.0,0.0,0.0,-2.2256,-2.2256,-2.6236,-2.7549,-2.64,-2.7575,-2.7604,-2.6426,-2.7685,-2.8221,0.0,0.0,-2.81,-2.8221,-2.8073,-2.81,-2.8221,-2.8221,-2.8221,-2.8221,-2.8221,-2.6927,-2.4888,0.0,0.0,0.0,0.0,0.0,0.0,0.0,0.0,0.0,0.0,0.0,0.0,0.0,0.0,0.0,0.0,0.0,0.0,0.0,0.0,-0.4452,-0.5474,-0.5521,-0.5549,-0.5589,-0.5745,-0.5935,-0.6152,-0.6532,-0.6756,-0.6824,-0.6715,-0.6478,-0.6118,-0.5699,-0.546,-0.5392,-0.5392,-0.5392,0.0,0.0,0.0,0.0,0.0,0.0,0.0,0.0,0.0,0.0,0.0,-0.5338,-0.5515,-0.5562,0.0,0.0,0.0,0.0,0.0,-0.5562,-0.5895,-0.6315,-0.6668,-0.6634,-0.668,-0.7522,-0.6844,-0.6375,-0.7339,0.0,0.0,0.0,0.0,0.0,0.0,0.0,0.0,0.0,0.0,0.0,0.0,0.0,0.0,0.0,0.0,0.0,0.0,0.0,0.0,0.0,0.0,0.0,0.0,0.0,0.0,-2.1221,-2.3373,-2.3816,-2.2671,-2.5116,-2.4984,-2.2694,-2.3862,-2.4411,-2.4388,0.0,-2.3955,-2.4388,-2.3885,-2.3955,-2.4411,-2.4411,-2.4411,-2.4399,-2.4345,-2.3613,-2.2349,0.0,0.0,0.0,0.0,0.0,0.0,0.0,0.0,0.0,0.0,0.0,0.0,0.0,0.0,0.0,0.0,0.0,0.0,0.0,-0.4009,-0.4463,-0.5521,-0.5569,-0.5637,-0.5745,-0.5935,-0.6159,-0.6457,-0.6722,-0.6869,-0.6923,-0.6519,-0.6265,-0.6064,-0.5651,-0.5426,-0.5392,-0.5392,-0.5392,0.0,0.0,0.0,0.0,0.0,0.0,0.0,0.0,0.0,0.0,0.0,0.0,0.0,0.0,0.0,0.0,-0.5555,-0.5515,-0.5419,-0.5521,-0.5793,-0.6281,-0.7109,-0.7068,-0.7204,-0.8655,-0.7651,-0.6852,-0.8245,-0.7706,0.0,0.0,0.0,0.0,0.0,0.0,0.0,0.0,0.0,0.0,0.0,0.0,0.0,0.0,0.0,0.0,0.0,0.0,0.0,0.0,0.0,0.0,0.0,0.0,0.0,-1.9575,-2.0096,-2.0197,-1.9891,-2.2605,-2.2488,-1.9911,-2.0833,-2.1221,-2.1191,-2.0517,-2.0587,-2.1181,-2.0447,-2.0517,-2.114,-2.109,-2.1155,-2.1049,-2.0357,-2.0085,-1.9796,0.0,0.0,0.0,0.0,0.0,0.0,0.0,0.0,0.0,0.0,0.0,0.0,0.0,0.0,0.0,0.0,0.0,0.0,0.0,-0.4009,-0.4423,-0.5372,-0.5549,-0.5822,-0.6238,-0.6091,-0.6269,-0.6836,-0.677,-0.6858,-0.7071,-0.6668,-0.6422,-0.6265,-0.5808,-0.5528,-0.5392,-0.5392,-0.5392,-0.5392,-0.5392,0.0,0.0,0.0,0.0,0.0,0.0,0.0,0.0,0.0,0.0,0.0,0.0,0.0,-0.5576,-0.5589,-0.5515,-0.5487,-0.5867,-0.6112,-0.6429,-0.6957,-0.6831,-0.7009,-0.8791,-0.7963,-0.7299,-0.8838,-0.8743,-0.8486,0.0,0.0,0.0,0.0,0.0,0.0,0.0,0.0,0.0,0.0,0.0,0.0,0.0,0.0,0.0,0.0,0.0,0.0,0.0,0.0,0.0,0.0,0.0,0.0,-1.4822,-1.6984,-1.9026,-2.1044,-2.1363,-2.1363,-2.1044,-2.1191,-2.1221,-2.1221,-2.1171,-2.1181,-2.1201,-2.1023,-2.0952,-2.0972,-2.0864,-2.0866,-2.0531,-1.8406,-1.744,-1.7026,0.0,0.0,0.0,0.0,0.0,0.0,0.0,0.0,0.0,0.0,0.0,0.0,0.0,0.0,0.0,0.0,0.0,0.0,0.0,-0.4879,-0.5074,-0.5494,-0.5555,-0.5752,-0.6112,-0.624,-0.6552,-0.7018,-0.7102,-0.7122,-0.7085,-0.6593,-0.63,-0.6098,-0.5685,-0.5501,-0.5528,-0.5433,-0.5446,-0.5528,-0.5433,0.0,0.0,0.0,0.0,0.0,0.0,0.0,0.0,0.0,-0.5433,-0.5487,-0.5528,-0.5542,-0.561,-0.5698,-0.5616,-0.5576,-0.5711,-0.6003,-0.6511,-0.7339,-0.7217,-0.7333,-0.9049,-0.8635,-0.837,-1.0115,-0.953,-0.8818,0.0,0.0,0.0,0.0,0.0,0.0,0.0,0.0,0.0,0.0,0.0,0.0,0.0,0.0,0.0,0.0,0.0,0.0,0.0,0.0,0.0,0.0,0.0,0.0,0.0,-1.4866,-1.5714,-1.6653,-1.8252,-1.8287,-1.6904,-1.6904,-1.684,-1.6822,-1.6822,-1.6671,-1.6559,-1.6572,-1.6548,-1.6539,-1.6475,-1.6386,-1.6213,-1.5294,-1.4937,-1.4629,0.0,0.0,0.0,0.0,0.0,0.0,0.0,0.0,0.0,0.0,0.0,0.0,0.0,0.0,0.0,0.0,0.0,0.0,-0.5292,-0.5392,-0.544,-0.5549,-0.5562,-0.5705,-0.5912,-0.6295,-0.6668,-0.7031,-0.7272,-0.7272,-0.7018,-0.6614,-0.6315,-0.6152,-0.5752,-0.563,-0.5718,-0.5549,-0.5528,-0.5576,-0.5453,-0.533,0.0,0.0,0.0,0.0,0.0,0.0,0.0,0.0,-0.5426,-0.5481,-0.5535,-0.5583,-0.5671,-0.5718,-0.5698,-0.5657,-0.5657,-0.5915,-0.6417,-0.736,-0.7321,-0.7564,-0.9415,-0.9198,-0.9096,-1.0751,-1.0317,-0.9612,-0.9458,0.0,0.0,0.0,0.0,0.0,0.0,0.0,0.0,0.0,0.0,0.0,0.0,0.0,0.0,0.0,0.0,0.0,0.0,0.0,0.0,0.0,0.0,0.0,0.0,-1.3838,-1.3838,-1.3844,-1.5673,-1.57,-1.4156,-1.4156,-1.4095,-1.4,-1.4,-1.3939,-1.3838,-1.3705,-1.3743,-1.3702,-1.3702,-1.3641,-1.3559,-1.3559,-1.3492,-1.3403,0.0,0.0,0.0,0.0,0.0,0.0,0.0,0.0,0.0,0.0,0.0,0.0,0.0,0.0,0.0,0.0,0.0,0.0,-0.5292,-0.5392,-0.5392,-0.5392,-0.5542,-0.565,-0.5793,-0.624,-0.662,-0.6883,-0.7224,-0.7217,-0.6883,-0.677,-0.6614,-0.6497,-0.6166,-0.5993,-0.5973,-0.5718,-0.5596,-0.5576,-0.5453,-0.5392,-0.5365,0.0,0.0,0.0,0.0,0.0,0.0,0.0,-0.5494,-0.5562,-0.5446,-0.5597,-0.5772,-0.5637,-0.5691,-0.58,-0.5806,-0.5922,-0.6175,-0.6916,-0.7105,-0.7658,-0.9795,-0.9585,-0.9276,-1.0611,-1.1063,-1.1077,-1.0772,-1.0853,0.0,0.0,0.0,0.0,0.0,0.0,0.0,0.0,0.0,0.0,0.0,0.0,0.0,0.0,0.0,0.0,0.0,0.0,0.0,0.0,0.0,0.0,0.0,-1.3838,-1.3838,-1.3838,-1.3838,-1.3838,-1.3838,-1.3838,-1.3838,-1.3838,-1.3838,-1.3838,-1.3824,-1.3688,-1.3539,-1.3403,-1.3403,-1.3403,-1.3403,-1.3403,-1.3403,-1.3403,0.0,0.0,0.0,0.0,0.0,0.0,0.0,0.0,0.0,0.0,0.0,0.0,0.0,0.0,0.0,0.0,0.0,0.0,-0.5292,-0.5392,-0.5392,-0.5392,-0.544,-0.5535,-0.565,-0.5989,-0.641,-0.6883,-0.7021,-0.6959,-0.6763,-0.6512,-0.6409,-0.6368,-0.6451,-0.6268,-0.5874,-0.604,-0.5917,-0.5576,-0.5453,-0.5392,-0.5371,0.0,0.0,0.0,0.0,0.0,0.0,0.0,0.0,0.0,-0.5535,-0.565,-0.5833,-0.6047,-0.6017,-0.5983,-0.6091,-0.6308,0.0,-0.717,0.0,0.0,-0.9357,-0.9693,-1.0175,-1.1206,-1.1369,-1.1165,-1.0656,0.0,0.0,0.0,0.0,0.0,0.0,0.0,0.0,0.0,0.0,0.0,0.0,0.0,0.0,0.0,0.0,0.0,0.0,0.0,0.0,0.0,0.0,0.0,0.0,0.0,-1.3532,-1.3532,-1.3532,-1.3641,-1.3838,-1.3838,-1.3783,-1.3695,-1.3695,-1.3634,-1.3526,-1.3485,-1.3444,-1.3403,-1.3403,-1.3403,-1.3403,-1.3403,-1.3403,-1.3403,0.0,0.0,0.0,0.0,0.0,0.0,0.0,0.0,0.0,0.0,0.0,0.0,0.0,0.0,0.0,0.0,0.0,0.0,-0.5292,-0.5392,-0.5392,-0.5392,-0.5392,-0.5494,-0.5671,-0.5908,-0.6168,-0.6532,-0.6634,-0.6614,-0.6525,-0.6504,-0.6477,-0.6484,-0.6681,-0.6525,-0.6071,-0.6139,-0.5976,-0.5657,-0.5549,-0.5487,-0.546,0.0,0.0,0.0,0.0,0.0,0.0,0.0,0.0,0.0,-0.5399,-0.5589,-0.5813,-0.5917,-0.604,-0.6193,-0.6519,-0.6783,0.0,-0.8113,-0.8574,-0.8988,-0.9707,0.0,0.0,0.0,0.0,-1.1565,0.0,0.0,0.0,0.0,0.0,0.0,0.0,0.0,0.0,0.0,0.0,0.0,0.0,0.0,0.0,0.0,0.0,0.0,0.0,0.0,0.0,0.0,0.0,0.0,0.0,0.0,0.0,-1.3403,-1.3403,-1.3492,-1.3668,-1.3668,-1.362,-1.3539,-1.3539,-1.3485,-1.3403,-1.3403,-1.3403,-1.3403,-1.3403,-1.3403,-1.3403,-1.3403,-1.3403,-1.3403,0.0,0.0,0.0,0.0,0.0,0.0,0.0,0.0,0.0,0.0,0.0,0.0,0.0,0.0,0.0,0.0,0.0,0.0,0.0,-0.5392,-0.5392,-0.5392,-0.5405,-0.5542,-0.5779,-0.5922,-0.5946,-0.5932,-0.6139,-0.6265,-0.6286,-0.6525,-0.6668,-0.6688,-0.6865,-0.6756,-0.6457,-0.6159,-0.5935,-0.5752,-0.5623,-0.5569,-0.5542,-0.5257,0.0,0.0,0.0,0.0,0.0,0.0,0.0,0.0,-0.5196,-0.5433,-0.5711,-0.5508,-0.5856,-0.645,-0.7,-0.7285,0.0,-0.9313,-0.9354,0.0,-1.0691,-1.0981,-1.1237,-1.2298,0.0,0.0,0.0,0.0,0.0,0.0,0.0,0.0,0.0,0.0,0.0,0.0,0.0,0.0,0.0,0.0,0.0,0.0,0.0,0.0,0.0,0.0,0.0,0.0,0.0,0.0,0.0,0.0,0.0,0.0,-1.3363,-1.3363,-1.3363,-1.339,-1.3403,-1.3403,-1.3403,-1.3403,-1.3403,-1.3403,-1.3403,-1.3403,-1.3403,-1.3403,-1.3397,-1.3383,-1.3376,-1.3376,0.0,0.0,0.0,0.0,0.0,0.0,0.0,0.0,0.0,0.0,0.0,0.0,0.0,0.0,0.0,0.0,0.0,0.0,0.0,-0.5392,-0.5392,-0.5392,-0.5515,-0.5569,-0.5637,-0.5664,-0.5623,-0.5542,-0.5772,-0.5962,-0.6084,-0.6268,-0.6457,-0.6539,-0.6926,-0.6694,-0.6132,-0.6186,-0.5958,-0.5487,-0.5453,-0.5446,-0.544,-0.5371,-0.5365,0.0,0.0,0.0,0.0,0.0,0.0,0.0,-0.5358,-0.5412,-0.5521,-0.5657,-0.6051,-0.66,-0.7156,-0.7516,0.0,0.0,-0.9205,-1.0046,-1.164,-1.1816,-1.1803,0.0,0.0,0.0,0.0,0.0,0.0,0.0,0.0,0.0,0.0,0.0,0.0,0.0,0.0,0.0,0.0,0.0,0.0,0.0,0.0,0.0,0.0,0.0,0.0,0.0,0.0,0.0,-1.3057,-1.3057,-1.3057,0.0,-1.3057,-1.3057,-1.3064,-1.3295,-1.3403,-1.3403,-1.3403,-1.3403,-1.3403,-1.3403,-1.3403,-1.3403,-1.3403,-1.3403,-1.339,-1.3268,-1.322,-1.3207,0.0,0.0,0.0,0.0,0.0,0.0,0.0,0.0,0.0,0.0,0.0,0.0,0.0,0.0,0.0,0.0,0.0,0.0,0.0,-0.5392,-0.5392,-0.5392,-0.5474,-0.5515,-0.5515,-0.5555,-0.5549,-0.5392,-0.5549,-0.5739,-0.6,-0.6261,-0.6518,-0.6695,-0.6858,-0.6552,-0.5993,-0.6037,-0.5815,-0.5399,-0.5474,-0.5501,-0.5487,-0.5304,-0.525,-0.5243,-0.5176,0.0,0.0,0.0,0.0,0.0,0.0,0.0,-0.5399,-0.5379,-0.5745,-0.6315,-0.7061,0.0,0.0,-0.9313,0.0,0.0,0.0,0.0,0.0,0.0,0.0,0.0,0.0,0.0,0.0,0.0,0.0,0.0,0.0,0.0,0.0,0.0,0.0,0.0,0.0,0.0,0.0,0.0,0.0,0.0,0.0,0.0,0.0,0.0,0.0,0.0,-1.2963,-1.2963,-1.2963,-1.2963,-1.2963,-1.2963,-1.2969,-1.3119,-1.3193,-1.3193,-1.3193,-1.3193,-1.3193,-1.3193,-1.3193,-1.3193,-1.3193,-1.3193,-1.318,-1.3098,-1.3071,-1.3064,0.0,0.0,0.0,0.0,0.0,0.0,0.0,0.0,0.0,0.0,0.0,0.0,0.0,0.0,0.0,0.0,0.0,0.0,0.0,-0.5392,-0.5339,-0.5192,-0.5339,-0.5405,-0.5433,-0.5474,-0.546,-0.5392,-0.5392,-0.5706,-0.6268,-0.6485,-0.6763,-0.7031,-0.6865,-0.6512,-0.6057,-0.5827,-0.5617,-0.5405,-0.5535,-0.5549,-0.5521,-0.5204,-0.5096,-0.5076,-0.4941,-0.4982,-0.5117,-0.5277,0.0,0.0,0.0,0.0,-0.5269,-0.4992,-0.5338,-0.5976,0.0,0.0,-0.8872,0.0,0.0,0.0,0.0,0.0,0.0,0.0,0.0,0.0,0.0,0.0,0.0,0.0,0.0,0.0,0.0,0.0,0.0,0.0,0.0,0.0,0.0,0.0,0.0,0.0,0.0,0.0,0.0,0.0,0.0,0.0,0.0,-1.2881,-1.2881,-1.2881,-1.2881,-1.2881,-1.2881,-1.2881,-1.2881,-1.2881,-1.2915,-1.2963,-1.2963,-1.2963,-1.2963,-1.2963,-1.2963,-1.2963,-1.2963,-1.2963,-1.3036,-1.2929,-1.2922,-1.2915,0.0,0.0,0.0,0.0,0.0,0.0,0.0,0.0,0.0,0.0,0.0,-0.0303,-0.1039,-0.1967,0.0,0.0,0.0,0.0,-0.5385,0.0,0.0,-0.4402,-0.5023,-0.5453,-0.5555,-0.5318,-0.525,-0.5392,-0.5392,-0.6027,-0.719,-0.7095,-0.7233,-0.7672,-0.722,-0.6763,-0.6231,-0.5685,-0.5433,-0.5399,-0.5419,-0.5426,-0.5405,-0.5196,-0.5096,-0.5076,-0.4941,-0.4982,-0.5103,-0.5123,-0.525,0.0,0.0,0.0,0.0,0.0,-0.5338,-0.5888,0.0,0.0,0.0,0.0,0.0,0.0,0.0,0.0,0.0,0.0,0.0,0.0,0.0,0.0,0.0,0.0,0.0,0.0,0.0,0.0,0.0,0.0,0.0,0.0,0.0,0.0,0.0,0.0,0.0,0.0,0.0,0.0,-1.2562,-1.2562,-1.2562,0.0,-1.2562,-1.2562,-1.2562,-1.2562,-1.2562,-1.2562,-1.2562,-1.2562,-1.2712,-1.2963,-1.2963,-1.2963,-1.2963,-1.2963,-1.2963,-1.2963,-1.2963,-1.2963,-1.2942,-1.2807,-1.2759,-1.2745,0.0,0.0,0.0,0.0,0.0,0.0,0.0,0.0,0.0,0.0,0.0,-0.0337,-0.1207,-0.2087,0.0,0.0,0.0,0.0,-0.4602,-0.5003,0.0,-0.4873,-0.5114,-0.5264,-0.5332,-0.5164,-0.513,-0.523,-0.5155,-0.6064,-0.7924,-0.7807,-0.7875,-0.8058,-0.7862,-0.7163,-0.6118,-0.5979,-0.5658,-0.5237,-0.5358,-0.5549,-0.5684,-0.5164,-0.5137,-0.5338,-0.4938,-0.483,-0.4911,-0.5042,-0.5176,-0.5209,-0.5029,0.0,0.0,0.0,0.0,0.0,-0.6898,0.0,0.0,0.0,0.0,0.0,0.0,0.0,0.0,0.0,0.0,0.0,0.0,0.0,0.0,0.0,0.0,0.0,0.0,0.0,0.0,0.0,0.0,0.0,0.0,0.0,0.0,0.0,0.0,0.0,0.0,-1.2535,-1.2501,-1.2501,-1.2501,0.0,-1.2501,-1.2501,-1.2501,-1.2501,-1.2501,-1.2501,-1.2501,-1.2501,-1.2576,-1.2705,-1.2705,-1.2705,-1.2705,-1.2705,-1.2705,-1.2705,-1.2705,-1.2705,-1.2698,-1.2623,-1.2603,-1.2589,0.0,0.0,0.0,0.0,0.0,0.0,0.0,0.0,0.0,0.0,0.0,-0.0337,-0.1207,0.0,0.0,0.0,0.0,0.0,-0.3614,0.0,0.0,0.0,-0.51,-0.5137,-0.5096,-0.5063,-0.5049,-0.5049,-0.4975,-0.6023,-0.8095,-0.8275,-0.8465,-0.8608,-0.8492,-0.7733,-0.6492,-0.6376,-0.6051,-0.5609,-0.5684,-0.5854,-0.603,-0.5515,-0.5521,-0.5739,-0.5135,-0.4945,-0.4986,-0.5063,-0.5123,-0.5162,-0.4988,-0.4914,0.0,0.0,0.0,0.0,0.0,0.0,0.0,0.0,0.0,0.0,0.0,0.0,0.0,0.0,0.0,0.0,0.0,0.0,0.0,0.0,0.0,0.0,0.0,0.0,0.0,0.0,0.0,0.0,0.0,0.0,0.0,0.0,0.0,0.0,-1.2393,-1.2386,-1.2386,-1.2386,-1.2427,-1.2447,-1.2447,-1.2481,-1.2501,-1.2501,-1.2501,-1.2501,-1.2501,-1.2501,-1.2501,-1.2501,-1.2501,-1.2501,-1.2501,-1.2501,-1.2501,-1.2501,-1.2501,-1.2501,-1.2501,-1.2501,-1.2501,-1.2501,0.0,0.0,0.0,0.0,0.0,0.0,0.0,0.0,0.0,0.0,0.0,-0.0337,-0.1207,-0.1245,-0.161,-0.2659,-0.2658,0.0,0.0,0.0,0.0,0.0,0.0,0.0,-0.5103,-0.4968,-0.4901,-0.4901,-0.5022,-0.5908,-0.748,-0.8289,-0.8994,-0.9523,-0.9096,-0.8494,-0.782,-0.6878,-0.6681,-0.697,-0.6742,-0.6478,-0.63,-0.6395,-0.6443,-0.6388,-0.5759,-0.563,-0.5684,-0.5238,-0.523,-0.5358,-0.5169,-0.4995,-0.486,0.0,0.0,0.0,0.0,0.0,0.0,0.0,0.0,0.0,0.0,0.0,0.0,0.0,0.0,0.0,0.0,0.0,0.0,0.0,0.0,0.0,0.0,0.0,0.0,0.0,0.0,0.0,0.0,0.0,0.0,0.0,0.0,0.0,-1.2169,-1.2088,-1.2088,-1.2088,-1.2223,-1.2298,-1.2298,-1.2433,-1.2501,-1.2501,-1.2501,-1.2501,-1.2501,-1.2501,-1.2501,-1.2501,-1.2501,-1.2501,-1.2501,-1.2501,-1.2501,-1.2501,-1.2501,-1.2501,-1.2501,-1.2501,-1.2501,-1.2501,0.0,0.0,0.0,0.0,0.0,0.0,0.0,0.0,0.0,0.0,0.0,0.0,0.0,-0.1263,-0.1594,-0.2506,-0.2976,0.0,0.0,0.0,0.0,0.0,0.0,0.0,-0.5103,-0.4961,-0.4887,-0.4887,-0.487,-0.5569,-0.6953,-0.7461,-0.7975,-0.8581,-0.9442,-0.9144,-0.7968,-0.7638,-0.7129,-0.6614,-0.7088,-0.7041,-0.6709,-0.6844,-0.7082,-0.7217,-0.6375,-0.6149,-0.6179,-0.5791,-0.5555,-0.5365,-0.5176,-0.4935,-0.4721,-0.4449,-0.4504,-0.4859,0.0,0.0,0.0,0.0,0.0,0.0,0.0,0.0,0.0,0.0,0.0,0.0,0.0,0.0,0.0,0.0,0.0,0.0,0.0,0.0,0.0,0.0,0.0,0.0,0.0,0.0,0.0,0.0,0.0,0.0,-1.2121,-1.1789,-1.1762,-1.2054,-1.2115,-1.2142,-1.2142,-1.2196,-1.2223,-1.2223,-1.2318,-1.2366,-1.2372,-1.2461,-1.2501,-1.2501,-1.2501,-1.2501,-1.2501,-1.2501,-1.2501,-1.2501,-1.2501,-1.2501,-1.2501,-1.2501,-1.2501,-1.2501,0.0,0.0,0.0,0.0,0.0,0.0,0.0,0.0,0.0,0.0,0.0,0.0,0.0,0.0,-0.1185,-0.204,-0.279,-0.3348,-0.3576,-0.4528,0.0,0.0,0.0,0.0,-0.5103,-0.5087,-0.4992,-0.4843,-0.4891,-0.5399,-0.6342,-0.6795,-0.7321,-0.7887,-0.8933,-0.9022,-0.8411,-0.8411,-0.7984,-0.7392,-0.7794,-0.7794,-0.755,-0.774,-0.7943,-0.8038,-0.7487,-0.7173,-0.6966,-0.6728,-0.6342,-0.5854,-0.5644,-0.5135,-0.46,-0.4375,-0.4457,-0.4755,-0.5406,0.0,0.0,0.0,0.0,0.0,0.0,0.0,0.0,0.0,0.0,0.0,0.0,0.0,0.0,0.0,0.0,0.0,0.0,0.0,0.0,0.0,0.0,0.0,0.0,0.0,0.0,0.0,0.0,0.0,-1.1898,-1.1633,-1.1626,-1.1972,-1.1986,-1.2006,-1.2135,-1.2135,-1.2135,-1.206,-1.2169,-1.221,-1.2216,-1.2311,-1.2379,-1.2433,-1.2433,-1.2461,-1.2501,-1.2501,-1.2501,-1.2501,-1.2501,-1.2501,-1.2501,-1.2501,-1.2501,-1.2501,0.0,0.0,0.0,0.0,0.0,0.0,0.0,0.0,0.0,0.0,0.0,0.0,0.0,0.0,0.0,-0.1261,-0.2037,-0.2825,-0.3582,-0.4559,-0.5029,-0.4894,-0.5228,-0.5284,-0.511,-0.5277,-0.5173,-0.4701,-0.5167,-0.546,-0.5589,-0.6471,-0.7115,-0.7543,-0.757,-0.814,-0.9139,-0.9159,-0.9241,-0.9279,-0.8886,-0.871,-0.8716,-0.9111,-0.8988,-0.8764,-0.9125,-0.871,-0.8035,-0.8029,-0.753,-0.6892,-0.6546,-0.5569,-0.4505,-0.4498,-0.4505,-0.4539,0.0,0.0,0.0,0.0,0.0,0.0,0.0,0.0,0.0,0.0,0.0,0.0,0.0,0.0,0.0,0.0,0.0,0.0,0.0,0.0,0.0,0.0,0.0,0.0,0.0,0.0,0.0,0.0,0.0,-1.1748,-1.1626,-1.1619,-1.1681,-1.1823,-1.1823,-1.1898,-1.2047,-1.2121,-1.2121,-1.2121,-1.2054,-1.2054,-1.2054,-1.2135,-1.2142,-1.2284,-1.2291,-1.2366,-1.2494,-1.2501,-1.2501,-1.2501,-1.2501,-1.2501,-1.2501,-1.2501,-1.2501,-1.2501,0.0,0.0,0.0,0.0,0.0,0.0,0.0,0.0,0.0,0.0,0.0,0.0,0.0,0.0,-0.0571,-0.2026,-0.2358,-0.3043,-0.4322,-0.475,-0.4928,-0.4887,-0.5094,-0.5223,-0.533,-0.523,-0.5081,-0.4857,-0.4979,-0.5067,-0.5114,-0.5576,-0.5922,-0.6173,-0.6824,-0.721,-0.7407,-0.7841,-0.7923,-0.7841,-0.8804,-0.8737,-0.8187,-0.9354,-0.9483,-0.9096,-0.9612,-0.953,-0.9157,-0.9049,-0.8364,-0.7346,-0.6108,-0.5296,-0.4769,-0.466,-0.4775,-0.4931,-0.487,0.0,0.0,0.0,0.0,0.0,0.0,0.0,0.0,0.0,0.0,0.0,0.0,0.0,0.0,0.0,0.0,0.0,0.0,0.0,0.0,0.0,0.0,0.0,0.0,0.0,0.0,0.0,0.0,-1.1244,-1.1606,-1.1619,-1.164,-1.1674,-1.1681,-1.1701,-1.1742,-1.1742,-1.1742,-1.1742,-1.1843,-1.1898,-1.1898,-1.2013,-1.2088,-1.2128,-1.2244,-1.2311,-1.2359,-1.2461,-1.2501,-1.2501,-1.2501,-1.2501,-1.2501,-1.2501,-1.2501,-1.2501,0.0,0.0,0.0,0.0,0.0,0.0,0.0,0.0,0.0,0.0,0.0,0.0,0.0,-0.0465,-0.1074,-0.1909,-0.2445,-0.3045,-0.3742,-0.3897,-0.3944,-0.3913,-0.4035,-0.4159,-0.4278,-0.4229,-0.4084,-0.39,-0.4315,-0.4473,-0.4375,-0.5001,-0.5311,-0.542,-0.5905,-0.62,-0.6268,-0.6742,-0.7272,-0.7847,-0.9022,-0.9293,-0.9144,-1.0202,-1.0317,-0.9992,-1.0649,-1.0582,-1.0181,-1.0283,-0.9408,-0.8038,-0.6682,-0.5779,-0.527,-0.5182,-0.5237,-0.5291,-0.5142,-0.5338,-0.5576,-0.5487,0.0,0.0,0.0,0.0,0.0,0.0,0.0,0.0,0.0,0.0,0.0,0.0,0.0,0.0,0.0,0.0,0.0,0.0,0.0,0.0,0.0,0.0,0.0,0.0,-1.1375,-1.1341,-1.1606,-1.1619,-1.1619,-1.1619,-1.1619,-1.1619,-1.1619,-1.1619,-1.1619,-1.1619,-1.1701,-1.1742,-1.1748,-1.1837,-1.1911,-1.1972,-1.206,-1.2169,-1.2298,-1.2379,-1.2447,-1.2501,-1.2501,-1.2501,-1.2501,-1.2501,-1.2501,-1.2501,0.0,0.0,0.0,0.0,0.0,0.0,0.0,0.0,0.0,0.0,0.0,0.0,0.0,-0.0974,-0.1522,-0.1336,-0.2299,-0.2785,-0.2504,-0.2608,-0.2624,-0.2506,-0.2624,-0.2688,-0.2709,-0.2812,-0.2746,-0.2502,-0.3402,-0.3771,-0.3642,-0.4535,-0.5006,-0.5096,-0.5096,-0.5291,-0.5589,-0.5915,-0.7027,-0.8621,-0.9286,-0.9998,0.0,0.0,-1.1233,-1.0981,-1.183,-1.164,-1.1008,-1.143,-1.0453,-0.8893,-0.7773,-0.6776,-0.6003,-0.5908,-0.58,-0.5677,-0.5562,-0.5617,-0.5739,-0.5912,-0.5595,0.0,-0.6376,-0.679,0.0,0.0,0.0,0.0,0.0,0.0,0.0,0.0,0.0,0.0,0.0,0.0,0.0,0.0,0.0,0.0,0.0,0.0,0.0,-1.1565,-1.1586,-1.1592,-1.1592,-1.1613,-1.1619,-1.1619,-1.1619,-1.1619,-1.1619,-1.1619,-1.1619,-1.1619,-1.1619,-1.1619,-1.1619,-1.1619,-1.1687,-1.1809,-1.1823,-1.1986,-1.2244,-1.2277,-1.2372,-1.2501,-1.2501,-1.2501,-1.2501,-1.2501,-1.2501,-1.2501,0.0,0.0,0.0,0.0,0.0,0.0,0.0,0.0,0.0,0.0,0.0,0.0,0.0,-0.0204,-0.0605,-0.1241,-0.15,-0.1907,-0.2466,-0.2523,-0.2537,-0.2506,-0.2513,-0.2607,-0.2709,-0.2727,-0.2649,-0.2486,-0.2704,-0.3134,-0.3778,-0.3857,-0.4321,-0.5096,-0.5096,-0.523,-0.5474,-0.602,-0.6805,-0.7726,-0.8859,-0.9618,-1.0233,-1.1348,-1.1416,-1.1008,-1.206,-1.202,-1.1443,-1.1103,-1.0609,-0.9747,0.0,0.0,-0.7278,-0.6552,-0.641,-0.6451,-0.6334,-0.6313,-0.6265,-0.5922,0.0,0.0,0.0,-0.5942,0.0,0.0,0.0,0.0,0.0,0.0,0.0,0.0,0.0,0.0,0.0,0.0,0.0,0.0,0.0,0.0,0.0,0.0,-1.1253,-1.1253,-1.1369,-1.1436,-1.1436,-1.1552,-1.1619,-1.1619,-1.1619,-1.1619,-1.1619,-1.1619,-1.1619,-1.1619,-1.1619,-1.1619,-1.1619,-1.1619,-1.1633,-1.1667,-1.1782,-1.1864,-1.1938,-1.2189,-1.2372,-1.2501,-1.2501,-1.2501,-1.2501,-1.2501,-1.2501,-1.2501,0.0,0.0,0.0,0.0,0.0,0.0,0.0,0.0,0.0,0.0,0.0,0.0,0.0,-0.0516,-0.085,-0.0674,-0.1208,-0.1449,-0.1252,-0.1239,-0.1264,-0.125,-0.1248,-0.1295,-0.1336,-0.1353,-0.1334,-0.1251,-0.1683,-0.2324,-0.317,-0.3607,-0.4371,-0.5359,-0.5359,-0.544,-0.5638,-0.5901,-0.6464,-0.7285,-0.8859,0.0,-1.0563,-1.1823,-1.2142,-1.2013,-1.2454,-1.2379,-1.1925,-1.1023,-1.0622,0.0,-0.8994,-0.8391,-0.8011,0.0,-0.7088,-0.7,-0.6844,-0.6756,-0.6647,-0.6417,0.0,0.0,0.0,0.0,0.0,0.0,0.0,0.0,0.0,0.0,0.0,0.0,0.0,0.0,0.0,0.0,0.0,0.0,0.0,0.0,0.0,0.0,-1.1234,-1.1234,-1.1233,-1.1274,-1.1274,-1.1348,-1.1389,-1.1389,-1.1463,-1.1504,-1.1504,-1.1579,-1.1619,-1.1619,-1.1619,-1.1619,-1.1619,-1.1619,-1.1619,-1.1619,-1.1694,-1.1769,-1.1843,-1.1999,-1.2149,-1.2298,-1.244,-1.2501,-1.2501,-1.2501,-1.2501,-1.2501,0.0,0.0,0.0,0.0,0.0,0.0,0.0,0.0,0.0,0.0,0.0,-0.014,-0.0561,-0.1336,-0.1647,-0.1159,-0.1881,-0.1846,-0.0616,-0.0507,-0.0349,0.0,0.0,0.0,0.0,0.0,0.0,0.0,-0.0701,-0.1466,-0.2284,-0.329,-0.4317,-0.5302,-0.5534,-0.5772,-0.6017,-0.6017,0.0,-0.755,0.0,-1.0202,-1.0725,-1.2135,-1.2671,-1.2705,-1.2725,-1.2651,-1.2345,-1.1056,-1.0704,-1.0636,-0.968,-0.9028,0.0,0.0,0.0,0.0,0.0,0.0,0.0,0.0,0.0,-0.6538,0.0,0.0,0.0,-0.7003,0.0,0.0,0.0,0.0,0.0,0.0,0.0,0.0,0.0,0.0,0.0,0.0,0.0,0.0,0.0,0.0,-1.0927,-1.1063,-1.0995,-1.0995,-1.1118,-1.1151,-1.1234,-1.1234,-1.128,-1.1348,-1.1348,-1.1497,-1.1572,-1.1572,-1.1606,-1.1619,-1.1619,-1.1619,-1.1619,-1.1619,-1.1619,-1.1687,-1.1789,-1.1823,-1.1904,-1.2047,-1.2345,-1.2461,-1.2467,-1.2488,-1.2501,-1.2501,0.0,0.0,0.0,0.0,0.0,0.0,0.0,0.0,0.0,0.0,0.0,-0.0699,-0.2547,-0.2269,-0.284,-0.4961,-0.4673,-0.3812,-0.248,-0.2376,-0.1678,-0.0075,0.0,0.0,0.0,0.0,0.0,0.0,-0.0099,-0.0588,-0.146,-0.2406,-0.3335,-0.4211,-0.5307,-0.6159,-0.6761,0.0,-0.7692,0.0,-0.9924,-0.9958,0.0,-1.1633,-1.2101,-1.1857,-1.2501,-1.2718,-1.2535,0.0,-1.1097,-1.0907,0.0,-0.9296,-0.9043,-0.854,0.0,0.0,0.0,0.0,0.0,0.0,-0.719,0.0,0.0,0.0,-0.6395,-0.6044,0.0,0.0,0.0,0.0,0.0,0.0,0.0,0.0,0.0,0.0,0.0,0.0,0.0,0.0,0.0,0.0,0.0,-1.0704,-1.0405,-1.0412,-1.0941,-1.109,-1.1234,-1.1234,-1.1179,-1.1192,-1.1192,-1.1341,-1.1416,-1.1416,-1.1552,-1.1619,-1.1619,-1.1619,-1.1619,-1.1619,-1.1619,-1.1626,-1.1653,-1.1782,-1.1843,-1.1884,-1.2196,-1.2318,-1.2332,-1.2454,-1.2501,-1.2501,0.0,0.0,0.0,0.0,0.0,0.0,0.0,0.0,0.0,0.0,0.0,-0.0319,-0.1205,-0.2272,-0.3314,-0.4291,-0.5267,-0.549,-0.4675,-0.3578,-0.285,-0.2728,-0.0988,-0.0366,-0.1162,-0.0396,0.0,0.0,0.0,-0.0432,-0.1307,-0.2354,-0.3444,-0.4562,-0.5714,0.0,-0.7516,0.0,-0.7868,0.0,0.0,0.0,0.0,-1.1864,-1.2684,-1.2508,-1.2386,-1.2508,-1.2515,0.0,-1.0995,0.0,0.0,0.0,0.0,0.0,0.0,0.0,0.0,0.0,0.0,0.0,0.0,0.0,-0.6815,0.0,-0.6381,0.0,0.0,0.0,0.0,0.0,0.0,0.0,0.0,0.0,0.0,0.0,0.0,0.0,0.0,0.0,0.0,0.0,0.0,0.0,0.0,-0.9808,-1.0154,-1.0636,-1.0907,-1.0907,-1.0995,-1.1036,-1.1036,-1.1185,-1.1301,-1.1389,-1.1457,-1.1531,-1.1619,-1.1619,-1.1619,-1.1619,-1.1619,-1.1619,-1.1626,-1.1681,-1.1708,-1.1728,-1.1938,-1.2135,-1.2298,-1.2359,-1.2433,-1.2501,0.0,0.0,0.0,0.0,0.0,0.0,0.0,0.0,0.0,0.0,0.0,-0.0226,-0.0805,-0.2257,-0.3377,-0.3927,-0.5336,-0.5847,-0.5115,-0.3772,-0.3125,-0.3419,-0.1233,-0.0437,-0.143,-0.0494,0.0,0.0,0.0,-0.0309,-0.0961,-0.2045,-0.3183,-0.4418,-0.5645,-0.6845,-0.7928,0.0,-0.8452,-0.9164,-0.9612,-0.9944,-1.0358,-1.2128,-1.2983,-1.3159,-1.2576,-1.2576,-1.2623,-1.1145,-1.1084,0.0,-1.0509,0.0,0.0,0.0,0.0,0.0,-0.8893,0.0,0.0,0.0,0.0,0.0,0.0,0.0,0.0,0.0,0.0,0.0,0.0,0.0,0.0,-0.5986,0.0,0.0,0.0,0.0,0.0,0.0,0.0,0.0,0.0,0.0,0.0,0.0,0.0,0.0,-0.9591,-1.0236,-1.0636,-1.0717,-1.0759,-1.082,-1.082,-1.1029,-1.1158,-1.1274,-1.1355,-1.145,-1.1558,-1.1599,-1.1619,-1.1619,-1.1619,-1.1619,-1.1619,-1.1619,-1.1619,-1.1633,-1.1735,-1.1932,-1.2176,-1.2257,-1.2352,-1.2447,0.0,0.0,0.0,0.0,0.0,0.0,0.0,0.0,0.0,0.0,0.0,-0.0782,-0.2763,-0.2407,-0.3045,-0.5474,-0.5103,-0.4229,-0.2862,-0.2768,-0.196,-0.0234,-0.0047,0.0,-0.0046,-0.0041,0.0,0.0,0.0,0.0,-0.0073,-0.1154,-0.2121,-0.3037,-0.469,-0.634,-0.7875,-0.8791,-1.0012,-1.1328,-1.1782,-1.2481,-1.3152,0.0,-1.2508,-1.337,-1.32,0.0,0.0,-1.1932,-1.1592,0.0,0.0,0.0,0.0,0.0,0.0,0.0,0.0,0.0,0.0,-0.8147,0.0,0.0,0.0,0.0,-0.6647,0.0,0.0,0.0,0.0,-0.6559,-0.6356,-0.604,-0.5986,0.0,0.0,0.0,0.0,0.0,0.0,0.0,0.0,0.0,0.0,0.0,0.0,0.0,-0.9557,-1.0046,-1.0426,-1.0711,-1.0724,-1.0724,-1.0724,-1.0813,-1.0887,-1.09,-1.1253,-1.1396,-1.1402,-1.1552,-1.1619,-1.1619,-1.1619,-1.1619,-1.1619,-1.1619,-1.1619,-1.1619,-1.1626,-1.1714,-1.1884,-1.2182,-1.2291,-1.2318,0.0,0.0,0.0,0.0,0.0,0.0,0.0,0.0,0.0,0.0,0.0,0.0,0.0,-0.2223,-0.3343,0.0,0.0,-0.5739,-0.49,-0.3706,-0.2978,-0.3127,-0.1094,-0.0417,-0.1317,-0.0466,0.0,0.0,0.0,0.0,-0.0036,-0.11,-0.1791,-0.2225,-0.3602,-0.5388,0.0,0.0,0.0,0.0,0.0,-1.2006,-1.2813,0.0,0.0,-1.3383,-1.3227,-1.3173,0.0,-1.2318,-1.206,-1.1999,-1.1647,-1.1158,-1.0819,-1.1307,-1.086,0.0,0.0,0.0,-1.046,-0.9401,0.0,0.0,0.0,0.0,0.0,0.0,0.0,0.0,0.0,-0.6573,-0.645,-0.6213,-0.6098,-0.5818,0.0,0.0,0.0,0.0,0.0,0.0,0.0,0.0,0.0,0.0,0.0,0.0,0.0,-0.9361,-1.0019,-1.012,-1.0514,-1.0717,-1.0717,-1.0772,-1.0779,-1.088,-1.0981,-1.1199,-1.1396,-1.1443,-1.1525,-1.1619,-1.1619,-1.1619,-1.1619,-1.1619,-1.1619,-1.1619,-1.1619,-1.1647,-1.1714,-1.1911,-1.2115,-1.2311,0.0,0.0,0.0,0.0,0.0,0.0,0.0,0.0,0.0,0.0,0.0,0.0,0.0,0.0,-0.2308,0.0,-0.3505,-0.4199,-0.3875,-0.272,0.0,-0.2983,-0.1099,-0.0416,-0.1271,-0.0425,0.0,0.0,0.0,0.0,0.0,-0.072,-0.1293,-0.1771,-0.2623,-0.4419,-0.6879,0.0,-0.9294,0.0,0.0,-1.2115,0.0,0.0,-1.3214,-1.339,0.0,-1.3254,-1.3186,-1.2752,-1.2569,-1.2488,-1.223,-1.1816,-1.1504,-1.1884,-1.1484,-1.0962,-1.1199,-1.1328,0.0,-1.0283,-0.9802,0.0,-0.8275,0.0,0.0,0.0,0.0,0.0,0.0,-0.7041,-0.675,-0.6497,-0.62,-0.5764,0.0,0.0,0.0,0.0,0.0,0.0,0.0,0.0,-0.6057,-0.6512,0.0,0.0,0.0,0.0,-0.9652,-0.9815,-1.0405,-1.0717,-1.0717,-1.0717,-1.0772,-1.0799,-1.0853,-1.1077,-1.1314,-1.1369,-1.1477,-1.1619,-1.1619,-1.1619,-1.1619,-1.1619,-1.1619,-1.1619,-1.1619,-1.1619,-1.164,-1.1775,-1.2026,-1.2305,0.0,0.0,0.0,0.0,0.0,0.0,0.0,0.0,0.0,0.0,0.0,0.0,0.0,0.0,0.0,0.0,0.0,0.0,0.0,0.0,0.0,0.0,0.0,0.0,0.0,0.0,0.0,0.0,0.0,0.0,0.0,0.0,-0.0549,-0.1535,-0.1767,0.0,-0.6295,-0.7899,-0.9677,-1.1497,-1.2182,-1.282,-1.3295,-1.2718,0.0,-1.3403,-1.3403,-1.3403,-1.3376,-1.3234,-1.3091,-1.2942,-1.2793,-1.2542,-1.2311,-1.2305,-1.2196,-1.2054,-1.1904,-1.1864,-1.1653,-1.0785,0.0,0.0,0.0,0.0,-0.8716,0.0,0.0,0.0,0.0,0.0,-0.7244,-0.6783,-0.6322,-0.5737,-0.5029,0.0,0.0,0.0,0.0,0.0,0.0,0.0,-0.5772,-0.6224,-0.6105,0.0,0.0,0.0,0.0,-0.9781,-1.0358,-1.0677,-1.0717,-1.0697,-1.0697,-1.0724,-1.0799,-1.1016,-1.1165,-1.1314,-1.1463,-1.1619,-1.1619,-1.1619,-1.1619,-1.1619,-1.1619,-1.1619,-1.1619,-1.1619,-1.164,-1.1775,-1.202,-1.2277,0.0,0.0,0.0,0.0,0.0,0.0,0.0,0.0,0.0,0.0,0.0,0.0,0.0,0.0,0.0,0.0,0.0,0.0,0.0,0.0,0.0,0.0,0.0,0.0,0.0,0.0,0.0,0.0,0.0,0.0,0.0,0.0,-0.0157,-0.0394,0.0,0.0,-0.5045,-0.6483,-0.9029,-1.2047,-1.1904,-1.2203,0.0,0.0,-1.2874,-1.3403,-1.3403,-1.3403,-1.3397,-1.3356,-1.3241,-1.3091,-1.2949,-1.2773,-1.2596,-1.2481,-1.242,-1.2379,-1.2338,-1.2332,-1.2223,-1.1769,-1.1212,-1.0609,0.0,0.0,0.0,0.0,0.0,0.0,0.0,0.0,0.0,-0.6959,-0.6302,-0.5793,-0.5603,0.0,0.0,0.0,0.0,0.0,0.0,0.0,-0.5705,-0.5638,0.0,0.0,0.0,0.0,0.0,-0.9462,-0.9646,-1.0046,-1.0711,-1.0321,-1.0327,-1.0717,-1.0758,-1.0914,-1.1234,-1.1275,-1.1369,-1.1619,-1.1619,-1.1619,-1.1619,-1.1619,-1.1619,-1.1619,-1.1619,-1.1619,-1.164,-1.1775,-1.1952,-1.2135,0.0,0.0,0.0,0.0,0.0,0.0,0.0,0.0,0.0,0.0,0.0,0.0,0.0,0.0,0.0,0.0,0.0,0.0,0.0,0.0,0.0,0.0,0.0,0.0,0.0,0.0,0.0,0.0,0.0,0.0,0.0,0.0,0.0,0.0,0.0,-0.1364,0.0,-0.5445,-0.8183,-1.127,-1.0721,0.0,0.0,-1.2603,-1.2874,-1.3403,-1.3403,-1.3403,-1.3403,-1.3403,-1.3302,-1.3159,-1.3078,-1.2901,-1.2712,-1.2623,-1.2556,-1.2501,-1.2501,-1.2501,-1.2461,-1.2298,-1.1891,-1.1402,-1.088,-1.0582,-1.0317,0.0,0.0,0.0,0.0,0.0,0.0,-0.6654,-0.6141,-0.5854,0.0,0.0,0.0,0.0,0.0,0.0,0.0,0.0,0.0,0.0,0.0,0.0,0.0,0.0,0.0,-0.8777,-0.93,-0.9754,-1.0134,-0.9883,-0.9985,-1.0426,-1.0426,-1.0683,-1.1234,-1.1234,-1.1328,-1.1619,-1.1619,-1.1619,-1.1619,-1.1619,-1.1619,-1.1619,-1.1619,-1.1619,-1.164,-1.1775,-1.1932,-1.2081,0.0,0.0,0.0,0.0,0.0,0.0,0.0,0.0,0.0,0.0,0.0,0.0,0.0,0.0,0.0,0.0,0.0,0.0,0.0,0.0,0.0,0.0,0.0,0.0,0.0,0.0,0.0,0.0,0.0,0.0,0.0,0.0,0.0,0.0,0.0,0.0,0.0,-0.4753,-0.7111,0.0,-0.9243,-1.0651,-1.2818,-1.2707,-1.2942,-1.3403,-1.3403,-1.3403,-1.3403,-1.3403,-1.3315,-1.32,-1.318,-1.2996,-1.2779,-1.2739,-1.2637,-1.2528,-1.2508,-1.2501,-1.2501,-1.2501,-1.2406,-1.2169,-1.1606,-1.1375,-1.1233,-1.107,-1.0711,-1.0439,0.0,0.0,0.0,-0.6364,0.0,0.0,0.0,0.0,0.0,0.0,0.0,0.0,0.0,0.0,0.0,0.0,0.0,0.0,0.0,0.0,0.0,0.0,-0.9083,0.0,-0.9469,0.0,-0.9639,-1.0203,-1.008,-1.0439,-1.1234,-1.1234,-1.1328,-1.1619,-1.1619,-1.1619,-1.1619,-1.1619,-1.1619,-1.1619,-1.1619,-1.1619,-1.164,-1.1803,-1.1945,-1.2081,0.0,0.0,0.0,0.0,0.0,0.0,0.0,0.0,0.0,0.0,0.0,0.0,0.0,0.0,0.0,0.0,0.0,0.0,0.0,0.0,0.0,0.0,0.0,0.0,0.0,0.0,0.0,0.0,0.0,0.0,0.0,0.0,0.0,0.0,0.0,0.0,-0.3078,-0.4344,0.0,-0.6517,-0.8438,-0.9495,-1.0155,-1.2437,-1.3308,-1.3403,-1.3403,-1.3403,-1.3403,-1.3403,-1.3383,-1.3342,-1.3214,-1.3139,-1.3044,-1.28,-1.2712,-1.2664,-1.2535,-1.2501,-1.2501,-1.2501,-1.2481,-1.2372,-1.2026,-1.1925,-1.183,-1.1558,-1.1341,-1.105,-1.0575,0.0,0.0,0.0,0.0,0.0,0.0,0.0,0.0,0.0,0.0,0.0,0.0,0.0,0.0,0.0,0.0,0.0,0.0,0.0,0.0,0.0,0.0,0.0,0.0,0.0,0.0,-1.0602,-1.0166,-1.0439,-1.1234,-1.1234,-1.1328,-1.1619,-1.1619,-1.1619,-1.1619,-1.1619,-1.1619,-1.1619,-1.1619,-1.1619,-1.1653,-1.1925,-1.204,-1.2081,0.0,0.0,0.0,0.0,0.0,0.0,0.0,0.0,0.0,0.0,0.0,0.0,0.0,0.0,0.0,0.0,0.0,0.0,0.0,0.0,0.0,0.0,0.0,0.0,0.0,0.0,0.0,0.0,0.0,0.0,0.0,0.0,0.0,0.0,0.0,-0.0573,0.0,0.0,0.0,-0.4548,-0.5649,-0.6809,-0.8203,-1.0711,-1.1724,-1.1807,-1.2982,-1.3403,-1.3403,-1.3403,-1.3403,-1.339,-1.3315,-1.3234,-1.3132,-1.2915,-1.2793,-1.2698,-1.2542,-1.2501,-1.2501,-1.2501,-1.2501,-1.2447,-1.223,-1.2121,-1.1999,-1.1775,-1.1613,-1.1253,-1.0419,-0.9361,0.0,0.0,0.0,0.0,0.0,0.0,0.0,0.0,0.0,0.0,0.0,0.0,0.0,0.0,0.0,0.0,0.0,0.0,0.0,0.0,0.0,0.0,0.0,0.0,0.0,-1.0307,-1.0092,-1.0439,-1.1234,-1.1234,-1.1328,-1.1619,-1.1619,-1.1619,-1.1619,-1.1619,-1.1619,-1.1619,-1.1619,-1.1667,-1.1755,-1.1979,-1.2115,-1.2203,0.0,0.0,0.0,0.0,0.0,0.0,0.0,0.0,0.0,0.0,0.0,0.0,0.0,0.0,0.0,0.0,0.0,0.0,0.0,0.0,0.0,0.0,0.0,0.0,0.0,0.0,0.0,0.0,0.0,0.0,0.0,0.0,0.0,0.0,0.0,0.0,0.0,0.0,-0.1037,-0.2712,-0.3127,-0.4372,-0.6285,-0.8478,-0.9397,-0.9628,-1.1386,-1.1973,-1.2056,-1.2561,-1.2982,-1.3403,-1.3403,-1.3315,-1.3193,-1.3051,-1.2901,-1.2745,-1.2589,-1.2528,-1.2501,-1.2501,-1.2501,-1.2467,-1.2325,-1.1868,-1.1411,-1.1196,-1.0715,-1.0044,-0.9084,-0.8706,0.0,0.0,0.0,0.0,0.0,0.0,0.0,0.0,0.0,0.0,0.0,0.0,0.0,0.0,0.0,0.0,-0.5664,-0.6179,0.0,0.0,0.0,0.0,-0.9279,0.0,-0.9652,0.0,-1.0031,-1.0439,-1.1234,-1.1234,-1.1328,-1.1619,-1.1619,-1.1619,-1.1619,-1.1619,-1.1619,-1.1619,-1.1619,-1.1708,-1.185,-1.2006,-1.2155,-1.2311,0.0,0.0,0.0,0.0,0.0,0.0,0.0,0.0,0.0,0.0,0.0,0.0,0.0,0.0,0.0,0.0,0.0,0.0,0.0,0.0,0.0,0.0,0.0,0.0,0.0,0.0,0.0,0.0,0.0,0.0,0.0,0.0,0.0,0.0,0.0,0.0,0.0,0.0,-0.0154,-0.0494,-0.2531,-0.3557,-0.3948,-0.6187,-0.7014,-0.7034,-0.7285,-0.7285,-0.7622,-0.9711,-1.1718,-1.3403,-1.3403,-1.339,-1.3349,-1.32,-1.3051,-1.2908,-1.2752,-1.261,-1.2501,-1.2501,-1.2501,-1.2467,-1.2325,-1.0793,-0.9377,-0.9192,-0.7545,-0.6008,-0.5471,-0.6548,-0.7215,0.0,0.0,0.0,0.0,0.0,0.0,0.0,0.0,0.0,0.0,0.0,0.0,0.0,0.0,0.0,0.0,-0.58,0.0,-0.7419,0.0,-0.8241,-0.8919,-0.9245,0.0,-1.0656,-1.0179,-1.0439,-1.1234,-1.1234,-1.1328,-1.1619,-1.1619,-1.1619,-1.1619,-1.1619,-1.1619,-1.1619,-1.1619,-1.1708,-1.185,-1.2006,-1.2155,-1.2311,0.0,0.0,0.0,0.0,0.0,0.0,0.0,0.0,0.0,0.0,0.0,0.0,0.0,0.0,0.0,0.0,0.0,0.0,0.0,0.0,0.0,0.0,0.0,0.0,0.0,0.0,0.0,0.0,0.0,0.0,0.0,0.0,0.0,0.0,0.0,0.0,0.0,0.0,0.0,-0.0084,-0.1027,-0.1377,-0.163,-0.3782,-0.4703,-0.4912,-0.6262,-0.6741,-0.6871,-0.7789,-0.9545,-1.1635,-1.2982,-1.2478,-1.1612,-1.2805,-1.2225,-1.1317,-1.239,-1.2684,-1.2617,-1.2522,-1.156,-1.0612,-1.056,-0.8863,-0.7219,-0.7186,-0.6346,-0.5556,-0.5328,-0.5541,-0.6007,0.0,0.0,0.0,0.0,0.0,0.0,0.0,0.0,0.0,0.0,0.0,0.0,0.0,0.0,0.0,0.0,0.0,0.0,-0.7475,0.0,-0.8662,-0.9598,-0.9727,-1.01,-1.0717,-1.0541,-1.0704,-1.1234,-1.1234,-1.1328,-1.1619,-1.1619,-1.1619,-1.1619,-1.1619,-1.1619,-1.1619,-1.1619,-1.1762,-1.1979,-1.204,-1.2216,-1.2427,0.0,0.0,0.0,0.0,0.0,0.0,0.0,0.0,0.0,0.0,0.0,0.0,0.0,0.0,0.0,0.0,0.0,0.0,0.0,0.0,0.0,0.0,0.0,0.0,0.0,0.0,0.0,0.0,0.0,0.0,0.0,0.0,0.0,0.0,0.0,0.0,0.0,0.0,0.0,0.0,0.0,0.0,-0.0174,-0.1742,-0.2339,-0.2573,-0.4184,-0.475,-0.4801,-0.5454,-0.67,-0.8457,-1.0715,-1.0294,-0.9359,-1.0859,-1.0148,-0.9101,-1.049,-1.0872,-1.0797,-1.0705,-0.9553,-0.8517,-0.8517,-0.675,-0.4965,-0.4334,-0.4107,-0.3981,-0.3981,-0.407,-0.4461,-0.5566,0.0,0.0,0.0,0.0,0.0,0.0,-0.7746,-0.7387,0.0,0.0,0.0,0.0,0.0,0.0,0.0,0.0,0.0,0.0,0.0,0.0,0.0,0.0,-1.0148,-1.0717,-1.0717,-1.0873,-1.1165,-1.1253,-1.1416,-1.1619,-1.1619,-1.1619,-1.1619,-1.1619,-1.1619,-1.1619,-1.1619,-1.1803,-1.2135,-1.2135,-1.225,-1.2501,0.0,0.0,0.0,0.0,0.0,0.0,0.0,0.0,0.0,0.0,0.0,0.0,0.0,0.0,0.0,0.0,0.0,0.0,0.0,0.0,0.0,0.0,0.0,0.0,0.0,0.0,0.0,0.0,0.0,0.0,0.0,0.0,0.0,0.0,0.0,0.0,0.0,0.0,0.0,0.0,0.0,0.0,0.0,0.0,0.0,-0.0087,-0.0086,-0.0086,-0.0427,-0.2614,-0.3357,-0.3776,-0.6035,-0.6784,-0.6784,-0.6784,-0.6646,-0.6506,-0.6584,-0.6479,-0.637,-0.6366,-0.6391,-0.6336,-0.6336,-0.4686,-0.2551,-0.0513,-0.0071,-0.007,-0.007,-0.1506,-0.2568,-0.1989,0.0,0.0,0.0,0.0,0.0,0.0,-0.7258,-0.6885,-0.7378,0.0,0.0,0.0,0.0,0.0,0.0,0.0,0.0,-0.7392,-0.7426,0.0,-0.8885,-0.9245,-0.9836,-1.0717,-1.0717,-1.0873,-1.1241,-1.1477,-1.1613,-1.1619,-1.1619,-1.1619,-1.1619,-1.1619,-1.1619,-1.1619,-1.1619,-1.1803,-1.2135,-1.2135,-1.225,-1.2501,0.0,0.0,0.0,0.0,0.0,0.0,0.0,0.0,0.0,0.0,0.0,0.0,0.0,0.0,0.0,0.0,0.0,0.0,0.0,0.0,0.0,0.0,0.0,0.0,0.0,0.0,0.0,0.0,0.0,0.0,0.0,0.0,0.0,0.0,0.0,0.0,0.0,0.0,0.0,0.0,0.0,0.0,0.0,0.0,0.0,0.0,0.0,0.0,-0.0086,-0.0854,-0.1021,-0.1189,-0.1937,-0.3191,-0.4695,-0.6282,-0.5602,-0.4662,-0.6107,-0.6435,-0.6428,-0.6301,-0.5207,-0.4146,-0.4146,-0.2461,-0.0827,-0.0147,0.0,0.0,0.0,-0.0483,-0.1071,-0.1831,0.0,0.0,0.0,0.0,0.0,0.0,0.0,-0.7597,0.0,-0.7357,0.0,0.0,0.0,0.0,0.0,0.0,0.0,0.0,-0.8581,0.0,-0.9633,-0.9727,-1.0134,-1.0717,-1.0717,-1.0873,-1.1241,-1.1484,-1.1619,-1.1619,-1.1619,-1.1619,-1.1619,-1.1619,-1.1619,-1.1619,-1.1619,-1.1803,-1.2135,-1.2135,-1.225,-1.2501,0.0,0.0,0.0,0.0,0.0,0.0,0.0,0.0,0.0,0.0,0.0,0.0,0.0,0.0,0.0,0.0,0.0,0.0,0.0,0.0,0.0,0.0,0.0,0.0,0.0,0.0,0.0,0.0,0.0,0.0,0.0,0.0,0.0,0.0,0.0,0.0,0.0,0.0,0.0,0.0,0.0,0.0,0.0,0.0,0.0,0.0,0.0,0.0,0.0,0.0,0.0,0.0,0.0,-0.0931,-0.2366,-0.3782,-0.3191,-0.2433,-0.3743,-0.4034,-0.4067,-0.3942,-0.2943,-0.1967,-0.1949,-0.0921,0.0,0.0,0.0,0.0,0.0,0.0,-0.0271,-0.1106,-0.3021,-0.4568,0.0,0.0,0.0,0.0,0.0,0.0,0.0,-0.8113,0.0,0.0,0.0,0.0,0.0,0.0,0.0,-0.8418,-0.9089,0.0,-0.9984,-0.9984,-1.0213,-1.0724,-1.0833,-1.1016,-1.126,-1.1504,-1.1619,-1.1619,-1.1619,-1.1619,-1.1619,-1.1619,-1.1619,-1.1619,-1.1619,-1.1803,-1.2135,-1.2135,-1.225,-1.2501,0.0,0.0,0.0,0.0,0.0,0.0,0.0,0.0,0.0,0.0,0.0,0.0,0.0,0.0,0.0,0.0,0.0,0.0,0.0,0.0,0.0,0.0,0.0,0.0,0.0,0.0,0.0,0.0,0.0,0.0,0.0,0.0,0.0,0.0,0.0,0.0,0.0,0.0,0.0,0.0,0.0,0.0,0.0,0.0,0.0,0.0,0.0,0.0,0.0,0.0,0.0,0.0,0.0,0.0,0.0,0.0,0.0,0.0,0.0,0.0,0.0,0.0,0.0,0.0,0.0,0.0,0.0,0.0,0.0,0.0,0.0,0.0,0.0,0.0,-0.1528,-0.2667,-0.2522,0.0,0.0,0.0,0.0,0.0,0.0,-0.8709,-0.8865,0.0,0.0,0.0,0.0,0.0,-0.7923,-0.8791,-0.9103,-0.953,-1.0024,-1.0031,-1.0247,-1.0738,-1.1029,-1.1246,-1.1396,-1.1552,-1.1619,-1.1619,-1.1619,-1.1619,-1.1619,-1.1619,-1.1619,-1.1619,-1.1633,-1.1809,-1.206,-1.2074,-1.2257,-1.2501,0.0,0.0,0.0,0.0,0.0,0.0,0.0,0.0,0.0,0.0,0.0,0.0,0.0,0.0,0.0,0.0,0.0,0.0,0.0,0.0,0.0,0.0,0.0,0.0,0.0,0.0,0.0,0.0,0.0,0.0,0.0,0.0,0.0,0.0,0.0,0.0,0.0,0.0,0.0,0.0,0.0,0.0,0.0,0.0,0.0,0.0,0.0,0.0,0.0,0.0,0.0,0.0,0.0,0.0,0.0,0.0,0.0,0.0,0.0,0.0,0.0,0.0,0.0,0.0,0.0,0.0,0.0,0.0,0.0,0.0,0.0,0.0,0.0,0.0,-0.1528,-0.2648,-0.2513,-0.3717,0.0,0.0,-0.5866,-0.6781,-0.7095,-0.8605,-0.9408,0.0,0.0,0.0,0.0,0.0,-0.9334,-0.989,-1.0195,-1.0419,-1.0561,-1.0561,-1.0611,-1.0826,-1.1077,-1.1246,-1.1396,-1.1552,-1.1619,-1.1619,-1.1619,-1.1619,-1.1619,-1.1619,-1.1619,-1.1633,-1.1742,-1.1898,-1.2074,-1.2196,-1.2345,-1.2501,0.0,0.0,0.0,0.0,0.0,0.0,0.0,0.0,0.0,0.0,0.0,0.0,0.0,0.0,0.0,0.0,0.0,0.0,0.0,0.0,0.0,0.0,0.0,0.0,0.0,0.0,0.0,0.0,0.0,0.0,0.0,0.0,0.0,0.0,0.0,0.0,0.0,0.0,0.0,0.0,0.0,0.0,0.0,0.0,0.0,0.0,0.0,0.0,0.0,0.0,0.0,0.0,0.0,0.0,0.0,0.0,0.0,0.0,0.0,0.0,0.0,0.0,0.0,0.0,0.0,0.0,0.0,0.0,0.0,0.0,0.0,0.0,0.0,0.0,-0.0841,-0.1431,-0.1365,-0.1977,0.0,-0.3354,-0.4309,-0.5118,-0.5798,-0.7786,-0.8783,-0.8319,0.0,0.0,-0.9814,-0.9795,-0.9985,-1.0365,-1.0602,-1.0717,-1.0717,-1.0792,-1.0867,-1.1151,-1.1233,-1.1348,-1.1497,-1.1579,-1.1619,-1.1619,-1.1619,-1.1619,-1.1619,-1.1619,-1.1619,-1.1633,-1.1775,-1.1925,-1.2155,-1.2237,-1.2379,-1.2501,0.0,0.0,0.0,0.0,0.0,0.0,0.0,0.0,0.0,0.0,0.0,0.0,0.0,0.0,0.0,0.0,0.0,0.0,0.0,0.0,0.0,0.0,0.0,0.0,0.0,0.0,0.0,0.0,0.0,0.0,0.0,0.0,0.0,0.0,0.0,0.0,0.0,0.0,0.0,0.0,0.0,0.0,0.0,0.0,0.0,0.0,0.0,0.0,0.0,0.0,0.0,0.0,0.0,0.0,0.0,0.0,0.0,0.0,0.0,0.0,0.0,0.0,0.0,0.0,0.0,0.0,0.0,0.0,0.0,0.0,0.0,0.0,0.0,0.0,0.0,0.0,0.0,0.0,-0.0507,-0.1958,-0.2482,-0.3212,-0.445,-0.639,-0.7605,-0.7637,-0.8989,0.0,0.0,-1.0112,-1.0169,-1.0156,-1.0551,-1.0765,-1.0785,-1.0914,-1.1118,-1.1389,-1.1389,-1.147,-1.1619,-1.1619,-1.1619,-1.1619,-1.1619,-1.1619,-1.1619,-1.1619,-1.1633,-1.1667,-1.1809,-1.1959,-1.2115,-1.2264,-1.24,-1.2501,0.0,0.0,0.0,0.0,0.0,0.0,0.0,0.0,0.0,0.0,0.0,0.0,0.0,0.0,0.0,0.0,0.0,0.0,0.0,0.0,0.0,0.0,0.0,0.0,0.0,0.0,0.0,0.0,0.0,0.0,0.0,0.0,0.0,0.0,0.0,0.0,0.0,0.0,0.0,0.0,0.0,0.0,0.0,0.0,0.0,0.0,0.0,0.0,0.0,0.0,0.0,0.0,0.0,0.0,0.0,0.0,0.0,0.0,0.0,0.0,0.0,0.0,0.0,0.0,0.0,0.0,0.0,0.0,0.0,0.0,0.0,0.0,0.0,0.0,0.0,0.0,0.0,0.0,-0.0121,-0.0359,-0.1782,-0.2787,-0.3,-0.4562,-0.6201,-0.7842,-0.8078,-0.8204,-0.8397,-0.9886,-1.0082,-0.8693,-1.0078,-1.0968,-1.109,-1.1118,-1.1219,-1.1389,-1.1389,-1.147,-1.1619,-1.1619,-1.1619,-1.1619,-1.1619,-1.1619,-1.1619,-1.1619,-1.1687,-1.1816,-1.1965,-1.2121,-1.2271,-1.2413,-1.2481,-1.2501,0.0,0.0,0.0,0.0,0.0,0.0,0.0,0.0,0.0,0.0,0.0,0.0,0.0,0.0,0.0,0.0,0.0,0.0,0.0,0.0,0.0,0.0,0.0,0.0,0.0,0.0,0.0,0.0,0.0,0.0,0.0,0.0,0.0,0.0,0.0,0.0,0.0,0.0,0.0,0.0,0.0,0.0,0.0,0.0,0.0,0.0,0.0,0.0,0.0,0.0,0.0,0.0,0.0,0.0,0.0,0.0,0.0,0.0,0.0,0.0,0.0,0.0,0.0,0.0,0.0,0.0,0.0,0.0,0.0,0.0,0.0,0.0,0.0,0.0,0.0,0.0,0.0,0.0,0.0,0.0,-0.072,-0.1227,-0.1236,-0.2798,-0.4153,-0.5068,-0.599,-0.6529,-0.657,-0.847,-0.9125,-0.8296,-1.0091,-1.1138,-1.1287,-1.1287,-1.1362,-1.1511,-1.1511,-1.1552,-1.1619,-1.1619,-1.1619,-1.1619,-1.1619,-1.1619,-1.1626,-1.1701,-1.1775,-1.1857,-1.2094,-1.223,-1.2311,-1.2447,-1.2501,-1.2501,0.0,0.0,0.0,0.0,0.0,0.0,0.0,0.0,0.0,0.0,0.0,0.0,0.0,0.0,0.0,0.0,0.0,0.0,0.0,0.0,0.0,0.0,0.0,0.0,0.0,0.0,0.0,0.0,0.0,0.0,0.0,0.0,0.0,0.0,0.0,0.0,0.0,0.0,0.0,0.0,0.0,0.0,0.0,0.0,0.0,0.0,0.0,0.0,0.0,0.0,0.0,0.0,0.0,0.0,0.0,0.0,0.0,0.0,0.0,0.0,0.0,0.0,0.0,0.0,0.0,0.0,0.0,0.0,0.0,0.0,0.0,0.0,0.0,0.0,0.0,0.0,0.0,0.0,0.0,0.0,0.0,0.0,0.0,-0.1261,-0.224,-0.2658,-0.3983,-0.4748,-0.4748,-0.6647,-0.772,-0.7743,-1.0037,-1.1287,-1.1443,-1.1443,-1.1504,-1.1619,-1.1619,-1.1619,-1.1619,-1.1619,-1.1619,-1.1619,-1.1619,-1.164,-1.1681,-1.1789,-1.187,-1.1959,-1.2196,-1.2311,-1.2352,-1.2461,-1.2501,-1.2501,0.0,0.0,0.0,0.0,0.0,0.0,0.0,0.0,0.0,0.0,0.0,0.0,0.0,0.0,0.0,0.0,0.0,0.0,0.0,0.0,0.0,0.0,0.0,0.0,0.0,0.0,0.0,0.0,0.0,0.0,0.0,0.0,0.0,0.0,0.0,0.0,0.0,0.0,0.0,0.0,0.0,0.0,0.0,0.0,0.0,0.0,0.0,0.0,0.0,0.0,0.0,0.0,0.0,0.0,0.0,0.0,0.0,0.0,0.0,0.0,0.0,0.0,0.0,0.0,0.0,0.0,0.0,0.0,0.0,0.0,0.0,0.0,0.0,0.0,0.0,0.0,0.0,0.0,0.0,0.0,0.0,0.0,0.0,-0.014,-0.0911,-0.259,-0.2798,-0.2868,-0.2868,-0.4735,-0.5862,-0.6008,-0.951,-1.145,-1.1599,-1.1599,-1.1606,-1.1619,-1.1619,-1.1619,-1.1619,-1.1619,-1.1619,-1.1619,-1.1619,-1.1694,-1.1816,-1.183,-1.1999,-1.2257,-1.2284,-1.2372,-1.2488,-1.2501,-1.2501,-1.2501,0.0,0.0,0.0,0.0,0.0,0.0,0.0,0.0,0.0,0.0,0.0,0.0,0.0,0.0,0.0,0.0,0.0,0.0,0.0,0.0,0.0,0.0,0.0,0.0,0.0,0.0,0.0,0.0,0.0,0.0,0.0,0.0,0.0,0.0,0.0,0.0,0.0,0.0,0.0,0.0,0.0,0.0,0.0,0.0,0.0,0.0,0.0,0.0,0.0,0.0,0.0,0.0,0.0,0.0,0.0,0.0,0.0,0.0,0.0,0.0,0.0,0.0,0.0,0.0,0.0,0.0,0.0,0.0,0.0,0.0,0.0,0.0,0.0,0.0,0.0,0.0,0.0,0.0,0.0,0.0,0.0,0.0,0.0,0.0,-0.0288,-0.1006,-0.1006,-0.1006,-0.1006,-0.288,-0.448,-0.5736,-0.7153,-0.8519,-0.9795,-0.9795,-1.0377,-1.1619,-1.1619,-1.1619,-1.1619,-1.1619,-1.1667,-1.1748,-1.1748,-1.1837,-1.1979,-1.2074,-1.2182,-1.2298,-1.2386,-1.2454,-1.2501,-1.2501,-1.2501,-1.2501,0.0,0.0,0.0,0.0,0.0,0.0,0.0,0.0,0.0,0.0,0.0,0.0,0.0,0.0,0.0,0.0,0.0,0.0,0.0,0.0,0.0,0.0,0.0,0.0,0.0,0.0,0.0,0.0,0.0,0.0,0.0,0.0,0.0,0.0,0.0,0.0,0.0,0.0,0.0,0.0,0.0,0.0,0.0,0.0,0.0,0.0,0.0,0.0,0.0,0.0,0.0,0.0,0.0,0.0,0.0,0.0,0.0,0.0,0.0,0.0,0.0,0.0,0.0,0.0,0.0,0.0,0.0,0.0,0.0,0.0,0.0,0.0,0.0,0.0,0.0,0.0,0.0,0.0,0.0,0.0,0.0,0.0,0.0,0.0,0.0,0.0,0.0,0.0,0.0,-0.1239,-0.2619,-0.3925,-0.3998,-0.4939,-0.6889,-0.7472,-0.8487,-0.9801,-0.9801,-0.9746,-0.9786,-0.9786,-0.9849,-0.9888,-0.9888,-1.0036,-1.0161,-1.0247,-1.0767,-1.1434,-1.1528,-1.1953,-1.2501,-1.2501,-1.2501,-1.2501,0.0,0.0,0.0,0.0,0.0,0.0,0.0,0.0,0.0,0.0,0.0,0.0,0.0,0.0,0.0,0.0,0.0,0.0,0.0,0.0,0.0,0.0,0.0,0.0,0.0,0.0,0.0,0.0,0.0,0.0,0.0,0.0,0.0,0.0,0.0,0.0,0.0,0.0,0.0,0.0,0.0,0.0,0.0,0.0,0.0,0.0,0.0,0.0,0.0,0.0,0.0,0.0,0.0,0.0,0.0,0.0,0.0,0.0,0.0,0.0,0.0,0.0,0.0,0.0,0.0,0.0,0.0,0.0,0.0,0.0,0.0,0.0,0.0,0.0,0.0,0.0,0.0,0.0,0.0,0.0,0.0,0.0,0.0,0.0,0.0,0.0,0.0,0.0,0.0,0.0,0.0,0.0,0.0,-0.0948,-0.2836,-0.4794,-0.5808,-0.5812,-0.5812,-0.5776,-0.5776,-0.5776,-0.5813,-0.5801,-0.5801,-0.5843,-0.5989,-0.5989,-0.7342,-0.9371,-0.9371,-1.0624,-1.2424,-1.2424,-1.2424,-1.2501,0.0,0.0,0.0,0.0,0.0,0.0,0.0,0.0,0.0,0.0,0.0,0.0,0.0,0.0,0.0,0.0,0.0,0.0,0.0,0.0,0.0,0.0,0.0,0.0,0.0,0.0,0.0,0.0,0.0,0.0,0.0,0.0,0.0,0.0,0.0,0.0,0.0,0.0,0.0,0.0,0.0,0.0,0.0,0.0,0.0,0.0,0.0,0.0,0.0,0.0,0.0,0.0,0.0,0.0,0.0,0.0,0.0,0.0,0.0,0.0,0.0,0.0,0.0,0.0,0.0,0.0,0.0,0.0,0.0,0.0,0.0,0.0,0.0,0.0,0.0,0.0,0.0,0.0,0.0,0.0,0.0,0.0,0.0,0.0,0.0,0.0,0.0,0.0,0.0,0.0,0.0,0.0,0.0,-0.0299,-0.0823,-0.2787,-0.4452,-0.5816,-0.5816,-0.5776,-0.5771,-0.5771,-0.5886,-0.5955,-0.5955,-0.6075,-0.622,-0.622,-0.6622,-0.7189,-0.7189,-0.7579,-0.8128,-0.8128,-0.9061,-1.0308,0.0,0.0,0.0,0.0,0.0,0.0,0.0,0.0,0.0,0.0,0.0,0.0,0.0,0.0,0.0,0.0,0.0,0.0,0.0,0.0,0.0,0.0,0.0,0.0,0.0,0.0,0.0,0.0,0.0,0.0,0.0,0.0,0.0,0.0,0.0,0.0,0.0,0.0,0.0,0.0,0.0,0.0,0.0,0.0,0.0,0.0,0.0,0.0,0.0,0.0,0.0,0.0,0.0,0.0,0.0,0.0,0.0,0.0,0.0,0.0,0.0,0.0,0.0,0.0,0.0,0.0,0.0,0.0,0.0,0.0,0.0,0.0,0.0,0.0,0.0,0.0,0.0,0.0,0.0,0.0,0.0,0.0,0.0,0.0,0.0,0.0,0.0,0.0,0.0,0.0,0.0,0.0,0.0,0.0,0.0,-0.1192,-0.2372,-0.3511,-0.3511,-0.3531,-0.3495,-0.3495,-0.3521,-0.3639,-0.3639,-0.3731,-0.3836,-0.3836,-0.4305,-0.5006,-0.5006,-0.5552,-0.6332,-0.6332,-0.7111,-0.8283,0.0,0.0,0.0,0.0,0.0,0.0,0.0,0.0,0.0,0.0,0.0,0.0,0.0,0.0,0.0,0.0,0.0,0.0,0.0,0.0,0.0,0.0,0.0,0.0,0.0,0.0,0.0,0.0,0.0,0.0,0.0,0.0,0.0,0.0,0.0,0.0,0.0,0.0,0.0,0.0,0.0,0.0,0.0,0.0,0.0,0.0,0.0,0.0,0.0,0.0,0.0,0.0,0.0,0.0,0.0,0.0,0.0,0.0,0.0,0.0,0.0,0.0,0.0,0.0,0.0,0.0,0.0,0.0,0.0,0.0,0.0,0.0,0.0,0.0,0.0,0.0,0.0,0.0,0.0,0.0,0.0,0.0,0.0,0.0,0.0,0.0,0.0,0.0,0.0,0.0,0.0,0.0,0.0,0.0,0.0,0.0,0.0,0.0,0.0,0.0,0.0,0.0,0.0,0.0,0.0,0.0,0.0,0.0,-0.1098,-0.2819,-0.2819,-0.399,-0.5708,-0.5708,-0.5864,-0.6332,0.0,0.0,0.0,0.0,0.0,0.0,0.0,0.0,0.0,0.0,0.0,0.0,0.0,0.0,0.0,0.0,0.0,0.0,0.0,0.0,0.0,0.0,0.0,0.0,0.0,0.0,0.0,0.0,0.0,0.0,0.0,0.0,0.0,0.0,0.0,0.0,0.0,0.0,0.0,0.0,0.0,0.0,0.0,0.0,0.0,0.0,0.0,0.0,0.0,0.0,0.0,0.0,0.0,0.0,0.0,0.0,0.0,0.0,0.0,0.0,0.0,0.0,0.0,0.0,0.0,0.0,0.0,0.0,0.0,0.0,0.0,0.0,0.0,0.0,0.0,0.0,0.0,0.0,0.0,0.0,0.0,0.0,0.0,0.0,0.0,0.0,0.0,0.0,0.0,0.0,0.0,0.0,0.0,0.0,0.0,0.0,0.0,0.0,0.0,0.0,0.0,0.0,0.0,0.0,0.0,0.0,0.0,0.0,-0.0235,-0.0706,-0.0706,-0.0941,-0.1334,-0.1334,-0.2429,-0.4068,0.0,0.0,0.0,0.0,0.0,0.0,0.0,0.0,0.0,0.0,0.0,0.0,0.0,0.0,0.0,0.0,0.0,0.0,0.0,0.0,0.0,0.0,0.0,0.0,0.0,0.0,0.0,0.0,0.0,0.0,0.0,0.0,0.0,0.0,0.0,0.0,0.0,0.0,0.0,0.0,0.0,0.0,0.0,0.0,0.0,0.0,0.0,0.0,0.0,0.0,0.0,0.0,0.0,0.0,0.0,0.0,0.0,0.0,0.0,0.0,0.0,0.0,0.0,0.0,0.0,0.0,0.0,0.0,0.0,0.0,0.0,0.0,0.0,0.0,0.0,0.0,0.0,0.0,0.0,0.0,0.0,0.0,0.0,0.0,0.0,0.0,0.0,0.0,0.0,0.0,0.0,0.0,0.0,0.0,0.0,0.0,0.0,0.0,0.0,0.0,0.0,0.0,0.0,0.0,0.0,0.0,0.0,0.0,0.0,0.0,0.0,0.0,0.0,0.0,-0.1333,-0.3286,0.0,0.0,0.0,0.0,0.0,0.0,0.0,0.0,0.0,0.0,0.0,0.0,0.0,0.0,0.0,0.0,0.0,0.0,0.0,0.0,0.0,0.0,0.0,0.0,0.0,0.0,0.0,0.0,0.0,0.0,0.0,0.0,0.0,0.0,0.0,0.0,0.0,0.0,0.0,0.0,0.0,0.0,0.0,0.0,0.0,0.0,0.0,0.0,0.0,0.0,0.0,0.0,0.0,0.0,0.0,0.0,0.0,0.0,0.0,0.0,0.0,0.0,0.0,0.0,0.0,0.0,0.0,0.0,0.0,0.0,0.0,0.0,0.0,0.0,0.0,0.0,0.0,0.0,0.0,0.0,0.0,0.0,0.0,0.0,0.0,0.0,0.0,0.0,0.0,0.0,0.0,0.0,0.0,0.0,0.0,0.0,0.0,0.0,0.0,0.0,0.0,0.0,0.0,0.0,0.0,0.0,0.0,0.0,0.0,0.0,0.0,0.0,0.0,0.0,-0.1098,-0.2584,0.0,0.0,0.0,0.0,0.0,0.0,0.0,0.0,0.0,0.0,0.0,0.0,0.0,0.0,0.0,0.0,0.0,0.0,0.0,0.0,0.0,0.0,0.0,0.0,0.0,0.0,0.0,0.0,0.0,0.0,0.0,0.0,0.0,0.0,0.0,0.0,0.0,0.0,0.0,0.0,0.0,0.0,0.0,0.0,0.0,0.0,0.0,0.0,0.0,0.0,0.0,0.0,0.0,0.0,0.0,0.0,0.0,0.0,0.0,0.0,0.0,0.0,0.0,0.0,0.0,0.0,0.0,0.0,0.0,0.0,0.0,0.0,0.0,0.0,0.0,0.0,0.0,0.0,0.0,0.0,0.0,0.0,0.0,0.0,0.0,0.0,0.0,0.0,0.0,0.0,0.0,0.0,0.0,0.0,0.0,0.0,0.0,0.0,0.0,0.0,0.0,0.0,0.0,0.0,0.0,0.0,0.0,0.0,0.0,0.0,0.0,0.0,0.0,0.0,-0.0157,-0.0392,0.0,0.0,0.0,0.0,0.0,0.0,0.0,0.0,0.0,0.0,0.0,0.0,0.0,0.0,0.0,0.0,0.0,0.0,0.0,0.0,0.0,0.0,0.0,0.0,0.0,0.0,0.0,0.0,0.0,0.0,0.0,0.0,0.0,0.0,0.0,0.0,0.0,0.0,0.0,0.0,0.0,0.0,0.0,0.0,0.0,0.0,0.0,0.0,0.0,0.0,0.0,0.0,0.0,0.0,0.0,0.0,0.0,0.0,0.0,0.0,0.0,0.0,0.0,0.0,0.0,0.0,0.0,0.0,0.0,0.0,0.0,0.0,0.0,0.0,0.0,0.0,0.0,0.0,0.0,0.0,0.0,0.0,0.0,0.0,0.0,0.0,0.0,0.0,0.0,0.0,0.0,0.0,0.0,0.0,0.0,0.0,0.0,0.0,0.0,0.0,0.0,0.0,0.0,0.0,0.0,0.0,0.0,0.0,0.0,0.0,0.0,0.0,0.0,0.0,0.0,0.0]}]]